[[{"header":{"parameterUnit":"m.s-1","parameterCategory":1,"la1":30.6,"la2":29.2853,"lo1":-89.7004,"lo2":-87.6739,"dy":0.0162,"dx":0.0183,"nx":112,"ny":82,"refTime":"2026-03-05T00:00:00:Z","depth":0,"parameterNumber":2,"parameterNumberName":"U-component_of_WINDS"},"data":[0.0,0.0,0.0,0.0,0.0,0.0,0.0,0.0,0.0,0.0,0.0,0.0,0.0,0.0,0.0,0.0,0.0,0.0,0.0,0.0,0.0,0.0,0.0,0.0,0.0,0.0,0.0,0.0,0.0,0.0,0.0,0.0,0.0,0.0,0.0,0.0,0.0,0.0,0.0,0.0,0.0,0.0,0.0,0.0,0.0,0.0,0.0,0.0,0.0,0.0,0.0,0.0,0.0,0.0,0.0,0.0,0.0,0.0,0.0,0.0,0.0,0.0,0.0,0.0,0.0,0.0,0.0,0.0,0.0,0.0,0.0,0.0,0.0,0.0,0.0,0.0,0.0,0.0,0.0,0.0,0.0,0.0,0.0,0.0,0.0,0.0,0.0,0.0,0.0,0.0,-4.6562,-4.614,-4.7518,-4.8457,-4.8457,-4.9214,-4.8661,-4.6335,0.0,0.0,0.0,0.0,0.0,0.0,0.0,0.0,0.0,0.0,0.0,0.0,0.0,0.0,0.0,0.0,0.0,0.0,0.0,0.0,0.0,0.0,0.0,0.0,0.0,0.0,0.0,0.0,0.0,0.0,0.0,0.0,0.0,0.0,0.0,0.0,0.0,0.0,0.0,0.0,0.0,0.0,0.0,0.0,0.0,0.0,0.0,0.0,0.0,0.0,0.0,0.0,0.0,0.0,0.0,0.0,0.0,0.0,0.0,0.0,0.0,0.0,0.0,0.0,0.0,0.0,0.0,0.0,0.0,0.0,0.0,0.0,0.0,0.0,0.0,0.0,0.0,0.0,0.0,0.0,0.0,0.0,0.0,0.0,0.0,0.0,0.0,0.0,0.0,0.0,0.0,0.0,0.0,0.0,0.0,0.0,0.0,0.0,0.0,0.0,0.0,0.0,0.0,0.0,-4.5535,-4.6782,-4.7755,-4.8325,-4.8325,-4.8473,-4.7849,-4.6211,0.0,0.0,0.0,0.0,0.0,0.0,0.0,0.0,0.0,0.0,0.0,0.0,0.0,0.0,0.0,0.0,0.0,0.0,0.0,0.0,0.0,0.0,0.0,0.0,0.0,0.0,0.0,0.0,0.0,0.0,0.0,0.0,0.0,0.0,0.0,0.0,0.0,0.0,0.0,0.0,0.0,0.0,0.0,0.0,0.0,0.0,0.0,0.0,0.0,0.0,0.0,0.0,0.0,0.0,0.0,0.0,0.0,0.0,0.0,0.0,0.0,0.0,0.0,0.0,0.0,0.0,0.0,0.0,0.0,0.0,0.0,0.0,0.0,0.0,0.0,0.0,0.0,0.0,0.0,0.0,0.0,0.0,0.0,0.0,0.0,0.0,0.0,0.0,0.0,0.0,0.0,0.0,0.0,0.0,0.0,0.0,0.0,0.0,0.0,0.0,0.0,0.0,0.0,-4.473,-4.5212,-4.6819,-4.7557,-4.7917,-4.7917,-4.8152,-4.7646,-4.6103,-4.636,0.0,0.0,0.0,0.0,0.0,0.0,0.0,0.0,0.0,0.0,0.0,0.0,0.0,0.0,0.0,0.0,0.0,0.0,0.0,0.0,0.0,0.0,0.0,0.0,0.0,0.0,0.0,0.0,0.0,0.0,0.0,0.0,0.0,0.0,0.0,0.0,0.0,0.0,0.0,0.0,0.0,0.0,0.0,0.0,0.0,0.0,0.0,0.0,0.0,0.0,0.0,0.0,0.0,0.0,0.0,0.0,0.0,0.0,0.0,0.0,0.0,0.0,0.0,0.0,0.0,0.0,0.0,0.0,0.0,0.0,0.0,0.0,0.0,0.0,0.0,0.0,0.0,0.0,0.0,0.0,0.0,0.0,0.0,0.0,0.0,0.0,0.0,0.0,0.0,0.0,0.0,0.0,0.0,0.0,0.0,0.0,0.0,0.0,0.0,0.0,0.0,0.0,-4.5085,-4.5361,-4.6743,-4.7226,-4.7442,-4.7442,-4.7593,-4.7121,-4.5827,-4.5553,0.0,0.0,0.0,0.0,0.0,0.0,0.0,0.0,0.0,0.0,0.0,0.0,0.0,0.0,0.0,0.0,0.0,0.0,0.0,0.0,0.0,0.0,0.0,0.0,0.0,0.0,0.0,0.0,0.0,0.0,0.0,0.0,0.0,0.0,0.0,0.0,0.0,0.0,0.0,0.0,0.0,0.0,0.0,0.0,0.0,0.0,0.0,0.0,0.0,0.0,0.0,0.0,0.0,0.0,0.0,0.0,0.0,0.0,0.0,0.0,0.0,0.0,0.0,0.0,0.0,0.0,0.0,0.0,0.0,0.0,0.0,0.0,0.0,0.0,0.0,0.0,0.0,0.0,0.0,0.0,0.0,0.0,0.0,0.0,0.0,0.0,0.0,0.0,0.0,0.0,0.0,0.0,0.0,0.0,0.0,0.0,0.0,0.0,0.0,0.0,0.0,0.0,-4.53,-4.6073,-4.6822,-4.6931,-4.6954,-4.6954,-4.6284,-4.571,-4.5289,-4.4624,0.0,0.0,0.0,0.0,0.0,0.0,0.0,0.0,0.0,0.0,0.0,0.0,0.0,0.0,0.0,0.0,0.0,0.0,0.0,0.0,0.0,0.0,0.0,0.0,0.0,0.0,0.0,0.0,0.0,0.0,0.0,0.0,0.0,0.0,0.0,0.0,0.0,0.0,0.0,0.0,0.0,0.0,0.0,0.0,0.0,0.0,0.0,0.0,0.0,0.0,0.0,0.0,0.0,0.0,0.0,0.0,0.0,0.0,0.0,0.0,0.0,0.0,0.0,0.0,0.0,0.0,0.0,0.0,0.0,0.0,0.0,0.0,0.0,0.0,0.0,0.0,0.0,0.0,0.0,0.0,0.0,0.0,0.0,0.0,0.0,0.0,0.0,0.0,0.0,0.0,0.0,0.0,0.0,0.0,0.0,0.0,0.0,0.0,0.0,0.0,0.0,0.0,-4.3687,-4.4362,-4.557,-4.5985,-4.6165,-4.6165,-4.5717,-4.5232,-4.4661,0.0,0.0,0.0,0.0,0.0,0.0,0.0,0.0,0.0,0.0,0.0,0.0,0.0,0.0,0.0,0.0,0.0,0.0,0.0,0.0,0.0,0.0,0.0,0.0,0.0,0.0,0.0,0.0,0.0,0.0,0.0,0.0,0.0,0.0,0.0,0.0,0.0,0.0,0.0,0.0,0.0,0.0,0.0,0.0,0.0,0.0,0.0,0.0,0.0,0.0,0.0,0.0,0.0,0.0,0.0,0.0,0.0,0.0,0.0,0.0,0.0,0.0,0.0,0.0,0.0,0.0,0.0,0.0,0.0,0.0,0.0,0.0,0.0,0.0,0.0,0.0,0.0,0.0,0.0,0.0,0.0,0.0,0.0,0.0,0.0,0.0,0.0,0.0,0.0,0.0,0.0,0.0,0.0,0.0,0.0,0.0,0.0,0.0,0.0,0.0,0.0,0.0,-4.2526,-4.2893,-4.3524,-4.4841,-4.5069,-4.5131,-4.5131,-4.4516,-4.4003,-4.3676,0.0,0.0,0.0,0.0,0.0,0.0,0.0,0.0,0.0,0.0,0.0,0.0,0.0,0.0,0.0,0.0,0.0,0.0,0.0,0.0,0.0,0.0,0.0,0.0,0.0,0.0,0.0,0.0,0.0,0.0,0.0,0.0,0.0,0.0,0.0,0.0,0.0,0.0,0.0,0.0,0.0,0.0,0.0,0.0,0.0,0.0,0.0,0.0,0.0,0.0,0.0,0.0,0.0,0.0,0.0,0.0,0.0,0.0,0.0,0.0,0.0,0.0,0.0,0.0,0.0,0.0,0.0,0.0,0.0,0.0,0.0,0.0,0.0,0.0,0.0,0.0,0.0,0.0,0.0,0.0,0.0,0.0,0.0,0.0,0.0,0.0,0.0,0.0,0.0,0.0,0.0,0.0,0.0,0.0,0.0,0.0,0.0,0.0,0.0,0.0,0.0,0.0,-4.2595,-4.3274,-4.4014,-4.4892,-4.4329,-4.3885,-4.3868,-4.2492,-4.1786,0.0,0.0,0.0,0.0,0.0,0.0,0.0,0.0,0.0,0.0,0.0,0.0,0.0,0.0,0.0,0.0,0.0,0.0,0.0,0.0,0.0,0.0,0.0,0.0,0.0,0.0,0.0,0.0,0.0,0.0,0.0,0.0,0.0,0.0,0.0,0.0,0.0,0.0,0.0,0.0,0.0,0.0,0.0,0.0,0.0,0.0,0.0,0.0,0.0,0.0,0.0,0.0,0.0,0.0,0.0,0.0,0.0,0.0,0.0,0.0,0.0,0.0,0.0,0.0,0.0,0.0,0.0,0.0,0.0,0.0,0.0,0.0,0.0,0.0,0.0,0.0,0.0,0.0,0.0,0.0,0.0,0.0,0.0,0.0,0.0,0.0,0.0,0.0,0.0,0.0,0.0,0.0,0.0,0.0,0.0,0.0,0.0,0.0,0.0,0.0,0.0,0.0,0.0,-4.2198,-4.2596,-4.301,-4.3783,-4.3691,-4.3352,-4.2809,-4.1876,-4.1197,-4.0901,0.0,0.0,0.0,0.0,0.0,0.0,0.0,0.0,0.0,0.0,0.0,0.0,0.0,0.0,0.0,0.0,0.0,0.0,0.0,0.0,0.0,0.0,0.0,0.0,0.0,0.0,0.0,0.0,0.0,0.0,0.0,0.0,0.0,0.0,0.0,0.0,0.0,0.0,0.0,0.0,0.0,0.0,0.0,0.0,0.0,0.0,0.0,0.0,0.0,0.0,0.0,0.0,0.0,0.0,0.0,0.0,0.0,0.0,0.0,0.0,0.0,0.0,0.0,0.0,0.0,0.0,0.0,0.0,0.0,0.0,0.0,0.0,0.0,0.0,0.0,0.0,0.0,0.0,0.0,0.0,0.0,0.0,0.0,0.0,0.0,0.0,0.0,0.0,0.0,0.0,0.0,0.0,0.0,0.0,0.0,0.0,0.0,0.0,0.0,0.0,0.0,0.0,-4.1617,-4.146,-4.1522,-4.2537,-4.2137,-4.1605,-4.1183,-4.0705,-4.0126,-3.9463,0.0,0.0,0.0,0.0,0.0,0.0,0.0,0.0,0.0,0.0,0.0,0.0,0.0,0.0,0.0,0.0,0.0,0.0,0.0,0.0,0.0,0.0,0.0,0.0,0.0,0.0,0.0,0.0,0.0,0.0,0.0,0.0,0.0,0.0,0.0,0.0,0.0,0.0,0.0,0.0,0.0,0.0,0.0,0.0,0.0,0.0,0.0,0.0,0.0,0.0,0.0,0.0,0.0,0.0,0.0,0.0,0.0,0.0,0.0,0.0,0.0,0.0,0.0,0.0,0.0,0.0,0.0,0.0,0.0,0.0,0.0,0.0,0.0,0.0,0.0,0.0,0.0,0.0,0.0,0.0,0.0,0.0,0.0,0.0,0.0,0.0,0.0,0.0,0.0,0.0,0.0,0.0,0.0,0.0,0.0,0.0,0.0,0.0,0.0,0.0,0.0,0.0,-4.0821,-4.007,-3.9849,-4.1112,-4.0124,-3.9331,-3.9266,-3.9144,-3.8768,-3.8025,0.0,0.0,0.0,0.0,0.0,0.0,0.0,0.0,0.0,0.0,0.0,0.0,0.0,0.0,0.0,0.0,0.0,0.0,0.0,0.0,0.0,0.0,0.0,0.0,0.0,0.0,0.0,0.0,0.0,0.0,0.0,0.0,0.0,0.0,0.0,0.0,0.0,0.0,0.0,0.0,0.0,0.0,0.0,0.0,0.0,0.0,0.0,0.0,0.0,0.0,0.0,0.0,0.0,0.0,0.0,0.0,0.0,0.0,0.0,0.0,-3.9895,-4.0632,0.0,0.0,0.0,0.0,0.0,0.0,0.0,0.0,0.0,0.0,0.0,0.0,0.0,0.0,0.0,0.0,0.0,0.0,0.0,0.0,0.0,0.0,0.0,0.0,0.0,0.0,0.0,0.0,0.0,0.0,0.0,0.0,0.0,0.0,0.0,0.0,0.0,0.0,0.0,0.0,-3.9214,-3.9162,-3.9106,-3.9441,-3.92,-3.8769,-3.8181,-3.8103,-3.783,-3.7214,-3.6783,0.0,0.0,0.0,0.0,0.0,0.0,0.0,0.0,0.0,0.0,0.0,0.0,0.0,0.0,0.0,0.0,0.0,0.0,0.0,0.0,0.0,0.0,0.0,0.0,0.0,0.0,0.0,0.0,0.0,0.0,0.0,0.0,0.0,0.0,0.0,0.0,0.0,0.0,0.0,0.0,0.0,0.0,0.0,0.0,0.0,0.0,0.0,0.0,0.0,0.0,0.0,0.0,0.0,0.0,0.0,0.0,0.0,0.0,0.0,-3.9897,-4.0507,0.0,0.0,0.0,0.0,0.0,0.0,0.0,0.0,0.0,0.0,0.0,0.0,0.0,0.0,0.0,0.0,0.0,0.0,0.0,0.0,0.0,0.0,0.0,0.0,0.0,0.0,0.0,0.0,0.0,0.0,0.0,0.0,0.0,0.0,0.0,0.0,0.0,0.0,0.0,0.0,-3.819,-3.7884,-3.7622,-3.795,-3.77,-3.7356,-3.6952,-3.7191,-3.7083,-3.6416,-3.633,0.0,0.0,0.0,0.0,0.0,0.0,0.0,0.0,0.0,0.0,0.0,0.0,0.0,0.0,0.0,0.0,0.0,0.0,0.0,0.0,0.0,0.0,0.0,0.0,0.0,0.0,0.0,0.0,0.0,0.0,0.0,0.0,0.0,0.0,0.0,0.0,0.0,0.0,0.0,0.0,0.0,0.0,0.0,0.0,0.0,0.0,0.0,0.0,0.0,0.0,0.0,0.0,0.0,-4.1042,-4.1127,-4.0613,-4.1153,-4.1088,-4.0576,-4.0867,-4.13,-4.181,-4.1703,0.0,0.0,0.0,0.0,0.0,0.0,0.0,0.0,0.0,0.0,0.0,0.0,0.0,0.0,0.0,0.0,0.0,0.0,0.0,0.0,0.0,0.0,-3.739,-3.739,-3.6511,-3.6027,-3.7304,0.0,0.0,0.0,0.0,0.0,0.0,0.0,0.0,0.0,0.0,0.0,-3.725,-3.6547,-3.6122,-3.6682,-3.6243,-3.591,-3.591,-3.6383,-3.6399,-3.5827,-3.6129,-3.5846,0.0,0.0,0.0,0.0,0.0,0.0,0.0,0.0,0.0,0.0,0.0,0.0,0.0,0.0,0.0,0.0,0.0,0.0,0.0,0.0,0.0,0.0,0.0,0.0,0.0,0.0,0.0,0.0,0.0,0.0,0.0,0.0,-4.2521,-4.2426,0.0,0.0,0.0,0.0,0.0,0.0,0.0,0.0,0.0,0.0,0.0,0.0,0.0,-3.853,-3.842,-3.9672,-4.0314,-4.0368,-4.1083,-4.1362,-4.1265,-4.134,-4.1348,-4.1317,-4.1904,0.0,-4.2217,-4.1075,0.0,0.0,0.0,0.0,0.0,0.0,0.0,0.0,0.0,0.0,0.0,0.0,0.0,0.0,0.0,0.0,0.0,0.0,0.0,0.0,0.0,0.0,-3.7406,-3.7406,-3.6873,-3.6409,-3.6625,-3.53,-3.4016,-3.3834,-3.3804,-3.3955,0.0,0.0,0.0,0.0,0.0,0.0,-3.5774,-3.5679,-3.5599,-3.5689,-3.5614,-3.5569,-3.5569,-3.5651,-3.5688,-3.5726,-3.5244,-3.4973,-3.4942,-3.4346,0.0,0.0,0.0,0.0,0.0,0.0,0.0,0.0,0.0,0.0,0.0,0.0,0.0,0.0,0.0,0.0,0.0,0.0,0.0,0.0,0.0,0.0,0.0,0.0,0.0,0.0,0.0,0.0,0.0,-4.1781,-4.1178,-4.0795,-4.1086,-4.1056,0.0,0.0,0.0,0.0,0.0,0.0,0.0,0.0,0.0,-3.7411,-3.8525,-3.912,-3.912,-4.0084,-4.0751,-4.1107,-4.1442,-4.1768,-4.2125,-4.2125,-4.2125,-4.2139,-4.2421,-4.2559,-4.2481,-4.1413,-4.0705,-4.0182,0.0,0.0,0.0,0.0,-3.79,-3.8251,-3.8409,-3.8353,-3.8167,-3.8112,0.0,0.0,0.0,0.0,0.0,0.0,0.0,-3.5386,-3.5296,-3.5733,-3.6127,-3.5805,-3.5518,-3.5232,-3.4958,-3.3871,-3.3204,-3.391,-3.4038,-3.4174,-3.4459,-3.4204,0.0,0.0,0.0,-3.507,-3.5459,-3.5504,-3.5504,-3.5504,-3.5504,-3.5504,-3.5504,-3.5504,-3.5537,-3.5572,-3.5302,-3.5018,-3.4738,-3.4406,-3.3758,0.0,0.0,0.0,0.0,0.0,0.0,0.0,0.0,0.0,0.0,0.0,0.0,0.0,0.0,0.0,0.0,0.0,0.0,0.0,0.0,0.0,0.0,0.0,0.0,0.0,0.0,0.0,0.0,-4.0965,-4.0412,-3.9753,-4.021,-4.0263,0.0,0.0,0.0,0.0,0.0,0.0,-3.7009,-3.7675,-3.798,-3.7805,-3.8913,-3.9503,-3.9503,-4.0155,-4.0735,-4.1239,-4.1239,-4.1485,-4.199,-4.199,-4.199,-4.199,-4.199,-4.199,-4.1945,-4.1622,-4.08,-3.9645,-3.8796,-3.8102,-3.7501,-3.7327,-3.7603,-3.8047,-3.8051,-3.8135,-3.8171,-3.7835,-3.715,-3.641,-3.5903,0.0,0.0,0.0,0.0,-3.4506,-3.4564,-3.481,-3.4986,-3.472,-3.444,-3.408,-3.3675,-3.3057,-3.2891,-3.3835,-3.4024,-3.4024,-3.4024,-3.3595,0.0,-3.4593,-3.4347,-3.42,-3.4681,-3.4935,-3.5001,-3.4839,-3.5034,-3.5082,-3.4935,-3.5067,-3.5198,-3.5198,-3.5359,-3.5103,-3.4392,-3.4345,-3.3669,-3.2302,0.0,0.0,0.0,0.0,0.0,0.0,0.0,0.0,0.0,0.0,0.0,0.0,0.0,0.0,0.0,0.0,0.0,0.0,0.0,0.0,0.0,0.0,0.0,0.0,0.0,0.0,0.0,0.0,0.0,-4.0427,-4.0747,0.0,0.0,0.0,0.0,-3.6507,-3.628,-3.6117,-3.5998,-3.7194,-3.7607,-3.7001,-3.8228,-3.8948,-3.8948,-3.9627,-3.996,-3.9988,-3.9988,-4.0002,-4.0029,-4.0029,-4.0029,-4.0029,-4.0029,-4.0029,-4.0118,-4.1224,-4.1273,-4.0498,-3.9283,-3.8384,-3.7773,-3.778,-3.7794,-3.7912,-3.8517,-3.7812,-3.6725,-3.7334,-3.6545,-3.5377,-3.5349,-3.4868,0.0,0.0,-3.4327,-3.4465,-3.5071,-3.4848,-3.4596,-3.5214,-3.4477,-3.3642,-3.3614,-3.3057,-3.2629,-3.2672,-3.2693,-3.2693,-3.2693,0.0,-3.2666,-3.2735,-3.2721,-3.2707,-3.2749,-3.3408,-3.3679,-3.3101,-3.3699,-3.3934,-3.3367,-3.3973,-3.4346,-3.4346,-3.492,-3.4872,-3.4052,-3.3896,-3.3138,-3.1661,-3.1647,0.0,0.0,0.0,0.0,0.0,0.0,0.0,0.0,0.0,0.0,0.0,0.0,0.0,0.0,0.0,0.0,0.0,0.0,0.0,0.0,0.0,0.0,0.0,0.0,0.0,0.0,0.0,0.0,-3.9242,-3.9981,0.0,-3.8465,-3.7394,-3.6906,-3.7336,-3.6889,-3.6796,-3.7181,-3.7907,-3.8221,-3.8016,-3.871,-3.909,-3.909,-3.9352,-3.9461,-3.9461,-3.9461,-3.9461,-3.9461,-3.9461,-3.9461,-3.9461,-3.9461,-3.9461,-3.9492,-3.9923,-3.9859,-3.9404,-3.8175,-3.7554,-3.7275,-3.6789,-3.6849,-3.7158,-3.6858,-3.6654,-3.6486,-3.588,-3.5329,-3.4849,-3.4401,-3.4091,-3.3813,-3.3325,-3.3208,-3.3144,-3.2868,-3.2645,-3.2449,-3.2358,-3.1967,-3.1564,-3.1237,-3.0965,-3.0822,-3.0822,-3.1756,-3.2593,-3.2593,-3.2593,-3.2593,-3.2593,-3.2593,-3.2593,-3.2593,-3.2855,-3.2939,-3.2749,-3.2961,-3.3045,-3.2834,-3.3066,-3.3206,-3.3206,-3.3394,-3.3394,-3.3101,-3.3031,-3.2577,-3.1605,-3.1592,-3.1013,0.0,0.0,0.0,0.0,0.0,0.0,0.0,0.0,0.0,0.0,0.0,0.0,0.0,0.0,0.0,0.0,0.0,0.0,0.0,0.0,0.0,0.0,0.0,0.0,0.0,-3.9852,-3.9481,-3.8347,-3.914,-3.9215,-3.7895,-3.7068,-3.6843,-3.7466,-3.6815,-3.6697,-3.7357,-3.7696,-3.7878,-3.7878,-3.8116,-3.827,-3.827,-3.827,-3.827,-3.827,-3.827,-3.827,-3.827,-3.827,-3.827,-3.827,-3.827,-3.827,-3.8257,-3.8013,-3.7874,-3.7715,-3.737,-3.7099,-3.6852,-3.6074,-3.6061,-3.6347,-3.548,-3.5505,-3.5679,-3.4537,-3.4163,-3.4057,-3.341,-3.3186,-3.3067,-3.238,-3.2222,-3.2049,-3.1549,-3.126,-3.1047,-3.0696,-3.047,-3.0231,-2.988,-2.9792,-2.9792,-2.9792,-3.0809,-3.1659,-3.1659,-3.1659,-3.1659,-3.1659,-3.1659,-3.1659,-3.1659,-3.1852,-3.196,-3.1769,-3.1974,-3.2046,-3.1865,-3.2083,-3.2227,-3.2227,-3.2393,-3.2393,-3.2141,-3.2069,-3.1712,-3.1011,-3.0797,-3.0223,-2.9213,0.0,0.0,0.0,0.0,0.0,0.0,0.0,0.0,0.0,0.0,0.0,0.0,0.0,0.0,0.0,0.0,0.0,0.0,0.0,0.0,0.0,0.0,0.0,-3.8987,-3.8585,-3.8034,-3.7868,-3.8304,-3.8326,-3.7627,-3.6605,-3.6212,-3.6772,-3.6001,-3.5805,-3.638,-3.6405,-3.6405,-3.6405,-3.6405,-3.6405,-3.6405,-3.6405,-3.6405,-3.6405,-3.6405,-3.6405,-3.6405,-3.6405,-3.6405,-3.6405,-3.6405,-3.6405,-3.6342,-3.5768,-3.5483,-3.5567,-3.6821,-3.6969,-3.6428,-3.5764,-3.5534,-3.5427,-3.462,-3.4356,-3.423,-3.3368,-3.3124,-3.3011,-3.239,-3.2215,-3.2089,-3.1524,-3.1361,-3.1361,-3.1348,-3.0972,-3.0595,-3.0595,-3.0181,-2.9792,-2.9792,-2.9792,-2.9792,-2.9792,-2.9792,-2.9792,-2.9792,-2.9792,-2.9792,-2.9792,-2.9792,0.0,-2.9792,-3.0406,-3.0658,-3.0152,-3.0722,-3.0934,-3.0444,-3.1046,-3.1442,-3.1442,-3.1938,-3.1888,-3.118,-3.0957,-3.0507,-2.983,-2.9227,-2.8624,-2.8109,0.0,0.0,0.0,0.0,0.0,0.0,0.0,0.0,0.0,0.0,0.0,0.0,0.0,0.0,0.0,0.0,0.0,0.0,0.0,0.0,0.0,-3.6049,-3.6246,-3.7318,-3.7907,-3.7984,-3.7188,-3.7629,-3.7676,-3.6792,-3.6471,-3.6362,-3.6515,-3.6272,-3.6194,-3.6405,-3.6405,-3.6405,-3.6405,-3.6405,-3.6405,-3.6405,-3.6405,-3.6405,-3.6405,-3.6405,-3.6405,-3.6405,-3.6405,-3.6405,-3.6405,-3.6405,-3.6132,-3.5708,-3.5558,-3.5031,-3.4381,-3.4734,-3.4786,-3.4581,-3.4003,-3.3797,-3.3755,-3.3526,-3.3454,-3.3411,-3.3167,-3.3124,-3.3011,-3.239,-3.2215,-3.2026,-3.1085,-3.0834,-3.0733,-3.0331,-3.0131,-3.0018,-3.0018,-2.9905,-2.9792,-2.9792,-2.9792,-2.9792,-2.9792,-2.9792,-2.9792,-2.9792,-2.9792,-2.9792,-2.9792,-2.9792,-2.9792,-2.9792,-2.9972,-3.0037,-2.9895,-3.0049,-3.0113,-2.9972,-3.0152,-3.0254,-3.0254,-3.0394,-3.0394,-3.0177,-3.0139,-2.9998,-2.9792,-2.9227,-2.8624,0.0,0.0,0.0,0.0,0.0,0.0,0.0,0.0,0.0,0.0,0.0,0.0,0.0,0.0,0.0,0.0,0.0,0.0,0.0,0.0,0.0,0.0,-3.5349,-3.5678,-3.6187,-3.6779,-3.7024,-3.6682,-3.697,-3.6989,-3.6452,-3.6405,-3.6405,-3.6405,-3.6405,-3.6405,-3.6405,-3.6405,-3.6405,-3.6405,-3.6405,-3.6405,-3.6405,-3.6405,-3.6405,-3.6405,-3.6405,-3.6405,-3.6405,-3.6405,-3.6279,-3.6019,-3.6019,-3.5705,-3.5144,-3.4906,-3.4474,-3.3897,0.0,0.0,0.0,0.0,-3.3124,-3.3124,-3.3124,-3.3124,-3.3124,-3.3124,-3.3124,-3.2973,-3.2114,-3.1863,-3.165,-3.057,-3.0269,-3.0193,-2.988,-2.9792,-2.9792,-2.9792,-2.9792,-2.9792,-2.9792,-2.9792,-2.9792,-2.9792,-2.9792,0.0,-2.9792,-2.9792,-2.9792,-2.9792,-2.9792,-2.9792,-2.9792,-2.9792,-2.9792,-2.9792,-2.9792,-2.9792,-2.9792,-2.9792,0.0,0.0,0.0,-2.9792,-2.9792,-2.9792,0.0,0.0,0.0,0.0,0.0,0.0,0.0,0.0,-2.8249,-2.8324,0.0,0.0,0.0,0.0,0.0,0.0,0.0,0.0,0.0,0.0,0.0,0.0,0.0,0.0,0.0,0.0,-3.5099,-3.5633,-3.5759,-3.5721,-3.5881,-3.6355,-3.6405,-3.6405,-3.6405,-3.6405,-3.6405,-3.6405,-3.6405,-3.6405,-3.6405,-3.6405,0.0,0.0,0.0,-3.638,-3.6317,-3.6317,-3.6279,-3.6229,-3.6229,-3.6229,-3.6229,-3.6229,-3.5906,-3.5408,-3.5408,-3.5094,-3.4587,-3.411,-3.3859,-3.3809,-3.3809,-3.3508,-3.3124,-3.3124,-3.3124,-3.3124,-3.3124,0.0,0.0,-3.3124,-3.3124,-3.2923,-3.1813,-3.1436,-3.1185,-3.0168,-2.9842,-2.9792,-2.9792,-2.9792,-2.9792,-2.9792,-2.9792,-2.9792,-2.9792,-2.9792,-2.9792,-2.9792,-2.9792,-2.9792,-2.9792,-2.9792,-2.9792,-2.9792,-2.9792,-2.9792,-2.9792,-2.9792,-2.9792,-2.9792,-2.9792,0.0,-2.9792,-2.9792,-2.9792,-2.9792,-2.9792,-2.974,-2.974,-2.974,-2.9714,-2.9714,-2.9714,-2.9611,-2.938,-2.938,-2.9223,-2.8937,-2.845,-2.8363,0.0,0.0,0.0,0.0,0.0,0.0,0.0,0.0,0.0,0.0,0.0,0.0,0.0,0.0,0.0,-3.5783,-3.6134,-3.6508,-3.74,-3.7149,-3.6747,-3.6455,-3.6405,-3.6405,-3.6405,-3.6405,-3.6405,-3.6405,-3.6405,-3.6405,-3.6405,-3.6405,-3.6405,-3.6405,-3.6405,-3.6157,-3.5658,-3.5658,-3.5479,-3.5039,-3.5039,0.0,-3.5039,-3.5039,-3.4977,-3.4831,-3.4831,-3.4562,-3.4048,-3.3935,-3.3633,-3.3232,-3.3232,-3.3212,-3.3124,-3.3124,-3.3124,-3.3124,-3.3124,-3.3124,-3.3124,-3.3124,-3.3124,-3.2955,-3.2265,-3.1738,0.0,-3.0633,-3.0131,-2.9792,-2.9792,-2.9792,-2.9792,-2.9792,-2.9792,-2.9792,-2.9792,-2.9792,-2.9792,-2.9792,-2.9792,-2.9792,-2.9792,-2.9792,-2.9792,-2.9792,-2.9792,-2.9792,-2.9792,-2.9792,-2.9792,-2.9792,-2.9792,-2.9792,-2.9792,-2.9792,-2.9792,-2.9792,-2.9599,-2.947,-2.947,-2.9326,-2.926,-2.926,-2.926,-2.9209,-2.917,-2.917,-2.8791,-2.8051,-2.8624,-2.895,0.0,0.0,0.0,0.0,0.0,0.0,0.0,0.0,0.0,0.0,0.0,-3.404,-3.4384,0.0,-3.5175,-3.6225,-3.6644,-3.7061,-3.7889,-3.7764,-3.7387,-3.6835,-3.6568,-3.6405,-3.6405,-3.6405,-3.6405,-3.6405,-3.6405,-3.6405,-3.6405,-3.6405,-3.6279,-3.5968,-3.5956,-3.5692,-3.5094,-3.5094,-3.4956,-3.468,-3.468,-3.468,-3.468,-3.468,-3.4575,-3.4311,-3.4311,-3.3997,-3.3483,-3.3483,-3.3319,-3.3124,-3.3124,-3.3124,-3.3124,-3.3124,-3.3124,-3.3124,-3.3124,-3.3124,-3.3124,-3.3124,-3.3124,-3.3011,-3.239,-3.2026,-3.1687,-3.1148,-3.062,-3.0206,-3.0206,-2.9993,-2.9792,-2.9792,-2.9792,-2.9792,-2.9792,-2.9792,-2.9792,-2.9792,-2.9792,-2.9753,-2.9611,-2.9599,-2.965,-2.9792,-2.9792,-2.9792,-2.9792,-2.9702,-2.9599,-2.9599,-2.9495,-2.9456,-2.9456,-2.9456,-2.9456,-2.9456,-2.9326,-2.9236,-2.9236,-2.917,-2.9091,-2.9091,-2.9091,-2.9052,-2.8961,-2.8961,-2.8435,-2.7487,-2.7955,-2.7931,0.0,0.0,0.0,0.0,0.0,0.0,0.0,-3.4687,-3.4497,-3.4328,-3.4276,-3.4427,-3.4778,-3.5207,-3.5746,-3.6558,-3.7048,-3.7575,-3.8241,-3.8241,-3.7965,-3.7412,-3.6908,-3.6518,-3.6417,-3.6405,-3.6405,-3.6405,-3.6405,-3.6405,-3.6405,-3.6304,-3.5994,-3.552,-3.5395,-3.5069,-3.4562,-3.4517,-3.4512,-3.4399,-3.4399,-3.4399,-3.4399,-3.4399,-3.4161,-3.3746,-3.3746,-3.3483,-3.3124,-3.3124,-3.3124,-3.3124,-3.3124,-3.3124,-3.3124,-3.3124,-3.3124,-3.3124,-3.3124,-3.3124,-3.3124,-3.3124,-3.3124,-3.2993,-3.2516,-3.2303,-3.2127,-3.1675,-3.1097,-3.062,-3.062,-3.0206,-2.9792,-2.9792,-2.9792,-2.9792,-2.9792,-2.9792,-2.9792,-2.974,-2.9702,-2.965,-2.9392,-2.9341,-2.9431,-2.9624,-2.9702,-2.9702,-2.9663,-2.9521,-2.938,-2.9341,-2.9197,-2.9091,-2.9091,-2.9091,-2.9091,-2.9091,-2.9052,-2.9052,-2.9052,-2.9013,-2.8973,-2.8973,-2.8973,-2.8895,-2.8724,-2.8554,-2.7943,-2.6928,-2.6764,-2.6453,-3.5311,-3.4915,-3.5041,-3.512,-3.4838,-3.4673,0.0,-3.4525,-3.4123,-3.4546,-3.4659,-3.4816,-3.5295,-3.5458,-3.5997,-3.7575,-3.7877,-3.8278,-3.9358,-3.9082,-3.8567,-3.799,-3.7425,-3.6945,-3.6455,-3.6405,-3.6405,-3.6405,-3.6405,-3.6405,-3.6405,-3.5893,-3.5558,-3.5495,-3.5019,-3.455,-3.3997,-3.3985,-3.3746,-3.3257,-3.3257,-3.3257,-3.3257,-3.3257,-3.3275,-3.3212,-3.3212,-3.3174,-3.3124,-3.3124,-3.3124,-3.3124,-3.3124,-3.3124,-3.3124,-3.3124,-3.3124,-3.3124,-3.3124,-3.3124,-3.3124,-3.3124,-3.3124,-3.3111,-3.3006,-3.2616,-3.2202,-3.2139,-3.1386,-3.062,-3.062,-3.0206,-2.9792,-2.9792,-2.9792,-2.9792,-2.9792,-2.9792,-2.974,-2.9509,-2.9419,-2.9392,-2.917,-2.9131,-2.9131,-2.917,-2.9314,-2.9392,-2.9209,-2.9314,-2.9341,-2.917,-2.9091,-2.9091,-2.9091,-2.9091,-2.9091,-2.9091,-2.8922,-2.8843,-2.8843,-2.8657,-2.859,-2.859,-2.859,-2.855,-2.855,-2.7753,-2.6876,-2.5955,-2.5168,-2.5158,-3.6115,-3.5249,-3.4816,-3.5049,-3.4974,-3.4884,-3.4917,-3.4629,-3.4537,-3.5044,-3.5157,-3.532,-3.5918,-3.6282,-3.6835,-3.7839,-3.8291,-3.8781,-3.9584,-3.922,-3.8655,-3.8078,-3.7525,-3.6973,-3.6468,-3.6405,-3.6405,-3.6405,-3.6405,-3.6267,-3.5893,-3.5621,-3.5207,-3.4613,-3.4361,-3.3985,-3.342,-3.342,-3.3307,-3.3124,-3.3124,-3.3124,-3.3124,-3.3124,-3.3124,-3.3124,-3.3124,-3.3124,-3.3124,-3.3124,-3.3124,-3.3124,-3.3124,-3.3124,-3.3124,-3.3124,-3.3124,-3.3124,-3.3124,-3.3124,-3.3124,-3.3124,-3.3124,-3.3124,-3.3124,-3.2905,-3.2717,-3.2717,-3.2152,-3.1508,-3.1397,-3.0801,-3.019,-2.994,-2.9719,-2.9521,-2.9417,-2.9378,-2.9378,-2.9236,-2.9236,-2.9157,-2.8961,-2.8922,-2.8895,-2.8776,-2.9,-2.9197,-2.9091,-2.9079,-2.8961,-2.8776,-2.8736,-2.8736,-2.8736,-2.8736,-2.8736,-2.8736,-2.8657,-2.8618,-2.8618,-2.855,-2.851,-2.851,-2.851,-2.851,-2.851,-2.7644,-2.6712,-2.5777,-2.4914,-2.4547,-3.5737,-3.4928,-3.4445,-3.4834,-3.5124,-3.5197,-3.4987,-3.5064,-3.529,-3.5692,-3.5768,-3.5893,-3.6329,-3.6732,-3.7136,-3.7688,-3.8128,-3.8592,-3.9145,-3.8881,-3.8417,-3.7852,-3.7299,-3.6845,-3.6455,-3.6405,-3.6405,-3.6405,-3.6405,-3.6119,-3.552,-3.5357,-3.4876,-3.3935,-3.3759,-3.3483,-3.3124,-3.3124,-3.3124,-3.3124,-3.3124,-3.3124,-3.3124,-3.3124,-3.3124,-3.3124,-3.3124,-3.3124,-3.3124,-3.3124,-3.3124,-3.3124,-3.3124,-3.3124,-3.3124,-3.3124,-3.3124,-3.3124,-3.3124,-3.3124,-3.3124,-3.3124,-3.3124,-3.3124,-3.3124,-3.3124,-3.3124,-3.3124,-3.2624,-3.2101,-3.1945,-3.1331,-3.0595,-3.0019,-2.9754,-2.9539,-2.9167,-2.9091,-2.9091,-2.9013,-2.9013,-2.8961,-2.8764,-2.8724,-2.8657,-2.851,-2.8736,-2.8934,-2.8934,-2.8816,-2.8657,-2.851,-2.851,-2.851,-2.851,-2.851,-2.851,-2.851,-2.851,-2.851,-2.851,-2.851,-2.851,-2.851,-2.851,-2.851,-2.851,-2.7389,-2.6453,-2.5777,-2.4659,-2.4018,-3.2838,-3.2921,-3.3343,-3.405,-3.4893,-3.5491,-3.547,-3.5931,-3.6367,-3.638,-3.638,-3.6392,-3.6405,-3.6417,-3.6619,-3.7123,-3.7224,-3.7425,-3.799,-3.804,-3.7826,-3.7274,-3.6769,-3.643,-3.6405,-3.6405,-3.6405,-3.6405,-3.6405,-3.6119,-3.552,-3.4994,-3.4487,-3.3922,-3.3382,-3.3136,-3.3124,-3.3124,-3.3124,-3.3124,-3.3124,-3.3124,-3.3124,-3.3124,-3.3124,-3.3124,-3.3124,-3.3124,-3.3124,-3.3124,-3.3124,-3.3124,-3.3124,-3.3124,-3.3124,-3.3124,-3.3124,-3.3124,-3.3124,-3.3124,-3.3124,-3.3124,-3.3124,-3.3124,-3.3124,-3.3124,-3.3124,-3.3124,-3.2496,-3.1903,-3.1903,-3.1481,-3.0881,-3.0105,-3.0091,-3.0062,-2.9293,-2.9091,-2.9052,-2.8843,-2.8791,-2.8764,-2.855,-2.851,-2.851,-2.851,-2.851,-2.851,-2.851,-2.851,-2.851,-2.851,-2.851,-2.851,-2.851,-2.851,-2.851,-2.851,-2.851,-2.851,-2.851,-2.851,-2.851,-2.851,-2.851,-2.851,-2.851,-2.67,-2.5819,-2.5746,-2.3983,-2.3369,-3.3454,-3.3389,-3.3419,-3.4724,-3.5297,-3.5596,-3.6006,-3.6267,-3.6405,-3.6405,-3.6405,-3.6405,-3.6405,-3.6707,-3.6973,-3.7149,-3.7487,-3.7789,-3.7977,-3.7688,-3.7262,-3.6734,-3.6531,-3.6267,-3.5855,-3.5818,-3.5968,-3.638,-3.6031,-3.5579,-3.4981,-3.4474,-3.3922,-3.337,-3.3169,-3.3124,-3.3124,-3.3124,-3.3124,-3.3124,-3.3124,-3.3124,-3.3124,-3.3124,-3.3124,-3.3124,-3.3124,-3.3124,-3.3124,-3.3124,-3.3124,-3.3124,-3.3124,-3.3124,-3.3124,-3.3124,-3.3124,-3.3124,-3.3124,-3.3124,-3.3124,-3.3124,-3.3124,-3.3124,-3.3124,-3.3124,-3.3124,-3.3124,-3.29,-3.2664,-3.2493,-3.204,-3.1497,-3.091,-3.0281,-2.9719,-2.9306,-2.8951,-2.8669,-2.8618,-2.8618,-2.8578,-2.851,-2.851,-2.851,-2.851,-2.851,-2.851,-2.851,-2.851,-2.851,-2.851,-2.851,-2.851,-2.851,-2.851,-2.851,-2.851,-2.851,-2.851,-2.851,-2.851,-2.8219,-2.7644,-2.8219,-2.8219,-2.7632,-2.6412,-2.5777,-2.5746,-2.394,-2.3481,-3.3913,-3.3837,-3.3721,-3.5144,-3.5646,-3.5931,-3.6329,-3.6405,-3.6405,-3.6405,-3.6207,-3.6119,-3.6367,-3.6332,-3.6433,-3.6822,-3.7023,-3.7199,-3.7387,-3.7111,-3.6772,-3.6433,-3.6207,-3.6006,-3.5855,-3.5433,-3.5433,-3.6031,-3.5696,-3.5169,-3.4462,-3.4085,-3.3646,-3.3136,-3.3124,-3.3124,-3.3124,-3.3124,-3.3124,-3.3124,-3.3124,-3.3124,-3.3124,-3.3124,-3.3124,-3.3124,-3.3124,-3.3124,-3.3124,-3.3124,-3.3124,-3.3124,-3.3124,-3.3124,-3.3124,-3.3124,-3.3124,-3.3124,-3.3124,-3.3124,-3.3124,-3.3124,-3.3124,-3.3124,-3.3124,-3.3124,-3.3124,-3.3124,-3.3025,-3.2896,-3.268,-3.2333,-3.1896,-3.1247,-3.0622,-3.0075,-2.9658,-2.9316,-2.9015,-2.8823,-2.8799,-2.8727,-2.8546,-2.851,-2.851,-2.851,-2.851,-2.851,-2.851,-2.851,-2.851,-2.851,-2.851,-2.851,-2.851,-2.851,-2.851,-2.851,-2.851,-2.851,-2.851,-2.851,-2.8219,-2.7684,-2.8219,-2.8219,-2.7684,-2.6753,-2.6287,-2.6246,-2.4776,-2.4371,-3.4151,-3.4272,-3.4255,-3.5316,-3.5981,-3.6405,-3.6405,-3.6392,-3.6367,-3.6367,-3.5881,-3.5608,-3.6229,-3.5441,-3.5102,-3.6204,-3.5906,-3.5768,-3.6329,-3.6405,-3.6405,-3.6367,-3.5893,-3.578,-3.6317,-3.5378,-3.4919,-3.542,-3.5433,-3.4956,-3.396,-3.3872,-3.3621,-3.3136,-3.3124,-3.3124,-3.3124,-3.3124,-3.3124,-3.3124,-3.3124,-3.3124,-3.3124,-3.3124,-3.3124,-3.3124,-3.3124,-3.3124,-3.3124,-3.3124,-3.3124,-3.3124,-3.3124,-3.3124,-3.3124,-3.3124,-3.3124,-3.3124,-3.3043,-3.3056,-3.3124,-3.3124,-3.3124,-3.3124,-3.3124,-3.3124,-3.3124,-3.3124,-3.2896,-3.268,-3.2475,-3.2431,-3.2178,-3.1209,-3.1094,-3.101,-3.0272,-3.011,-2.9929,-2.94,-2.928,-2.91,-2.8595,-2.851,-2.851,-2.851,-2.851,-2.851,-2.851,-2.851,-2.851,-2.851,-2.851,-2.851,-2.851,-2.851,-2.851,-2.851,-2.851,-2.851,-2.851,-2.851,-2.8471,-2.8431,-2.8471,-2.8471,-2.8431,-2.7592,-2.7185,-2.7185,-2.6268,-2.5851,-3.5572,-3.5647,-3.5576,-3.6054,-3.6304,-3.6405,-3.6405,-3.6044,-3.5708,-3.5708,-3.527,-3.4931,-3.5115,-3.5207,-3.5382,-3.5658,-3.5981,-3.6194,-3.6392,-3.6405,-3.6207,-3.5805,-3.5994,-3.6044,-3.578,-3.5458,-3.5182,-3.4906,-3.455,-3.4198,-3.3909,-3.3508,-3.3219,-3.3081,-3.3124,-3.3124,-3.3124,-3.3124,-3.3124,-3.3124,-3.3124,-3.3124,-3.3124,-3.3124,-3.3124,-3.3124,-3.3124,-3.3124,-3.3124,-3.3124,-3.3124,-3.3124,-3.3124,-3.3124,-3.3124,-3.3124,-3.3124,-3.3061,-3.2591,-3.2717,-3.3124,-3.3124,-3.3124,-3.3124,-3.3124,-3.3124,-3.3124,-3.3124,-3.3038,-3.2995,-3.2952,-3.2649,-3.2363,-3.2085,-3.1471,-3.0917,-3.0742,-3.0362,-2.9929,-2.94,-2.8979,-2.8667,-2.8534,-2.851,-2.851,-2.851,-2.851,-2.851,-2.851,-2.851,-2.851,-2.851,-2.851,-2.851,-2.851,-2.851,-2.851,-2.851,-2.851,-2.851,-2.851,-2.851,-2.8179,-2.7551,-2.8179,-2.8179,-2.751,-2.7307,-2.7185,-2.7196,-2.6665,-2.6595,-3.7111,-3.7225,-3.7043,-3.7037,-3.6989,-3.6845,-3.615,-3.5768,-3.5433,-3.5194,-3.4705,-3.4437,-3.4675,-3.4731,-3.4931,-3.542,-3.5805,-3.6094,-3.6367,-3.6405,-3.6292,-3.5943,-3.6169,-3.6292,-3.5931,-3.542,-3.5006,-3.4705,-3.4211,-3.3796,-3.3558,-3.3244,-3.3124,-3.3124,-3.3124,-3.3124,-3.3124,-3.3124,-3.3124,-3.3124,-3.3124,-3.3124,-3.3124,-3.3124,-3.3124,-3.3124,-3.3124,-3.3124,-3.3124,-3.3124,-3.3124,-3.3124,-3.3124,-3.3124,-3.3124,-3.3124,-3.3124,-3.3031,-3.2704,-3.2805,-3.3074,-3.278,-3.2867,-3.3124,-3.3124,-3.3124,-3.3124,-3.3124,-3.3025,-3.2939,-3.2939,-3.2605,-3.2213,-3.2213,-3.1707,-3.1259,-3.1259,-3.1031,-3.0555,-2.9797,-2.9027,-2.851,-2.851,-2.851,-2.851,-2.851,-2.851,-2.851,-2.851,-2.851,-2.851,-2.851,-2.851,-2.851,-2.851,-2.851,-2.851,-2.851,-2.851,-2.851,-2.851,-2.851,-2.8259,-2.7765,-2.8259,-2.8378,-2.8134,-2.787,-2.7999,-2.8474,-2.8022,-2.7958,-3.8633,-3.8727,-3.8507,-3.8105,-3.7834,-3.7345,-3.5999,-3.5475,-3.5144,-3.4668,-3.4173,-3.3935,-3.4412,-3.4173,-3.4236,-3.5219,-3.5445,-3.5683,-3.6329,-3.6405,-3.6405,-3.6405,-3.6405,-3.6405,-3.6405,-3.5366,-3.468,-3.468,-3.4148,-3.3583,-3.3106,-3.3124,-3.3124,-3.3124,-3.3124,-3.3124,-3.3124,-3.3124,-3.3124,-3.3124,-3.3124,-3.3124,-3.3124,-3.3124,-3.3124,-3.3124,-3.3124,-3.3124,-3.3124,-3.3124,-3.3124,-3.3124,-3.3124,-3.3124,-3.3124,-3.3124,-3.3124,-3.3111,-3.2993,-3.3018,-3.298,-3.2403,-3.2604,-3.3111,-3.298,-3.3061,-3.3124,-3.3124,-3.2877,-3.2667,-3.2742,-3.2358,-3.1996,-3.2057,-3.1893,-3.1705,-3.1717,-3.1657,-3.1332,-3.0374,-2.94,-2.8727,-2.8727,-2.8655,-2.8619,-2.8619,-2.8558,-2.851,-2.851,-2.851,-2.851,-2.851,-2.851,-2.851,-2.851,-2.851,-2.851,-2.851,-2.851,-2.851,-2.851,-2.851,-2.8546,-2.8607,-2.8619,-2.8871,-2.94,-2.8943,-2.9184,-3.0074,-2.9689,-2.9557,-3.9717,-3.9772,-3.962,-3.9105,-3.806,-3.7077,-3.6805,-3.5398,-3.4161,-3.406,-3.3608,-3.3257,-3.3345,-3.3658,-3.411,-3.4718,-3.5207,-3.5683,-3.6329,-3.6405,-3.6405,-3.6405,-3.6405,-3.6405,-3.6405,-3.5366,-3.468,-3.468,-3.3796,-3.3224,-3.3081,-3.3124,-3.3124,-3.3124,-3.3124,-3.3124,-3.3124,-3.3124,-3.3124,-3.3124,-3.3124,-3.3124,-3.3124,-3.3124,-3.3124,-3.3124,-3.3124,-3.3124,-3.3124,-3.3124,-3.3124,-3.3124,-3.3124,-3.3124,-3.3124,-3.3124,-3.3124,-3.3048,-3.2528,-3.2679,-3.298,-3.2403,-3.2604,-3.2993,-3.2503,-3.2692,-3.3124,-3.3124,-3.2687,-3.2381,-3.2912,-3.2473,-3.1994,-3.2277,-3.2125,-3.1893,-3.1761,-3.1356,-3.0995,-3.0814,-3.0242,-2.9809,-2.9809,-2.9448,-2.916,-2.916,-2.8787,-2.851,-2.851,-2.851,-2.851,-2.851,-2.851,-2.851,-2.851,-2.851,-2.851,-2.851,-2.851,-2.851,-2.851,-2.851,-2.8715,-2.916,-2.916,-2.9424,-2.9953,-2.9857,-2.9905,-3.0098,-3.0446,-3.0613,-4.0826,-4.1157,-4.1188,-4.0376,-3.9328,-3.819,-3.685,-3.553,-3.4382,-3.3607,-3.3257,-3.3124,-3.3124,-3.3533,-3.3985,-3.4248,-3.4705,-3.5257,-3.5855,-3.5931,-3.6044,-3.6367,-3.6405,-3.6405,-3.6405,-3.5366,-3.468,-3.468,-3.3709,-3.3124,-3.3124,-3.3124,-3.3124,-3.3124,-3.3124,-3.3124,-3.3124,-3.3124,-3.3124,-3.3124,-3.3124,-3.3124,-3.3124,-3.3124,-3.3124,-3.3124,-3.3124,-3.3124,-3.3124,-3.3124,-3.3124,-3.3124,-3.3124,-3.3124,-3.3124,-3.3124,-3.3124,-3.3074,-3.2754,-3.2842,-3.293,-3.2064,-3.2164,-3.2579,-3.2303,-3.2202,-3.2202,-3.2202,-3.1918,-3.176,-3.2436,-3.2102,-3.1712,-3.2383,-3.2257,-3.1937,-3.1749,-3.1296,-3.0922,-3.0922,-3.0446,-3.0086,-3.0086,-2.9881,-2.9713,-2.9713,-2.9496,-2.9328,-2.9328,-2.9328,-2.9124,-2.857,-2.851,-2.851,-2.851,-2.8763,-2.8919,-2.8919,-2.9184,-2.9328,-2.9328,-2.9328,-2.9448,-2.9701,-2.9713,-2.9965,-3.0494,-3.0218,-3.0374,-3.0946,-3.0922,-3.1067,-4.1878,-4.237,-4.2552,-4.159,-4.0572,-3.9311,-3.7216,-3.6021,-3.4936,-3.3658,-3.3368,-3.3326,-3.3111,-3.3432,-3.3759,-3.3884,-3.4361,-3.4868,-3.542,-3.5596,-3.5881,-3.6355,-3.6405,-3.6367,-3.6194,-3.529,-3.4675,-3.4562,-3.3633,-3.3124,-3.3124,-3.3124,-3.3124,-3.3124,-3.3124,-3.3124,-3.3124,-3.3124,-3.3124,-3.3124,-3.3124,-3.3124,-3.3124,-3.3124,-3.3124,-3.3124,-3.3124,-3.3124,-3.3124,-3.3124,-3.3124,-3.3124,-3.3124,-3.3124,-3.3124,-3.3124,-3.3124,-3.3124,-3.3124,-3.3124,-3.2948,-3.1888,-3.1863,-3.2177,-3.1938,-3.165,-3.1386,-3.1386,-3.1188,-3.1157,-3.1859,-3.1546,-3.1308,-3.2302,-3.2203,-3.1879,-3.1869,-3.1467,-3.1134,-3.1134,-3.0754,-3.0422,-3.0422,-3.0338,-3.0254,-3.0254,-3.0158,-3.0086,-3.0086,-3.0086,-2.9773,-2.8931,-2.8847,-2.8799,-2.8691,-2.916,-2.946,-2.946,-2.9857,-3.0086,-3.0086,-3.0086,-3.0146,-3.0254,-3.0254,-3.0561,-3.1091,-3.0627,-3.0898,-3.1705,-3.1284,-3.1308,-4.2768,-4.2951,-4.2915,-4.2607,-4.0914,-3.9199,-3.898,-3.7178,-3.5332,-3.4481,-3.4272,-3.4021,-3.3253,-3.3162,-3.3319,-3.3822,-3.4361,-3.4868,-3.542,-3.5968,-3.6355,-3.6405,-3.6405,-3.6157,-3.5621,-3.5031,-3.4512,-3.401,-3.342,-3.3124,-3.3124,-3.3124,-3.3124,-3.3124,-3.3124,-3.3124,-3.3124,-3.3124,-3.3124,-3.3124,-3.3124,-3.3124,-3.3124,-3.3124,-3.3124,-3.3124,-3.3124,-3.3124,-3.3124,-3.3124,-3.3124,-3.3124,-3.3124,-3.3124,-3.3124,-3.3124,-3.3124,-3.3124,-3.3124,-3.3124,-3.2968,-3.234,-3.2177,-3.2026,-3.106,-3.1047,-3.1386,-3.1386,-3.106,-3.0768,-3.1336,-3.1082,-3.086,-3.1771,-3.1753,-3.1675,-3.2234,-3.2133,-3.1921,-3.1921,-3.1697,-3.156,-3.156,-3.1163,-3.085,-3.085,-3.0398,-3.0086,-3.0086,-3.0086,-3.005,-2.9953,-2.9941,-2.9749,-2.9268,-2.9713,-3.0013,-3.0013,-3.0062,-3.0086,-3.0086,-3.0086,-3.0314,-3.0838,-3.085,-3.1103,-3.1633,-3.1585,-3.1609,-3.1705,-3.1657,-3.1657,-4.2927,-4.317,-4.3115,-4.2915,-4.1607,-4.0143,-3.9384,-3.7833,-3.6292,-3.5318,-3.4744,-3.4272,-3.3949,-3.3441,-3.3156,-3.337,-3.3583,-3.3922,-3.4474,-3.4738,-3.5127,-3.5793,-3.5868,-3.578,-3.552,-3.4994,-3.4349,-3.347,-3.3206,-3.3124,-3.3124,-3.3124,-3.3124,-3.3124,-3.3124,-3.3124,-3.3124,-3.3124,-3.3124,-3.3124,-3.3124,-3.3124,-3.3124,-3.3124,-3.3124,-3.3124,-3.3124,-3.3124,-3.3124,-3.3124,-3.3124,-3.3124,-3.3124,-3.3124,-3.3124,-3.3124,-3.3124,-3.3124,-3.3124,-3.2855,-3.2466,-3.1901,-3.1499,-3.1173,-3.0746,-3.0532,-3.0432,-3.0432,-3.0281,-3.0244,-3.0783,-3.0997,-3.1117,-3.117,-3.1127,-3.1104,-3.1198,-3.1277,-3.1322,-3.1322,-3.1532,-3.1705,-3.1705,-3.1536,-3.1392,-3.1392,-3.1211,-3.1079,-3.1079,-3.1079,-3.0958,-3.0603,-3.0278,-3.0001,-2.9785,-3.0254,-3.0555,-3.0555,-3.0898,-3.1079,-3.1079,-3.1079,-3.1175,-3.1392,-3.1392,-3.15,-3.1705,-3.1705,-3.1705,-3.1705,-3.1705,-3.1705,-4.2791,-4.314,-4.325,-4.3115,-4.2084,-4.0849,-3.9892,-3.8609,-3.7295,-3.6227,-3.5318,-3.4662,-3.4426,-3.3696,-3.3124,0.0,-3.3219,-3.3458,-3.3847,-3.4035,-3.4437,-3.5157,-3.5257,-3.5194,-3.5031,-3.4562,-3.3909,-3.3174,-3.3124,-3.3124,-3.3124,-3.3124,-3.3124,-3.3124,-3.3124,-3.3124,-3.3124,-3.3124,-3.3124,-3.3124,-3.3124,-3.3124,-3.3124,-3.3124,-3.3124,-3.3124,-3.3124,-3.3124,-3.3124,-3.3124,-3.3124,-3.3124,-3.3124,-3.3124,-3.3124,-3.3124,-3.3124,-3.3056,-3.288,-3.2554,-3.2102,-3.1386,-3.0922,-3.0583,-3.0419,-3.0093,-2.9792,-2.9792,-2.9792,-2.988,-3.0269,-3.0645,-3.0879,-3.0634,-3.0614,-3.0622,-3.0521,-3.0628,-3.0803,-3.096,-3.1255,-3.1524,-3.1681,-3.1705,-3.1705,-3.1705,-3.1705,-3.1705,-3.1705,-3.1705,-3.1573,-3.1199,-3.0814,-3.0494,-3.0338,-3.085,-3.1151,-3.1151,-3.15,-3.1705,-3.1705,-3.1705,-3.1705,-3.1705,-3.1705,-3.1705,-3.1705,-3.1705,-3.1705,-3.1705,-3.1705,-3.1705,-4.241,-4.2851,-4.329,-4.329,-4.2201,-4.1056,-4.0849,-3.9604,-3.8165,-3.7092,-3.6188,-3.5346,-3.4551,-3.3696,-3.3124,-3.3124,-3.3533,0.0,-3.3897,-3.4374,-3.4713,-3.4726,-3.4726,-3.4512,-3.3972,-3.342,-3.3093,-3.3124,-3.3124,-3.3124,-3.3124,-3.3124,-3.3124,-3.3124,-3.3124,-3.3124,-3.3124,-3.3124,-3.3124,-3.3124,-3.3124,-3.3124,-3.3124,-3.3124,-3.3124,-3.3124,-3.3124,-3.3124,-3.3124,-3.3124,-3.3124,-3.3124,-3.3124,-3.3124,-3.3124,-3.3124,-3.3124,-3.2993,-3.2416,-3.2227,-3.2039,-3.0972,-3.058,-3.052,-2.9967,-2.9792,-2.9792,-2.9792,-2.9792,-2.9792,-2.9804,-2.9804,-2.9903,-3.0231,-3.0316,-3.0385,-3.07,-3.0604,-3.0554,-3.1077,-3.1039,-3.1091,-3.1621,-3.1705,-3.1705,-3.1705,-3.1705,-3.1705,-3.1705,-3.1705,-3.1705,-3.1705,-3.1693,-3.1476,-3.0958,-3.1392,-3.1705,-3.1705,-3.1705,-3.1705,-3.1705,-3.1705,-3.1705,-3.1705,-3.1705,-3.1705,-3.1705,-3.1705,-3.1705,-3.1705,-3.1705,-3.1705,-4.1602,-4.1848,-4.1998,-4.1998,-4.1316,-4.0524,-4.0185,-3.9393,-3.8375,-3.7169,-3.6201,-3.5346,-3.4551,-3.3696,-3.3206,-3.3583,-3.3784,-3.3897,-3.3897,-3.4374,-3.468,-3.468,-3.468,-3.4605,-3.4474,-3.3621,-3.3124,-3.3124,-3.3124,-3.3124,-3.3124,-3.3124,-3.3124,-3.3124,-3.3124,-3.3124,-3.3124,-3.3124,-3.3124,-3.3124,-3.3124,-3.3124,-3.3124,-3.3124,-3.3124,-3.3124,-3.3124,-3.3124,-3.3124,-3.3124,-3.3124,-3.3124,-3.3124,-3.3124,-3.3124,-3.3124,-3.3124,-3.2993,-3.2416,-3.1964,-3.1537,-3.0846,-3.0357,-3.0018,-2.9842,-2.9792,-2.9792,-2.9792,-2.9792,-2.9792,-2.9792,-2.9792,-2.9829,-2.9927,-2.9717,-2.9517,-2.961,-2.9646,-2.9704,-2.9885,-3.017,-3.0506,-3.1079,-3.1163,-3.1296,-3.1657,-3.1705,-3.1705,-3.1705,-3.1705,-3.1705,-3.1705,-3.1705,-3.1633,-3.1476,-3.1609,-3.1705,-3.1705,-3.1705,-3.1705,-3.1705,-3.1705,-3.1705,-3.1705,-3.1705,-3.1705,-3.1705,-3.1705,-3.1705,-3.1717,-3.2058,-3.2238,-4.0831,-4.119,-4.1422,-4.1422,-4.0891,-4.0286,-3.9874,-3.9268,-3.8435,-3.7155,-3.6201,-3.5346,-3.4551,-3.3696,-3.3194,-3.3533,-3.3583,-3.3583,-3.3583,-3.406,-3.4487,-3.47,-3.4537,-3.4412,-3.4412,-3.3608,-3.3124,-3.3124,-3.3124,-3.3124,-3.3124,-3.3124,-3.3124,-3.3124,-3.3124,-3.3124,-3.3124,-3.3124,-3.3124,-3.3124,-3.3124,-3.3124,-3.3124,-3.3124,-3.3124,-3.3124,-3.3124,-3.3124,0.0,-3.3124,-3.3124,-3.3124,-3.3124,-3.3124,-3.3124,-3.3124,-3.3124,-3.2968,-3.2177,-3.1675,-3.1273,-3.0545,-3.0218,-3.0143,-3.0331,-3.0256,-3.0105,-3.0105,-3.0244,-3.0394,-3.0394,-3.0244,-3.0066,-3.0015,-2.9605,-2.9197,-2.9131,-2.9123,-2.9173,-2.9366,-2.9598,-2.9965,-3.0494,-3.0621,-3.0802,-3.1332,-3.1404,-3.1476,-3.1681,-3.1705,-3.1705,-3.1705,-3.1705,-3.1789,-3.1961,-3.1837,-3.1705,-3.1705,-3.1705,-3.1705,-3.1705,-3.1705,-3.1705,-3.1705,-3.1705,-3.1705,-3.1705,-3.1922,-3.1985,-3.1985,-3.2539,-3.2803,0.0,-4.0771,-4.125,-4.125,-4.0786,-4.0211,-3.9801,-3.9239,0.0,-3.7078,-3.6148,-3.5346,-3.4468,-3.3654,-3.3093,-3.3174,-3.3174,-3.3174,-3.3174,-3.3608,-3.4173,-3.4763,-3.4349,-3.3997,-3.396,-3.3458,-3.3162,-3.3124,-3.3124,-3.3124,-3.3124,-3.3124,-3.3124,-3.3124,-3.3124,-3.3124,-3.3124,-3.3124,-3.3124,-3.3124,-3.3124,-3.3124,-3.3124,-3.3124,-3.3124,-3.3124,-3.3124,-3.3124,-3.3124,-3.3124,-3.3124,-3.3124,-3.3124,-3.3124,-3.3124,-3.3124,-3.3056,-3.2898,-3.1763,-3.1361,-3.1173,-3.0181,-3.0218,-3.0758,-3.1248,-3.1047,-3.067,-3.067,-3.1022,-3.1386,-3.1386,-3.1035,-3.0618,-3.0368,-2.9891,-2.9452,-2.9231,-2.9047,-2.9111,-2.9646,-2.9605,-2.9634,-3.02,-3.0296,-3.0477,-3.1007,-3.1091,-3.1271,-3.1765,-3.1825,-3.1825,-3.1825,-3.1825,-3.2042,-3.2515,-3.2054,-3.1741,-3.1813,-3.1789,-3.1789,-3.1825,-3.1825,-3.1825,-3.1825,-3.1825,-3.1825,-3.1825,-3.2298,-3.2563,-3.2575,-3.3092,-3.3344,-3.9604,0.0,-3.9888,-3.9888,-3.9768,-3.954,0.0,-3.89,-3.8234,-3.6306,-3.5735,-3.5142,-3.3683,-3.324,-3.3219,-3.3633,-3.3709,-3.3709,-3.3709,-3.4173,-3.4889,-3.5855,-3.5491,-3.4944,-3.4562,-3.4035,-3.3533,-3.3106,-3.3124,-3.3124,-3.3124,-3.3124,-3.3124,-3.3124,-3.3124,-3.3124,-3.3124,-3.3124,-3.3124,-3.3124,-3.3124,-3.3124,-3.3124,-3.3124,-3.3124,-3.3124,-3.3124,-3.3124,-3.3124,-3.3124,-3.3124,-3.3124,-3.3124,-3.3124,-3.3124,-3.3124,-3.2805,-3.2315,-3.1637,-3.1135,-3.0758,-3.0507,-3.0771,-3.1235,-3.1348,-3.1298,-3.121,-3.121,-3.1298,-3.1386,-3.1386,-3.1298,-3.111,-3.0628,-3.062,-3.0586,-3.0124,-3.0186,-3.0478,-3.1018,-3.1075,-3.1296,-3.203,-3.2188,-3.2293,-3.268,-3.2719,-3.2767,-3.2899,-3.2911,-3.2911,-3.2911,-3.2911,-3.2959,-3.3092,-3.2214,-3.2066,-3.2851,-3.2527,-3.2491,-3.2899,-3.2911,-3.2911,-3.2911,-3.2911,-3.2911,-3.2911,-3.3044,-3.3104,-3.3116,-3.3621,-3.3861,-3.9388,-3.9388,-3.9388,-3.9388,-3.9388,-3.9301,-3.8907,-3.8509,-3.7715,-3.5975,-3.5318,-3.4649,-3.3356,-3.3124,-3.3224,-3.347,-3.352,-3.3696,-3.4211,-3.4537,-3.5127,-3.6279,-3.5881,-3.5382,-3.5082,-3.4374,-3.3771,-3.3483,-3.3262,-3.3124,-3.3124,-3.3124,-3.3124,-3.3124,-3.3124,-3.3124,-3.3124,-3.3124,-3.3124,-3.3124,-3.3124,-3.3124,-3.3124,-3.3124,-3.3124,-3.3124,-3.3124,-3.3124,-3.3124,-3.3124,-3.3124,-3.3124,-3.3124,-3.3124,-3.3124,-3.3124,-3.2717,-3.2127,-3.1587,-3.1047,-3.0696,-3.1185,-3.1537,-3.1863,-3.239,-3.2365,-3.2102,-3.1838,-3.1964,-3.2164,-3.2164,-3.1964,-3.17,-3.1411,-3.148,-3.1472,-3.091,-3.127,-3.1727,-3.1764,-3.1877,-3.2093,-3.2538,-3.256,-3.2621,-3.2986,-3.3003,-3.3008,-3.326,-3.3284,-3.3284,-3.3284,-3.3284,-3.338,-3.3609,-3.2887,-3.2659,-3.3248,-3.302,-3.2996,-3.3272,-3.3284,-3.3284,-3.3284,-3.3284,-3.3284,-3.3284,-3.3525,-3.3633,-3.3645,-3.4114,-3.4354,-3.9508,-3.9574,-3.9544,-3.9454,-3.9388,-3.9301,-3.8907,-3.8144,-3.7165,-3.5855,-3.4965,-3.4147,-3.324,-3.3187,-3.3206,-3.3206,-3.3269,-3.3684,-3.4655,-3.4806,-3.5228,-3.6279,-3.5956,-3.5596,-3.5508,-3.47,-3.4085,-3.3909,-3.347,-3.3212,-3.3081,-3.3124,-3.3124,-3.3124,-3.3124,-3.3124,-3.3124,-3.3124,-3.3124,-3.3124,-3.3124,-3.3124,-3.3124,-3.3124,-3.3124,-3.3124,-3.3124,-3.3124,-3.3124,-3.3124,-3.3124,-3.3124,-3.3124,-3.3124,-3.3124,-3.3124,-3.2717,-3.2152,-3.1675,-3.1336,-3.126,-3.2177,-3.2528,-3.278,-3.3734,-3.3696,-3.3232,-3.2742,-3.2893,-3.3206,-3.3206,-3.2905,-3.2579,-3.2491,-3.2528,-3.2441,-3.1888,-3.2476,-3.2972,-3.2518,-3.2674,-3.2876,-3.2919,-3.2811,-3.2804,-3.3186,-3.3101,-3.3112,-3.3558,-3.3571,-3.3571,-3.3525,-3.3571,-3.374,-3.4078,-3.3812,-3.3571,-3.3525,-3.3452,-3.344,-3.3525,-3.3525,-3.3525,-3.3525,-3.3525,-3.3525,-3.3525,-3.391,-3.4114,-3.4126,-3.457,-3.4775,-4.0098,-4.0247,-4.0113,-3.9559,-3.9388,-3.9301,-3.8907,-3.8144,-3.7165,-3.5855,-3.4965,-3.4147,-3.324,-3.3458,-3.3771,-3.3771,-3.4161,-3.4688,-3.5282,-3.537,-3.5608,-3.6329,-3.6329,-3.6056,-3.5545,-3.5345,-3.4856,-3.3972,-3.3822,-3.3571,-3.3106,-3.3124,-3.3124,-3.3124,-3.3124,-3.3124,-3.3124,-3.3124,-3.3124,-3.3124,-3.3124,-3.3124,-3.3124,-3.3124,-3.3124,-3.3124,-3.3124,-3.3124,-3.3124,-3.3124,-3.3124,-3.3124,-3.3124,-3.3124,-3.3124,-3.3124,-3.2717,-3.2202,-3.2114,-3.2654,-3.342,-3.3596,-3.396,-3.4374,-3.4537,-3.4537,-3.4449,-3.4361,-3.406,-3.3771,-3.3771,-3.406,-3.4223,-3.3759,-3.3997,-3.4186,-3.3633,-3.3978,-3.4497,-3.4873,-3.5011,-3.5132,-3.5419,-3.5412,-3.5342,-3.518,-3.5144,-3.5086,-3.492,-3.4884,-3.4836,-3.4583,-3.4788,-3.4872,-3.4703,-3.4836,-3.4788,-3.4595,-3.4126,-3.4078,-3.4571,-3.4595,-3.4595,-3.4595,-3.4595,-3.4595,-3.4595,-3.4619,-3.4667,-3.4667,-3.4739,-3.4775,-3.9783,-3.9873,-3.9762,-3.9339,-3.9533,-3.9446,-3.8231,-3.7281,-3.6346,-3.5156,-3.4301,-3.3569,-3.3154,-3.3533,-3.3997,-3.4299,-3.4562,-3.4868,-3.542,-3.5495,-3.5696,-3.6342,-3.6405,-3.6304,-3.6006,-3.5671,-3.5169,-3.4399,-3.406,-3.3658,-3.3106,-3.3124,-3.3124,-3.3124,-3.3124,-3.3124,-3.3124,-3.3124,-3.3124,-3.3124,-3.3124,-3.3124,-3.3124,-3.3124,-3.3124,-3.3124,-3.3124,-3.3124,-3.3124,-3.3124,-3.3124,-3.3124,-3.3124,-3.3124,-3.3043,-3.2717,-3.2641,-3.2641,-3.2328,-3.2955,-3.3947,-3.4248,-3.4512,-3.4731,-3.5031,-3.4919,-3.468,-3.468,-3.4537,-3.4349,-3.4349,-3.4537,-3.4663,-3.4399,-3.4718,-3.4969,-3.4462,-3.5014,-3.5592,-3.5508,-3.578,-3.6022,-3.6191,-3.6098,-3.5968,-3.5812,-3.5668,-3.5572,-3.5428,-3.5271,-3.5126,-3.503,-3.4981,-3.492,-3.4823,-3.4932,-3.492,-3.4823,-3.4546,-3.4522,-3.4775,-3.4775,-3.4884,-3.503,-3.503,-3.503,-3.503,-3.503,-3.492,-3.4775,-3.4775,-3.4775,-3.9379,-3.9388,-3.9307,-3.8948,-3.9128,-3.9052,-3.7705,-3.6358,-3.5251,-3.4682,-3.3785,-3.3124,-3.3124,-3.3633,-3.4274,-3.4781,-3.5027,-3.5253,-3.5633,-3.5683,-3.5893,-3.6367,-3.6405,-3.6405,-3.6405,-3.5981,-3.5454,-3.4731,-3.4324,-3.3796,-3.3162,-3.3124,-3.3124,-3.3124,-3.3124,-3.3124,-3.3124,-3.3124,-3.3124,-3.3124,-3.3124,-3.3124,-3.3124,-3.3124,-3.3124,-3.3124,-3.3124,-3.3124,-3.3124,-3.3124,-3.3124,-3.3124,-3.3124,-3.3124,-3.3043,-3.2717,-3.2968,-3.342,-3.3106,-3.3646,-3.4537,-3.4964,-3.5102,-3.5177,-3.5617,-3.5441,-3.5102,-3.5102,-3.5102,-3.5077,-3.4906,-3.5014,-3.5102,-3.5102,-3.5429,-3.5617,-3.5203,-3.5768,-3.6279,-3.5818,-3.6069,-3.6405,-3.6405,-3.6228,-3.6098,-3.6098,-3.5908,-3.5752,-3.5716,-3.5512,-3.5368,-3.532,-3.5175,-3.5078,-3.4981,-3.492,-3.4872,-3.4872,-3.4872,-3.4872,-3.4872,-3.4823,-3.4884,-3.5126,-3.5175,-3.5175,-3.5126,-3.5223,-3.5126,-3.4775,-3.4872,-3.4872,-3.9245,-3.9388,-3.9203,-3.8398,-3.7696,-3.7376,-3.7919,-3.5908,-3.4176,-3.5005,-3.4041,-3.3124,-3.3124,-3.3947,-3.4806,-3.5357,-3.5918,-3.6304,-3.6342,-3.6355,-3.6367,-3.6405,-3.6405,-3.6405,-3.6405,-3.6367,-3.5855,-3.4801,-3.4643,-3.4198,-3.3174,-3.3124,-3.3124,-3.3124,-3.3124,-3.3124,-3.3124,-3.3124,-3.3124,-3.3124,-3.3124,-3.3124,-3.3124,-3.3124,-3.3124,-3.3124,-3.3124,-3.3124,-3.3124,-3.3124,-3.3124,-3.3124,-3.3124,-3.3124,-3.3174,-3.3608,-3.4123,-3.4675,-3.5094,-3.5692,-3.6241,-3.6279,-3.6292,-3.6292,-3.6329,-3.6317,-3.6292,-3.6292,-3.6292,-3.6166,-3.5571,-3.5868,-3.6292,-3.6292,-3.6317,-3.6329,-3.6304,-3.6355,-3.6405,-3.6355,-3.638,-3.6405,-3.6405,-3.6358,-3.6358,-3.6358,-3.6358,-3.6275,-3.6003,-3.5955,-3.586,-3.562,-3.5764,-3.5812,-3.5572,-3.532,-3.5175,-3.5175,-3.5175,-3.5175,-3.5175,-3.492,-3.4823,-3.4835,-3.5078,-3.5078,-3.4835,-3.532,-3.532,-3.4835,-3.5078,-3.503,-3.8706,-3.8781,-3.8686,-3.8219,-3.7054,-3.6115,-3.6577,-3.5642,-3.4734,-3.4873,-3.4224,-3.3583,-3.3583,-3.4211,-3.4856,-3.5408,-3.6006,-3.6405,-3.6405,-3.6405,-3.6405,-3.6405,-3.6405,-3.6405,-3.6405,-3.6405,-3.6044,-3.5245,-3.4868,-3.4399,-3.3633,-3.3269,-3.3124,-3.3124,-3.3124,-3.3368,-3.3907,-3.3907,-3.4176,-3.4664,-3.4134,-3.4176,-3.4664,-3.4664,-3.44,-3.3907,-3.3907,-3.3611,-3.3124,-3.3124,-3.3124,-3.3124,-3.3124,-3.3282,-3.3608,-3.3822,-3.4462,-3.5219,-3.542,-3.5906,-3.6405,-3.6405,-3.6405,-3.6405,-3.6405,-3.6405,-3.6405,-3.6405,-3.6405,-3.6367,-3.6107,-3.6207,-3.6405,-3.6405,-3.6405,-3.6405,-3.6405,-3.6405,-3.6405,-3.6405,-3.6405,-3.6405,-3.6405,-3.6405,-3.6405,-3.6405,-3.6405,-3.6358,-3.6275,-3.6098,-3.5968,-3.5872,-3.5764,-3.5716,-3.562,-3.5524,-3.5524,-3.5668,-3.5512,-3.5368,-3.5223,-3.5126,-3.5078,-3.5078,-3.5126,-3.5223,-3.5271,-3.5512,-3.5524,-3.5271,-3.5223,-3.5126,-3.8138,-3.8078,-3.8043,-3.7918,-3.6624,-3.5524,-3.6031,-3.5307,-3.4632,-3.4879,-3.4399,-3.3897,-3.3897,-3.4349,-3.4806,-3.5182,-3.5893,-3.6405,-3.6405,-3.6405,-3.6405,-3.6405,-3.6405,-3.6405,-3.6405,-3.6405,-3.6132,-3.5545,-3.4994,-3.4487,-3.3935,-3.337,-3.324,-3.3484,-3.3484,-3.3937,-3.4786,-3.4786,-3.521,-3.5989,-3.5454,-3.5332,-3.5615,-3.5615,-3.5156,-3.4397,-3.4397,-3.4063,-3.3484,-3.3484,-3.3484,-3.3484,-3.3484,-3.3667,-3.3966,-3.4426,-3.4996,-3.5567,-3.6054,-3.6311,-3.6405,-3.6405,-3.6405,-3.6405,-3.6405,-3.6405,-3.6405,-3.6405,-3.6405,-3.6405,-3.6405,-3.6405,-3.6405,-3.6405,-3.6405,-3.6405,-3.6405,-3.6405,-3.6405,-3.6405,-3.6405,-3.6405,-3.6405,-3.6405,-3.6405,-3.6405,-3.6405,-3.6405,-3.6405,-3.6228,-3.6146,-3.6146,-3.5908,-3.5716,-3.5716,-3.5716,-3.5812,-3.5968,-3.5908,-3.5704,-3.5464,-3.5368,-3.5271,-3.5223,-3.538,-3.5476,-3.5464,-3.5704,-3.5764,-3.562,-3.5524,-3.5416,-3.7584,-3.7404,-3.7404,-3.7404,-3.633,-3.5609,-3.6686,-3.4931,-3.3558,-3.5157,-3.4675,-3.3909,-3.3897,-3.4349,-3.4726,-3.468,-3.5642,-3.6405,-3.6405,-3.6405,-3.6405,-3.6405,-3.6405,-3.6405,-3.6405,-3.6405,-3.6132,-3.5545,-3.4994,-3.4487,-3.3935,-3.3382,-3.3484,-3.4356,-3.4397,-3.4786,-3.5615,-3.5615,-3.6068,-3.6897,-3.6897,-3.6478,-3.5615,-3.5615,-3.5156,-3.4439,-3.4439,-3.4397,-3.4397,-3.4397,-3.4397,-3.4397,-3.4397,-3.4212,-3.4092,-3.5556,-3.5884,-3.5722,-3.7292,-3.7176,-3.6405,-3.6405,-3.6452,-3.6405,-3.6405,-3.6405,-3.6405,-3.6405,-3.6405,-3.6405,-3.6405,-3.6405,-3.6405,-3.6405,-3.6405,-3.6405,-3.6405,-3.6405,-3.6405,-3.6405,-3.6405,-3.6405,-3.6405,-3.6405,-3.6405,-3.6405,-3.6405,-3.6405,-3.6405,-3.6405,-3.6405,-3.6405,-3.6146,-3.6015,-3.6015,-3.6015,-3.6015,-3.6015,-3.6228,-3.6275,-3.6015,-3.5716,-3.5476,-3.5223,-3.5716,-3.5716,-3.5223,-3.6026,-3.6121,-3.562,-3.5872,-3.5872,-3.6926,-3.7075,-3.7404,-3.7404,-3.6991,-3.6739,-3.7442,-3.5838,-3.4487,-3.532,-3.5245,-3.4768,-3.4035,-3.4663,-3.5132,-3.4743,-3.5642,-3.6405,-3.6405,-3.6405,-3.6405,-3.6405,-3.6405,-3.6405,-3.6405,-3.6405,-3.6342,-3.6132,-3.5253,-3.465,-3.4487,-3.3583,-3.3484,-3.4356,-3.4397,-3.5073,-3.6478,-3.6517,-3.6961,-3.781,-3.781,-3.7682,-3.74,-3.6805,-3.6373,-3.6136,-3.5521,-3.5237,-3.5237,-3.5237,-3.5237,-3.5277,-3.5748,-3.6117,-3.6478,-3.7367,-3.7484,-3.7266,-3.8397,-3.8147,-3.7487,-3.8147,-3.836,-3.8225,-3.7579,-3.7361,-3.7268,-3.6593,-3.6862,-3.7361,-3.7361,-3.7361,-3.7222,-3.6546,-3.6405,-3.6405,-3.6405,-3.6405,-3.6405,-3.6405,-3.6405,-3.6405,-3.6405,-3.6405,-3.6405,-3.6405,-3.6405,-3.6405,-3.6405,-3.6405,-3.6405,-3.6405,-3.6323,-3.6275,-3.6275,-3.6098,-3.6098,-3.6275,-3.6193,-3.6098,-3.6015,-3.592,-3.5764,-3.5476,-3.562,-3.5716,-3.5764,-3.6003,-3.6146,-3.6181,-3.6051,-3.5968,-3.7345,-3.7509,-3.7928,-3.8467,-3.7742,-3.6893,-3.7088,-3.6192,-3.5466,-3.5793,-3.5658,-3.5295,-3.4675,-3.5056,-3.532,-3.4768,-3.5466,-3.5956,-3.5742,-3.5705,-3.5793,-3.6006,-3.6031,-3.6119,-3.6392,-3.6405,-3.6405,-3.6405,-3.5341,-3.468,-3.468,-3.3671,-3.3484,-3.4356,-3.4703,-3.5534,-3.6897,-3.7246,-3.7682,-3.8202,-3.8202,-3.8202,-3.8165,-3.7644,-3.7208,-3.6858,-3.636,-3.6108,-3.6148,-3.6503,-3.6425,-3.6177,-3.6836,-3.7236,-3.7557,-3.8582,-3.8708,-3.8509,-3.9417,-3.9166,-3.8464,-3.9033,-3.8944,-3.8554,-3.7978,-3.7808,-3.7671,-3.7142,-3.7625,-3.8283,-3.79,-3.7808,-3.7671,-3.7083,-3.6675,-3.6405,-3.6405,-3.6405,-3.6405,-3.6405,-3.6405,-3.6405,-3.6405,-3.6405,-3.6405,-3.6405,-3.6405,-3.6405,-3.6405,-3.6405,-3.6405,-3.6405,-3.6405,-3.6405,-3.6405,-3.6228,-3.6228,-3.6405,-3.6228,-3.6146,-3.6146,-3.6146,-3.6051,-3.5764,-3.5847,-3.5943,-3.6015,-3.6098,-3.6228,-3.6405,-3.6228,-3.6146,-3.8227,-3.8347,-3.8781,-4.0008,-3.8496,-3.662,-3.6199,-3.6273,-3.6405,-3.6405,-3.5968,-3.5558,-3.5508,-3.5533,-3.537,-3.4781,-3.5144,-3.5307,-3.4801,-3.468,-3.4868,-3.537,-3.542,-3.5667,-3.6204,-3.6267,-3.6267,-3.6267,-3.524,-3.465,-3.465,-3.3733,-3.3611,-3.4468,-3.5278,-3.6148,-3.7014,-3.781,-3.8202,-3.8202,-3.8202,-3.8202,-3.8202,-3.8127,-3.7644,-3.6897,-3.6975,-3.7014,-3.7092,-3.7886,-3.772,-3.7084,-3.7839,-3.7906,-3.7852,-3.9438,-3.9714,-3.9461,-4.0389,-4.0116,-3.9329,-3.9431,-3.8912,-3.816,-3.8069,-3.8069,-3.8024,-3.7946,-3.8599,-3.9121,-3.816,-3.7978,-3.8024,-3.7946,-3.7129,-3.6405,-3.6405,-3.6405,-3.6405,-3.6405,-3.6405,-3.6405,-3.6405,-3.6405,-3.6405,-3.6405,-3.6405,-3.6405,-3.6405,-3.6405,-3.6405,-3.6405,-3.6405,-3.6405,-3.6405,-3.6405,-3.6405,-3.6405,-3.6405,-3.6405,-3.6405,-3.6405,-3.6275,-3.6063,-3.6275,-3.6275,-3.6063,-3.6275,-3.6405,-3.6405,-3.6405,-3.6405,-3.703,-3.8018,-3.9275,-3.9559,-3.9014,-3.8262,-3.7738,-3.698,-3.6405,-3.6405,-3.6317,-3.6056,-3.5583,-3.5893,-3.5868,-3.4876,-3.5144,-3.5307,-3.4801,-3.468,-3.4718,-3.4843,-3.4856,-3.4906,-3.5064,-3.5077,-3.5077,-3.5077,-3.4462,-3.4073,-3.4073,-3.411,-3.4496,-3.5318,-3.6162,-3.7053,-3.7924,-3.8127,-3.8202,-3.8202,-3.8202,-3.8202,-3.8165,-3.7491,-3.7092,-3.6936,-3.7606,-3.7924,-3.7924,-3.8127,-3.8089,-3.8039,-3.9164,-3.9564,-3.9702,-4.1097,-4.1056,-4.0432,-4.1437,-4.1128,-4.0432,-4.1226,-4.1339,-4.1015,-4.0216,-3.9986,-3.9855,-3.9121,-3.9549,-4.0073,-3.9166,-3.9461,-3.9812,-3.9077,-3.7612,-3.6405,-3.6405,-3.6405,-3.6405,-3.6405,-3.6405,-3.6405,-3.6405,-3.6405,-3.6405,-3.6405,-3.6405,-3.6405,-3.6405,-3.6405,-3.6405,-3.6405,-3.6405,-3.6405,-3.6405,-3.6405,-3.6405,-3.6405,-3.6405,-3.6405,-3.6405,-3.6405,-3.6358,-3.6323,-3.6358,-3.6358,-3.6323,-3.6358,-3.6405,-3.6405,-3.6405,-3.6405,-3.7404,-3.8616,-3.9928,-4.0125,-4.0161,-3.9856,-3.8582,-3.7723,-3.707,-3.6499,-3.6405,-3.6317,-3.5994,-3.5956,-3.5692,-3.4864,-3.4738,-3.4562,-3.401,-3.3935,-3.4035,-3.4299,-3.4324,-3.4437,-3.47,-3.4919,-3.5069,-3.5069,-3.4613,-3.4299,-3.4299,-3.4358,-3.4592,-3.5006,-3.6255,-3.713,-3.7567,-3.8,-3.8202,-3.8202,-3.8202,-3.8202,-3.8165,-3.772,-3.7529,-3.7567,-3.8,-3.8202,-3.8202,-3.8202,-3.8202,-3.8333,-3.9596,-4.0104,-4.0263,-4.1599,-4.1773,-4.1395,-4.1912,-4.1773,-4.1395,-4.1912,-4.1758,-4.1296,-4.0774,-4.0603,-4.0504,-4.0029,-4.0575,-4.1071,-4.0116,-4.0246,-4.0375,-3.9417,-3.8102,-3.7083,-3.7083,-3.6734,-3.6405,-3.6405,-3.6405,-3.6405,-3.6405,-3.6405,-3.6405,-3.6405,-3.6405,-3.6405,-3.6405,-3.6405,-3.6405,-3.6405,-3.6405,-3.6405,-3.6405,-3.6405,-3.6405,-3.6405,-3.6405,-3.6405,-3.6405,-3.6405,-3.6405,-3.6405,-3.6405,-3.6405,-3.6405,-3.6405,-3.6405,-3.6405,-3.6405,-3.6405,-3.7913,-3.92,-4.0524,-4.11,-4.1401,-4.1155,-3.9448,-3.8693,-3.8017,-3.693,-3.6534,-3.6405,-3.6405,-3.5918,-3.532,-3.4768,-3.4261,-3.3709,-3.3199,-3.3124,-3.3244,-3.3709,-3.3759,-3.3935,-3.4399,-3.4806,-3.5069,-3.5069,-3.4655,-3.4437,-3.4437,-3.4525,-3.4592,-3.4592,-3.6255,-3.713,-3.713,-3.7848,-3.8202,-3.8202,-3.8202,-3.8202,-3.8202,-3.8202,-3.8202,-3.8202,-3.8202,-3.8202,-3.8217,-3.8318,-3.8376,-3.8507,-3.977,-4.0263,-4.0423,-4.1642,-4.2092,-4.2092,-4.2092,-4.2092,-4.2092,-4.2092,-4.1535,-4.0873,-4.0873,-4.0873,-4.0873,-4.0873,-4.1437,-4.1856,-4.0873,-4.0731,-4.0617,-3.9681,-3.8854,-3.8206,-3.7854,-3.7036,-3.6405,-3.6405,-3.6405,-3.6405,-3.6405,-3.6405,-3.6405,-3.6405,-3.6405,-3.6405,-3.6405,-3.6405,-3.6405,-3.6405,-3.6405,-3.6405,-3.6405,-3.6405,-3.6405,-3.6405,-3.6405,-3.6405,-3.6405,-3.6405,-3.6405,-3.6405,-3.6405,-3.6405,-3.6405,-3.6405,-3.6405,-3.6405,-3.6405,-3.6405,-3.6716,-3.8527,-4.0674,-4.1912,-4.1902,-4.1545,-4.1253,-4.0204,-3.9023,-3.8062,-3.7103,-3.6405,-3.6405,-3.5918,-3.532,-3.4768,-3.4261,-3.3709,-3.3199,-3.3124,-3.3149,-3.3224,-3.3224,-3.3219,-3.3294,-3.337,-3.3407,-3.3407,-3.3332,-3.3294,-3.3294,-3.4673,-3.5427,-3.5427,-3.7116,-3.8037,-3.8037,-3.8127,-3.8202,-3.8202,-3.8202,-3.8202,-3.8202,-3.8202,-3.8202,-3.8202,-3.8202,-3.8202,-3.8246,-3.8826,-3.9073,-3.9189,-4.0466,-4.096,-4.1062,-4.1816,-4.2092,-4.2092,-4.2092,-4.2092,-4.2092,-4.2092,-4.2009,-4.1912,-4.1912,-4.1912,-4.1912,-4.1912,-4.2009,-4.1856,-4.0873,-4.1254,-4.1633,-4.066,-4.0332,-3.9768,-3.816,-3.7036,-3.6405,-3.6405,-3.6405,-3.6405,-3.6405,-3.6405,-3.6405,-3.6405,-3.6405,-3.6405,-3.6405,-3.6405,-3.6405,-3.6405,-3.6405,-3.6405,-3.6405,-3.6405,-3.6405,-3.6405,-3.6405,-3.6405,-3.6405,-3.6405,-3.6405,-3.6405,-3.6405,-3.6405,-3.6405,-3.6405,-3.6405,-3.6405,-3.6405,-3.6405,-3.8287,-3.926,-4.0337,-4.2402,-4.2466,-4.1972,-4.1681,-4.1112,-4.0333,-3.9112,-3.8501,-3.7756,-3.6628,-3.5918,-3.532,-3.4768,-3.4261,-3.3709,-3.3199,-3.3124,-3.3124,-3.3124,-3.3124,-3.3124,-3.3124,-3.3357,-3.3533,-3.3533,-3.3533,-3.3533,-3.3533,-3.4835,-3.5615,-3.5615,-3.7309,-3.8202,-3.8202,-3.8202,-3.8202,-3.8202,-3.8202,-3.8202,-3.8202,-3.8202,-3.8202,-3.8202,-3.8202,-3.8405,-3.8783,-3.9088,-3.9407,-3.9799,-4.0728,-4.1091,-4.1178,-4.1845,-4.2092,-4.2092,-4.2092,-4.2092,-4.2092,-4.2092,-4.2092,-4.2092,-4.2092,-4.2092,-4.2092,-4.2092,-4.2092,-4.2009,-4.1577,-4.1773,-4.2009,-4.1535,-4.1015,-4.0375,-3.9549,-3.8238,-3.7049,-3.6499,-3.6405,-3.6405,-3.6405,-3.6405,-3.6405,-3.6405,-3.6405,-3.6405,-3.6405,-3.6405,-3.6405,-3.6405,-3.6405,-3.6405,-3.6405,-3.6405,-3.6405,-3.6405,-3.6405,-3.6405,-3.6405,-3.6405,-3.6405,-3.6405,-3.6405,-3.6405,-3.6405,-3.6405,-3.6405,-3.6405,-3.6405,-3.6405,-3.8826,-3.929,-3.9709,-4.1974,-4.2476,-4.2365,-4.2103,-4.1988,-4.1587,-4.029,-3.9944,-3.9258,-3.7196,-3.6311,-3.5628,-3.4813,-3.4261,-3.3709,-3.3199,-3.3124,-3.3124,-3.3124,-3.3124,-3.3124,-3.3124,-3.3445,-3.3696,-3.3696,-3.3696,-3.3696,-3.3696,-3.4901,-3.5615,-3.5615,-3.7309,-3.8202,-3.8202,-3.8202,-3.8202,-3.8202,-3.8202,-3.8202,-3.8217,-3.8376,-3.8449,-3.8449,-3.8449,-3.8826,-3.945,-3.961,-3.9944,-4.0423,-4.1091,-4.1352,-4.141,-4.1918,-4.2092,-4.2092,-4.2092,-4.2092,-4.2092,-4.2092,-4.2092,-4.2092,-4.2092,-4.2092,-4.2092,-4.2092,-4.2092,-4.2092,-4.2092,-4.2092,-4.2092,-4.2092,-4.1535,-4.0845,-4.0346,-3.9166,-3.7887,-3.6956,-3.6769,-3.6675,-3.6452,-3.6405,-3.6405,-3.6405,-3.6405,-3.6405,-3.6405,-3.6405,-3.6405,-3.6405,-3.6405,-3.6405,-3.6405,-3.6405,-3.6405,-3.6405,-3.6405,-3.6405,-3.6405,-3.6405,-3.6405,-3.6405,-3.6405,-3.6405,-3.6405,-3.6405,-3.6405,-3.6405,-3.6405,-3.6405,-3.6477,-3.7554,-3.8781,-4.0202,-4.1459,-4.2521,-4.3101,-4.3076,-4.2644,-4.1684,-4.1212,-4.0317,-3.8379,-3.7402,-3.6418,-3.4936,-3.4261,-3.3709,-3.3199,-3.3124,-3.3124,-3.3124,-3.3124,-3.3124,-3.3124,-3.3149,-3.3162,-3.3162,-3.3162,-3.3162,-3.3162,-3.4677,-3.5615,-3.5615,-3.7309,-3.8202,-3.8202,-3.8202,-3.8202,-3.8202,-3.8202,-3.8202,-3.8217,-3.8855,-3.9146,-3.9146,-3.9146,-3.9494,-4.0104,-4.0742,-4.1018,-4.1105,-4.1787,-4.2049,-4.2049,-4.2092,-4.2092,-4.2092,-4.2092,-4.2092,-4.2092,-4.2092,-4.2092,-4.2092,-4.2092,-4.2092,-4.2092,-4.2092,-4.2092,-4.2092,-4.2092,-4.2092,-4.2092,-4.2092,-4.2051,-4.1507,-3.9651,-3.921,-3.8854,-3.79,-3.7717,-3.7441,-3.6546,-3.6405,-3.6405,-3.6405,-3.6405,-3.6405,-3.6405,-3.6405,-3.6405,-3.6405,-3.6405,-3.6405,-3.6405,-3.6405,-3.6405,-3.6405,-3.6405,-3.6405,-3.6405,-3.6405,-3.6405,-3.6405,-3.6405,-3.6405,-3.6405,-3.6405,-3.6405,-3.6405,-3.6405,-3.6405,-3.6791,-3.712,-3.7689,-3.9858,-4.0756,-4.1384,-4.2462,-4.2951,-4.3076,-4.2589,-4.2386,-4.1811,-4.026,-3.8604,-3.7007,-3.5466,-3.4743,-3.4236,-3.3684,-3.3307,-3.3124,-3.3124,-3.3124,-3.3124,-3.3124,-3.3124,-3.3124,-3.3124,-3.3124,-3.3124,-3.3124,-3.4705,-3.5615,-3.5615,-3.7309,-3.8202,-3.8202,-3.8202,-3.8202,-3.8202,-3.8638,-3.8841,-3.8855,-3.9088,-3.9654,-4.0394,-3.9958,-4.0133,-4.0757,-4.1004,-4.1352,-4.1758,-4.2005,-4.2092,-4.2092,-4.2092,-4.2092,-4.2092,-4.2092,-4.2092,-4.2092,-4.2092,-4.2092,-4.2092,-4.2092,-4.2092,-4.2092,-4.2092,-4.2092,-4.2092,-4.2092,-4.2092,-4.2092,-4.2092,-4.2092,-4.1912,-4.1198,-4.0057,-3.8899,-3.7978,-3.7808,-3.75,-3.6546,-3.6405,-3.6405,-3.6405,-3.6405,-3.6405,-3.6405,-3.6405,-3.6405,-3.6405,-3.6405,-3.6405,-3.6405,-3.6405,-3.6405,-3.6405,-3.6405,-3.6405,-3.6405,-3.6405,-3.6405,-3.6405,-3.6405,-3.6405,-3.6405,-3.6405,-3.6405,-3.6405,-3.6405,-3.6405,-3.6537,-3.6626,-3.706,-3.9469,-3.9903,-4.0247,-4.2237,-4.2686,-4.2766,-4.3026,-4.3036,-4.2603,-4.1436,-3.9986,-3.8443,-3.6767,-3.5929,-3.5207,-3.4456,-3.3788,-3.3282,-3.3106,-3.3124,-3.3124,-3.3124,-3.3244,-3.3357,-3.3357,-3.3357,-3.3518,-3.3793,-3.4934,-3.5855,-3.6464,-3.7591,-3.8202,-3.8202,-3.8202,-3.8318,-3.8551,-3.8986,-3.9305,-3.9509,-3.9741,-4.0292,-4.1091,-4.0858,-4.1018,-4.1439,-4.1439,-4.17,-4.2092,-4.2092,-4.2092,-4.2092,-4.2092,-4.2092,-4.2092,-4.2092,-4.2092,-4.2092,-4.2092,-4.2092,-4.2092,-4.2092,-4.2092,-4.2092,-4.2092,-4.2092,-4.2092,-4.2092,-4.2092,-4.2092,-4.2092,-4.2092,-4.2092,-4.2092,-4.11,-3.9796,-3.8509,-3.8283,-3.7887,-3.664,-3.6405,-3.6405,-3.6405,-3.6405,-3.6405,-3.6405,-3.6405,-3.6405,-3.6405,-3.6405,-3.6405,-3.6405,-3.6405,-3.6405,-3.6405,-3.6405,-3.6405,-3.6405,-3.6405,-3.6405,-3.6405,-3.6405,-3.6405,-3.6405,-3.6405,-3.6405,-3.6405,-3.6405,-3.6405,0.0,0.0,0.0,-3.8856,-3.8841,-3.9215,-4.2438,-4.2237,-4.1698,-4.2991,-4.3111,-4.268,-4.1794,-4.1491,-4.0746,-3.8826,-3.7687,-3.6642,-3.5532,-3.4584,-3.3809,-3.3268,-3.3205,-3.3205,-3.3205,-3.3652,-3.3922,-3.3966,-3.3966,-3.4323,-3.5165,-3.5463,-3.6425,-3.8165,-3.8202,-3.8202,-3.8202,-3.8217,-3.8565,-3.9204,-3.9233,-3.9567,-4.0147,-4.08,-4.1105,-4.1163,-4.1802,-4.2078,-4.2092,-4.2092,-4.2092,-4.2092,-4.2092,-4.2092,-4.2092,-4.2092,-4.2092,-4.2092,-4.2092,-4.2092,-4.2092,-4.2092,-4.2092,-4.2092,-4.2092,-4.2092,-4.2092,-4.2092,-4.2092,-4.2092,-4.2092,-4.2092,-4.2092,-4.2092,-4.2092,-4.2092,-4.2092,-4.2092,-4.1549,-3.9607,-3.9241,-3.8675,-3.6756,-3.6452,-3.6452,-3.6405,-3.6405,-3.6405,-3.6405,-3.6405,-3.6405,-3.6405,-3.6405,-3.6405,-3.6405,-3.6405,-3.6405,-3.6405,-3.6405,-3.6405,-3.6405,-3.6405,-3.6405,-3.6405,-3.6405,-3.6405,-3.6405,-3.6405,-3.6405,-3.6405,-3.6405,-3.6405,-3.5504,0.0,0.0,0.0,0.0,0.0,-4.0031,-4.0217,-4.0472,-4.2267,-4.2213,-4.1998,-4.2507,-4.2563,-4.226,-4.1443,-3.9576,-3.8049,-3.7609,-3.6992,-3.6244,-3.5353,-3.5253,-3.5253,-3.5253,-3.4775,-3.4743,-3.5443,-3.5486,-3.5392,-3.5234,-3.6035,-3.7039,-3.8165,-3.8202,-3.8202,-3.8202,-3.8681,-3.9015,-3.9218,-4.0133,-4.0655,-4.0829,-4.1018,-4.1366,-4.1802,-4.1512,-4.1642,-4.2092,-4.2092,-4.2092,-4.2092,-4.2092,-4.2092,-4.2092,-4.2092,-4.2092,-4.2092,-4.2092,-4.2092,-4.2092,-4.2092,-4.2092,-4.2092,-4.2092,-4.2092,-4.2092,-4.2092,-4.2092,-4.2092,-4.2092,-4.2092,-4.2092,-4.2092,-4.2092,-4.2092,-4.2092,-4.2092,-4.1731,-4.0475,-4.0202,-3.9637,-3.7763,-3.7407,-3.7176,-3.6499,-3.6405,-3.6405,-3.6405,-3.6405,-3.6405,-3.6405,-3.6405,-3.6405,-3.6405,-3.6405,-3.6405,-3.6405,-3.6405,-3.6405,-3.6405,-3.6405,-3.6405,-3.6405,-3.6405,-3.6405,-3.6405,-3.6405,-3.6405,-3.6405,-3.6405,-3.6405,-3.5504,-3.5504,-3.5729,-3.6641,0.0,0.0,-3.9334,-3.9394,-3.9559,-4.1587,-4.1901,-4.2013,-4.2619,-4.2937,-4.2996,-4.2581,-4.1328,-4.0041,-3.9099,-3.8372,-3.7619,-3.6807,-3.6751,-3.6751,-3.6751,-3.6411,-3.6467,-3.7023,-3.7067,-3.6823,-3.6357,-3.7314,-3.7968,-3.8202,-3.8202,-3.8202,-3.8202,-3.8594,-3.9044,-3.9581,-4.0321,-4.0974,-4.1512,-4.1512,-4.1729,-4.2078,-4.1686,-4.1744,-4.2092,-4.2092,-4.2092,-4.2092,-4.2092,-4.2092,-4.2092,-4.2092,-4.2092,-4.2092,-4.2092,-4.2092,-4.2092,-4.2092,-4.2092,-4.2092,-4.2092,-4.2092,-4.2092,-4.2092,-4.2092,-4.2092,-4.2092,-4.2092,-4.2092,-4.2092,-4.2092,-4.2092,-4.2092,-4.2092,-4.1814,-4.0788,-4.0603,-4.0116,-3.8644,-3.8069,-3.7625,-3.7083,-3.664,-3.6405,-3.6405,-3.6405,-3.6405,-3.6405,-3.6405,-3.6405,-3.6405,-3.6405,-3.6405,-3.6405,-3.6405,-3.6405,-3.6405,-3.6405,-3.6405,-3.6405,-3.6405,-3.6405,-3.6405,-3.6405,-3.6405,-3.6405,-3.6405,-3.6405,-3.5504,-3.5504,0.0,-3.6911,-3.6342,0.0,-3.9275,-3.8975,-3.8661,-4.0741,-4.1602,-4.2021,-4.2246,-4.2731,-4.2962,-4.2602,-4.2581,-4.203,-4.0291,-3.9338,-3.8564,-3.7987,-3.7919,-3.7919,-3.7919,-3.8283,-3.854,-3.8626,-3.8571,-3.8448,-3.8277,-3.8859,-3.8928,-3.8333,-3.8246,-3.8202,-3.8202,-3.8347,-3.8986,-4.0104,-4.0249,-4.0945,-4.2092,-4.2092,-4.2092,-4.2092,-4.2092,-4.2092,-4.2092,-4.2092,-4.2092,-4.2092,-4.2092,-4.2092,-4.2092,-4.2092,-4.2092,-4.2092,-4.2092,-4.2092,-4.2092,-4.2092,-4.2092,-4.2092,-4.2092,-4.2092,-4.2092,-4.2092,-4.2092,-4.2092,-4.2092,-4.2092,-4.2092,-4.2092,-4.2092,-4.2092,-4.2092,-4.2092,-4.1814,-4.093,-4.0788,-4.0475,-3.9505,-3.8599,-3.7946,-3.7808,-3.6989,-3.6405,-3.6405,-3.6405,-3.6405,-3.6405,-3.6405,-3.6405,-3.6405,-3.6405,-3.6405,-3.6405,-3.6405,-3.6405,-3.6405,-3.6405,-3.6405,-3.6405,-3.6405,-3.6405,-3.6405,-3.6405,-3.6405,-3.6405,-3.6405,-3.6405,-3.5504,-3.5504,-3.5564,-3.5818,-3.5684,0.0,-3.6985,-3.6641,-3.6776,-3.929,-3.9469,-3.9664,-4.1317,-4.1669,-4.1682,-4.1466,-4.1804,-4.2,-4.1707,-4.1502,-4.1041,-4.0125,-4.0025,-4.0025,-4.0025,-3.9434,-3.9385,-4.0107,-3.9732,-3.9745,-4.0432,-3.9663,-3.9146,-3.9015,-3.8478,-3.8202,-3.8202,-3.9218,-3.9842,-4.0104,-4.1192,-4.1845,-4.2092,-4.2092,-4.2092,-4.2092,-4.2092,-4.2092,-4.2092,-4.2092,-4.2092,-4.2092,-4.2092,-4.2092,-4.2092,-4.2092,-4.2092,-4.2092,-4.2092,-4.2092,-4.2092,-4.2092,-4.2092,-4.2092,-4.2092,-4.2092,-4.2092,-4.2092,-4.2092,-4.2092,-4.2092,-4.2092,-4.2092,-4.2092,-4.2092,-4.2092,-4.2092,-4.2092,-4.2051,-4.1856,-4.1814,-4.1493,-4.0518,-3.9549,-3.8675,-3.79,-3.6989,-3.6405,-3.6405,-3.6405,-3.6405,-3.6405,-3.6405,-3.6405,-3.6405,-3.6405,-3.6405,-3.6405,-3.6405,-3.6405,-3.6405,-3.6405,-3.6405,-3.6405,-3.6405,-3.6405,-3.6405,-3.6405,-3.6405,-3.6405,-3.6405,-3.6405,-3.5504,-3.5504,-3.5504,-3.5504,-3.5504,0.0,0.0,-3.6237,-3.6462,-3.8078,-3.8392,-3.8706,-3.9709,-4.0172,-4.0442,-4.0598,-4.1139,-4.1518,-4.1437,-4.1875,-4.2022,-4.1437,-4.1339,-4.1339,-4.1339,-4.0916,-4.0816,-4.1296,-4.1067,-4.0974,-4.1065,-4.0495,-3.9857,-3.9218,-3.887,-3.8536,-3.8202,-3.9175,-3.9799,-4.0104,-4.112,-4.1773,-4.2092,-4.2092,-4.2092,-4.2092,-4.2092,-4.2092,-4.2092,-4.2092,-4.2092,-4.2092,-4.2092,-4.2092,-4.2092,-4.2092,-4.2092,-4.2092,-4.2092,-4.2092,-4.2092,-4.2092,-4.2092,-4.2092,-4.2092,-4.2092,-4.2092,-4.2092,-4.2092,-4.2092,-4.2092,-4.2092,-4.2092,-4.2092,-4.2092,-4.2092,-4.2092,-4.2092,-4.2092,-4.2092,-4.2092,-4.1773,-4.0774,-3.9812,-3.8899,-3.7946,-3.6989,-3.6405,-3.6405,-3.6405,-3.6405,-3.6405,-3.6405,-3.6405,-3.6405,-3.6405,-3.6405,-3.6405,-3.6405,-3.6405,-3.6405,-3.6405,-3.6405,-3.6405,-3.6405,-3.6405,-3.6405,-3.6405,-3.6405,-3.6405,-3.6405,-3.6405,-3.5878,-3.5878,-3.5848,-3.5729,-3.5684,-3.5804,0.0,0.0,0.0,-3.7105,-3.7659,-3.8063,-3.8182,-3.8661,-3.9173,-3.9698,-4.033,-4.0715,-4.0604,-4.1439,-4.207,-4.1971,-4.2061,-4.2092,-4.2092,-4.1976,-4.1961,-4.2092,-4.1976,-4.1729,-4.1308,-4.1163,-4.0626,-3.9596,-3.9436,-3.9117,-3.8565,-3.9233,-3.9813,-4.0292,-4.096,-4.157,-4.2092,-4.2092,-4.2092,-4.2092,-4.2092,-4.2092,-4.2092,-4.2092,-4.2092,-4.2092,-4.2092,-4.2092,-4.2092,-4.2092,-4.2092,-4.2092,-4.2092,-4.2092,-4.2092,-4.2092,-4.2092,-4.2092,-4.2092,-4.2092,-4.2092,-4.2092,-4.2092,-4.2092,-4.2092,-4.2092,-4.2092,-4.2092,-4.2092,-4.2092,-4.2092,-4.2092,-4.2092,-4.2092,-4.2092,-4.1856,-4.1015,-3.9956,-3.8944,-3.8206,-3.7129,-3.6405,-3.6405,-3.6405,-3.6405,-3.6405,-3.6405,-3.6405,-3.6405,-3.6405,-3.6405,-3.6405,-3.6405,-3.6405,-3.6405,-3.6405,-3.6405,-3.6405,-3.6405,-3.6405,-3.6405,-3.6405,-3.6405,-3.6405,-3.6405,-3.6405,-3.7195,-3.7195,-3.706,-3.6507,-3.6372,-3.6237,-3.5729,0.0,-3.5804,-3.6462,0.0,-3.6866,-3.7419,0.0,0.0,-3.8476,-3.9164,-3.9748,-4.0107,-4.0651,-4.1097,-4.1445,-4.1867,-4.2092,-4.2092,-4.1555,-4.1453,-4.2049,-4.1541,-4.1439,-4.1961,-4.1424,-4.1033,-4.0887,-4.0307,-3.9958,-3.9886,-4.0554,-4.0916,-4.0989,-4.1671,-4.202,-4.2092,-4.2092,-4.2092,-4.2092,-4.2092,-4.2092,-4.2092,-4.2092,-4.2092,-4.2092,-4.2092,-4.2092,-4.2092,-4.2092,-4.2092,-4.2092,-4.2092,-4.2092,-4.2092,-4.2092,-4.2092,-4.2092,-4.2092,-4.2092,-4.2092,-4.2092,-4.2092,-4.2092,-4.2092,-4.2092,-4.2092,-4.2092,-4.2092,-4.2092,-4.2092,-4.2092,-4.2092,-4.2092,-4.2092,-4.2051,-4.1953,-4.0417,-3.9166,-3.9077,-3.752,-3.6405,-3.6405,-3.6405,-3.6405,-3.6405,-3.6405,-3.6405,-3.6405,-3.6405,-3.6405,-3.6405,-3.6405,-3.6405,-3.6405,-3.6405,-3.6405,-3.6405,-3.6405,-3.6405,-3.6405,-3.6405,-3.6405,-3.6405,-3.6405,-3.6405,-3.7404,-3.7404,-3.727,-3.6641,-3.6492,-3.6312,-3.5654,-3.5504,-3.5579,-3.5863,0.0,0.0,0.0,0.0,0.0,0.0,-3.8153,-3.8895,-3.9092,-3.9862,-4.0486,-4.0783,-4.0891,-4.1091,-4.1482,-4.1265,-4.1381,-4.2049,-4.1482,-4.1381,-4.2063,-4.1831,-4.1497,-4.1105,-4.0829,-4.0481,-4.0104,-4.0757,-4.1091,-4.1105,-4.1773,-4.2092,-4.2092,-4.2092,-4.2092,-4.2092,-4.2092,-4.2092,-4.2092,-4.2092,-4.2092,-4.2092,-4.2092,-4.2092,-4.2092,-4.2092,-4.2092,-4.2092,-4.2092,-4.2092,-4.2092,-4.2092,-4.2092,-4.2092,-4.2092,-4.2092,-4.2092,-4.2092,-4.2092,-4.2092,-4.2092,-4.2092,-4.2092,-4.2092,-4.2092,-4.2092,-4.2092,-4.2092,-4.2092,-4.2092,-4.2092,-4.2092,-4.2092,-4.0944,-3.9812,-3.9285,-3.8056,-3.7222,-3.7222,-3.6722,-3.6405,-3.6405,-3.6405,-3.6405,-3.6405,-3.6405,-3.6405,-3.6405,-3.6405,-3.6405,-3.6405,-3.6405,-3.6405,-3.6405,-3.6405,-3.6405,-3.6405,-3.6405,-3.6405,-3.6405,-3.6405,-3.6405,-3.7958,-3.7958,-3.7764,-3.6941,-3.6746,-3.6522,-3.5699,-3.5639,-3.5774,-3.5774,-3.5908,0.0,0.0,0.0,0.0,0.0,0.0,-3.8182,-3.8362,-3.8916,-3.9535,-4.022,-4.0397,-4.072,-4.1308,-4.1033,-4.1178,-4.2034,-4.1308,-4.1192,-4.2049,-4.2092,-4.1874,-4.1381,-4.1366,-4.1134,-4.0655,-4.1134,-4.1366,-4.1381,-4.186,-4.2092,-4.2092,-4.2092,-4.2092,-4.2092,-4.2092,-4.2092,-4.2092,-4.2092,-4.2092,-4.2092,-4.2092,-4.2092,-4.2092,-4.2092,-4.2092,-4.2092,-4.2092,-4.2092,-4.2092,-4.2092,-4.2092,-4.2092,-4.2092,-4.2092,-4.2092,-4.2092,-4.2092,-4.2092,-4.2092,-4.2092,-4.2092,-4.2092,-4.2092,-4.2092,-4.2092,-4.2092,-4.2092,-4.2092,-4.2092,-4.2092,-4.2092,-4.1254,-4.0375,-3.9681,-3.8554,-3.7808,-3.7808,-3.6989,-3.6405,-3.6405,-3.6405,-3.6405,-3.6405,-3.6405,-3.6405,-3.6405,-3.6405,-3.6405,-3.6405,-3.6405,-3.6405,-3.6405,-3.6405,-3.6405,-3.6405,-3.6405,-3.6405,-3.6405,-3.6405,-3.6405,-3.9328,-3.9328,-3.9,-3.7704,-3.7375,-3.7045,-3.5789,-3.5998,-3.6447,-3.6447,-3.6926,-3.7345,-3.7345,0.0,0.0,0.0,0.0,0.0,0.0,-3.7724,-3.794,-3.9884,-4.0847,-4.154,-4.2032,-4.0887,-4.067,-4.199,-4.0873,-4.0713,-4.2034,-4.2092,-4.2092,-4.2063,-4.2063,-4.2049,-4.2034,-4.2049,-4.2063,-4.2063,-4.2092,-4.2092,-4.2092,-4.2092,-4.2092,-4.2092,-4.2092,-4.2092,-4.2092,-4.2092,-4.2092,-4.2092,-4.2092,-4.2092,-4.2092,-4.2092,-4.2092,-4.2092,-4.2092,-4.2092,-4.2092,-4.2092,-4.2092,-4.2092,-4.2092,-4.2092,-4.2092,-4.2092,-4.2092,-4.2092,-4.2092,-4.2092,-4.2092,-4.2092,-4.2092,-4.2092,-4.2092,-4.2092,-4.2092,-4.2092,-4.2092,-4.2092,-4.2092,-4.1254,-4.0603,-4.0546,-3.8988,-3.7808,-3.7808,-3.6989,-3.6405,-3.6405,-3.6405,-3.6405,-3.6405,-3.6405,-3.6405,-3.6405,-3.6405,-3.6405,-3.6405,-3.6405,-3.6405,-3.6405,-3.6405,-3.6405,-3.6405,-3.6405,-3.6405,-3.6405,-3.6405,-3.6405,-3.9388,-3.9388,-3.92,-3.8287,-3.7734,-3.718,-3.6342,-3.6327,-3.6492,-3.6492,-3.6985,-3.7404,-3.7404,0.0,0.0,0.0,0.0,0.0,0.0,-3.7485,-3.7814,-3.9268,-4.0338,-4.0827,-4.0412,-4.0748,-4.1091,-4.1395,-4.1018,-4.1149,-4.2049,-4.2092,-4.2092,-4.2092,-4.2092,-4.2092,-4.2092,-4.2092,-4.2092,-4.2092,-4.2092,-4.2092,-4.2092,-4.2092,-4.2092,-4.2092,-4.2092,-4.2092,-4.2092,-4.2092,-4.2092,-4.2092,-4.2092,-4.2092,-4.2092,-4.2092,-4.2092,-4.2092,-4.2092,-4.2092,-4.2092,-4.2092,-4.2092,-4.2092,-4.2092,-4.2092,-4.2092,-4.2092,-4.2092,-4.2092,-4.2092,-4.2092,-4.2092,-4.2092,-4.2092,-4.2092,-4.2092,-4.2092,-4.2092,-4.2092,-4.2092,-4.2092,-4.2092,-4.1814,-4.1353,-4.0689,-3.9505,-3.8509,-3.79,-3.6989,-3.6405,-3.6405,-3.6405,-3.6405,-3.6405,-3.6405,-3.6405,-3.6405,-3.6405,-3.6405,-3.6405,-3.6405,-3.6405,-3.6405,-3.6405,-3.6405,-3.6405,-3.6405,-3.6405,-3.6405,-3.6405,-3.6405,-3.9265,-3.9228,-3.905,-3.8521,-3.8008,-3.7495,-3.6956,-3.6985,-3.7165,-3.7165,-3.7674,-3.8123,-3.8123,0.0,0.0,0.0,0.0,0.0,0.0,-3.7464,-3.7953,-3.8439,-3.9491,-4.0182,-4.0178,-4.0505,-4.0923,-4.1436,-4.1004,-4.1134,-4.2049,-4.2295,-4.2324,-4.2107,-4.231,-4.231,-4.2092,-4.2092,-4.2092,-4.2092,-4.2092,-4.2092,-4.2092,-4.2092,-4.2092,-4.2092,-4.2092,-4.2092,-4.2092,-4.2092,-4.2092,-4.2092,-4.2092,-4.2092,-4.2092,-4.2092,-4.2092,-4.2092,-4.2092,-4.2092,-4.2092,-4.2092,-4.2092,-4.2092,-4.2092,-4.2092,-4.2092,-4.2092,-4.2092,-4.2092,-4.2092,-4.2092,-4.2092,-4.2092,-4.2092,-4.2092,-4.2092,-4.2092,-4.2092,-4.2092,-4.2092,-4.2092,-4.2092,-4.2092,-4.1856,-4.124,-4.0043,-3.8988,-3.8373,-3.7163,-3.6405,-3.6405,-3.6405,-3.6405,-3.6405,-3.6405,-3.6405,-3.6405,-3.6405,-3.6405,-3.6405,-3.6405,-3.6405,-3.6405,-3.6405,-3.6405,-3.6405,-3.6405,-3.6405,-3.6405,-3.6405,-3.6405]},{"header":{"parameterUnit":"m.s-1","parameterCategory":1,"la1":30.6,"la2":29.2853,"lo1":-89.7004,"lo2":-87.6739,"dy":0.0162,"dx":0.0183,"nx":112,"ny":82,"refTime":"2026-03-05T00:00:00:Z","depth":0,"parameterNumber":3,"parameterNumberName":"V-component_of_WINDS"},"data":[0.0,0.0,0.0,0.0,0.0,0.0,0.0,0.0,0.0,0.0,0.0,0.0,0.0,0.0,0.0,0.0,0.0,0.0,0.0,0.0,0.0,0.0,0.0,0.0,0.0,0.0,0.0,0.0,0.0,0.0,0.0,0.0,0.0,0.0,0.0,0.0,0.0,0.0,0.0,0.0,0.0,0.0,0.0,0.0,0.0,0.0,0.0,0.0,0.0,0.0,0.0,0.0,0.0,0.0,0.0,0.0,0.0,0.0,0.0,0.0,0.0,0.0,0.0,0.0,0.0,0.0,0.0,0.0,0.0,0.0,0.0,0.0,0.0,0.0,0.0,0.0,0.0,0.0,0.0,0.0,0.0,0.0,0.0,0.0,0.0,0.0,0.0,0.0,0.0,0.0,1.7005,1.6794,1.7061,1.7279,1.7279,1.7186,1.6815,1.6011,0.0,0.0,0.0,0.0,0.0,0.0,0.0,0.0,0.0,0.0,0.0,0.0,0.0,0.0,0.0,0.0,0.0,0.0,0.0,0.0,0.0,0.0,0.0,0.0,0.0,0.0,0.0,0.0,0.0,0.0,0.0,0.0,0.0,0.0,0.0,0.0,0.0,0.0,0.0,0.0,0.0,0.0,0.0,0.0,0.0,0.0,0.0,0.0,0.0,0.0,0.0,0.0,0.0,0.0,0.0,0.0,0.0,0.0,0.0,0.0,0.0,0.0,0.0,0.0,0.0,0.0,0.0,0.0,0.0,0.0,0.0,0.0,0.0,0.0,0.0,0.0,0.0,0.0,0.0,0.0,0.0,0.0,0.0,0.0,0.0,0.0,0.0,0.0,0.0,0.0,0.0,0.0,0.0,0.0,0.0,0.0,0.0,0.0,0.0,0.0,0.0,0.0,0.0,0.0,1.663,1.7085,1.7382,1.7529,1.7529,1.7523,1.718,1.6307,0.0,0.0,0.0,0.0,0.0,0.0,0.0,0.0,0.0,0.0,0.0,0.0,0.0,0.0,0.0,0.0,0.0,0.0,0.0,0.0,0.0,0.0,0.0,0.0,0.0,0.0,0.0,0.0,0.0,0.0,0.0,0.0,0.0,0.0,0.0,0.0,0.0,0.0,0.0,0.0,0.0,0.0,0.0,0.0,0.0,0.0,0.0,0.0,0.0,0.0,0.0,0.0,0.0,0.0,0.0,0.0,0.0,0.0,0.0,0.0,0.0,0.0,0.0,0.0,0.0,0.0,0.0,0.0,0.0,0.0,0.0,0.0,0.0,0.0,0.0,0.0,0.0,0.0,0.0,0.0,0.0,0.0,0.0,0.0,0.0,0.0,0.0,0.0,0.0,0.0,0.0,0.0,0.0,0.0,0.0,0.0,0.0,0.0,0.0,0.0,0.0,0.0,0.0,1.8585,1.8439,1.9154,1.8733,1.8454,1.8454,1.7943,1.7283,1.6553,1.6531,0.0,0.0,0.0,0.0,0.0,0.0,0.0,0.0,0.0,0.0,0.0,0.0,0.0,0.0,0.0,0.0,0.0,0.0,0.0,0.0,0.0,0.0,0.0,0.0,0.0,0.0,0.0,0.0,0.0,0.0,0.0,0.0,0.0,0.0,0.0,0.0,0.0,0.0,0.0,0.0,0.0,0.0,0.0,0.0,0.0,0.0,0.0,0.0,0.0,0.0,0.0,0.0,0.0,0.0,0.0,0.0,0.0,0.0,0.0,0.0,0.0,0.0,0.0,0.0,0.0,0.0,0.0,0.0,0.0,0.0,0.0,0.0,0.0,0.0,0.0,0.0,0.0,0.0,0.0,0.0,0.0,0.0,0.0,0.0,0.0,0.0,0.0,0.0,0.0,0.0,0.0,0.0,0.0,0.0,0.0,0.0,0.0,0.0,0.0,0.0,0.0,0.0,2.0368,2.0612,2.0872,2.0107,1.9591,1.9591,1.8747,1.7911,1.7134,1.7032,0.0,0.0,0.0,0.0,0.0,0.0,0.0,0.0,0.0,0.0,0.0,0.0,0.0,0.0,0.0,0.0,0.0,0.0,0.0,0.0,0.0,0.0,0.0,0.0,0.0,0.0,0.0,0.0,0.0,0.0,0.0,0.0,0.0,0.0,0.0,0.0,0.0,0.0,0.0,0.0,0.0,0.0,0.0,0.0,0.0,0.0,0.0,0.0,0.0,0.0,0.0,0.0,0.0,0.0,0.0,0.0,0.0,0.0,0.0,0.0,0.0,0.0,0.0,0.0,0.0,0.0,0.0,0.0,0.0,0.0,0.0,0.0,0.0,0.0,0.0,0.0,0.0,0.0,0.0,0.0,0.0,0.0,0.0,0.0,0.0,0.0,0.0,0.0,0.0,0.0,0.0,0.0,0.0,0.0,0.0,0.0,0.0,0.0,0.0,0.0,0.0,0.0,2.1486,2.2223,2.103,2.0834,2.0783,2.0783,2.0365,1.9579,1.8355,1.7916,0.0,0.0,0.0,0.0,0.0,0.0,0.0,0.0,0.0,0.0,0.0,0.0,0.0,0.0,0.0,0.0,0.0,0.0,0.0,0.0,0.0,0.0,0.0,0.0,0.0,0.0,0.0,0.0,0.0,0.0,0.0,0.0,0.0,0.0,0.0,0.0,0.0,0.0,0.0,0.0,0.0,0.0,0.0,0.0,0.0,0.0,0.0,0.0,0.0,0.0,0.0,0.0,0.0,0.0,0.0,0.0,0.0,0.0,0.0,0.0,0.0,0.0,0.0,0.0,0.0,0.0,0.0,0.0,0.0,0.0,0.0,0.0,0.0,0.0,0.0,0.0,0.0,0.0,0.0,0.0,0.0,0.0,0.0,0.0,0.0,0.0,0.0,0.0,0.0,0.0,0.0,0.0,0.0,0.0,0.0,0.0,0.0,0.0,0.0,0.0,0.0,0.0,2.2924,2.3402,2.3407,2.2802,2.2391,2.2391,2.1379,2.0375,1.9593,0.0,0.0,0.0,0.0,0.0,0.0,0.0,0.0,0.0,0.0,0.0,0.0,0.0,0.0,0.0,0.0,0.0,0.0,0.0,0.0,0.0,0.0,0.0,0.0,0.0,0.0,0.0,0.0,0.0,0.0,0.0,0.0,0.0,0.0,0.0,0.0,0.0,0.0,0.0,0.0,0.0,0.0,0.0,0.0,0.0,0.0,0.0,0.0,0.0,0.0,0.0,0.0,0.0,0.0,0.0,0.0,0.0,0.0,0.0,0.0,0.0,0.0,0.0,0.0,0.0,0.0,0.0,0.0,0.0,0.0,0.0,0.0,0.0,0.0,0.0,0.0,0.0,0.0,0.0,0.0,0.0,0.0,0.0,0.0,0.0,0.0,0.0,0.0,0.0,0.0,0.0,0.0,0.0,0.0,0.0,0.0,0.0,0.0,0.0,0.0,0.0,0.0,2.3633,2.3898,2.425,2.4856,2.4153,2.3619,2.3619,2.2377,2.1343,2.0716,0.0,0.0,0.0,0.0,0.0,0.0,0.0,0.0,0.0,0.0,0.0,0.0,0.0,0.0,0.0,0.0,0.0,0.0,0.0,0.0,0.0,0.0,0.0,0.0,0.0,0.0,0.0,0.0,0.0,0.0,0.0,0.0,0.0,0.0,0.0,0.0,0.0,0.0,0.0,0.0,0.0,0.0,0.0,0.0,0.0,0.0,0.0,0.0,0.0,0.0,0.0,0.0,0.0,0.0,0.0,0.0,0.0,0.0,0.0,0.0,0.0,0.0,0.0,0.0,0.0,0.0,0.0,0.0,0.0,0.0,0.0,0.0,0.0,0.0,0.0,0.0,0.0,0.0,0.0,0.0,0.0,0.0,0.0,0.0,0.0,0.0,0.0,0.0,0.0,0.0,0.0,0.0,0.0,0.0,0.0,0.0,0.0,0.0,0.0,0.0,0.0,0.0,2.3671,2.4297,2.4775,2.4884,2.4572,2.4326,2.4316,2.3493,2.2629,0.0,0.0,0.0,0.0,0.0,0.0,0.0,0.0,0.0,0.0,0.0,0.0,0.0,0.0,0.0,0.0,0.0,0.0,0.0,0.0,0.0,0.0,0.0,0.0,0.0,0.0,0.0,0.0,0.0,0.0,0.0,0.0,0.0,0.0,0.0,0.0,0.0,0.0,0.0,0.0,0.0,0.0,0.0,0.0,0.0,0.0,0.0,0.0,0.0,0.0,0.0,0.0,0.0,0.0,0.0,0.0,0.0,0.0,0.0,0.0,0.0,0.0,0.0,0.0,0.0,0.0,0.0,0.0,0.0,0.0,0.0,0.0,0.0,0.0,0.0,0.0,0.0,0.0,0.0,0.0,0.0,0.0,0.0,0.0,0.0,0.0,0.0,0.0,0.0,0.0,0.0,0.0,0.0,0.0,0.0,0.0,0.0,0.0,0.0,0.0,0.0,0.0,0.0,2.4057,2.4346,2.4644,2.5024,2.4908,2.4715,2.4405,2.3873,2.3249,2.2497,0.0,0.0,0.0,0.0,0.0,0.0,0.0,0.0,0.0,0.0,0.0,0.0,0.0,0.0,0.0,0.0,0.0,0.0,0.0,0.0,0.0,0.0,0.0,0.0,0.0,0.0,0.0,0.0,0.0,0.0,0.0,0.0,0.0,0.0,0.0,0.0,0.0,0.0,0.0,0.0,0.0,0.0,0.0,0.0,0.0,0.0,0.0,0.0,0.0,0.0,0.0,0.0,0.0,0.0,0.0,0.0,0.0,0.0,0.0,0.0,0.0,0.0,0.0,0.0,0.0,0.0,0.0,0.0,0.0,0.0,0.0,0.0,0.0,0.0,0.0,0.0,0.0,0.0,0.0,0.0,0.0,0.0,0.0,0.0,0.0,0.0,0.0,0.0,0.0,0.0,0.0,0.0,0.0,0.0,0.0,0.0,0.0,0.0,0.0,0.0,0.0,0.0,2.4821,2.5158,2.5507,2.613,2.5885,2.5558,2.5237,2.4519,2.3813,2.3246,0.0,0.0,0.0,0.0,0.0,0.0,0.0,0.0,0.0,0.0,0.0,0.0,0.0,0.0,0.0,0.0,0.0,0.0,0.0,0.0,0.0,0.0,0.0,0.0,0.0,0.0,0.0,0.0,0.0,0.0,0.0,0.0,0.0,0.0,0.0,0.0,0.0,0.0,0.0,0.0,0.0,0.0,0.0,0.0,0.0,0.0,0.0,0.0,0.0,0.0,0.0,0.0,0.0,0.0,0.0,0.0,0.0,0.0,0.0,0.0,0.0,0.0,0.0,0.0,0.0,0.0,0.0,0.0,0.0,0.0,0.0,0.0,0.0,0.0,0.0,0.0,0.0,0.0,0.0,0.0,0.0,0.0,0.0,0.0,0.0,0.0,0.0,0.0,0.0,0.0,0.0,0.0,0.0,0.0,0.0,0.0,0.0,0.0,0.0,0.0,0.0,0.0,2.5818,2.6334,2.6878,2.773,2.7064,2.6529,2.6485,2.536,2.4461,2.3992,0.0,0.0,0.0,0.0,0.0,0.0,0.0,0.0,0.0,0.0,0.0,0.0,0.0,0.0,0.0,0.0,0.0,0.0,0.0,0.0,0.0,0.0,0.0,0.0,0.0,0.0,0.0,0.0,0.0,0.0,0.0,0.0,0.0,0.0,0.0,0.0,0.0,0.0,0.0,0.0,0.0,0.0,0.0,0.0,0.0,0.0,0.0,0.0,0.0,0.0,0.0,0.0,0.0,0.0,0.0,0.0,0.0,0.0,0.0,0.0,2.7227,2.683,0.0,0.0,0.0,0.0,0.0,0.0,0.0,0.0,0.0,0.0,0.0,0.0,0.0,0.0,0.0,0.0,0.0,0.0,0.0,0.0,0.0,0.0,0.0,0.0,0.0,0.0,0.0,0.0,0.0,0.0,0.0,0.0,0.0,0.0,0.0,0.0,0.0,0.0,0.0,0.0,2.67,2.6915,2.7066,2.7234,2.7067,2.6832,2.6549,2.6249,2.5818,2.5161,2.4577,0.0,0.0,0.0,0.0,0.0,0.0,0.0,0.0,0.0,0.0,0.0,0.0,0.0,0.0,0.0,0.0,0.0,0.0,0.0,0.0,0.0,0.0,0.0,0.0,0.0,0.0,0.0,0.0,0.0,0.0,0.0,0.0,0.0,0.0,0.0,0.0,0.0,0.0,0.0,0.0,0.0,0.0,0.0,0.0,0.0,0.0,0.0,0.0,0.0,0.0,0.0,0.0,0.0,0.0,0.0,0.0,0.0,0.0,0.0,2.912,2.8232,0.0,0.0,0.0,0.0,0.0,0.0,0.0,0.0,0.0,0.0,0.0,0.0,0.0,0.0,0.0,0.0,0.0,0.0,0.0,0.0,0.0,0.0,0.0,0.0,0.0,0.0,0.0,0.0,0.0,0.0,0.0,0.0,0.0,0.0,0.0,0.0,0.0,0.0,0.0,0.0,2.7683,2.7969,2.8158,2.8403,2.8216,2.7959,2.7782,2.7395,2.6881,2.6336,2.5616,0.0,0.0,0.0,0.0,0.0,0.0,0.0,0.0,0.0,0.0,0.0,0.0,0.0,0.0,0.0,0.0,0.0,0.0,0.0,0.0,0.0,0.0,0.0,0.0,0.0,0.0,0.0,0.0,0.0,0.0,0.0,0.0,0.0,0.0,0.0,0.0,0.0,0.0,0.0,0.0,0.0,0.0,0.0,0.0,0.0,0.0,0.0,0.0,0.0,0.0,0.0,0.0,0.0,3.0857,3.1487,3.2305,3.2661,3.3273,3.3896,3.1217,3.0213,3.0376,3.0091,0.0,0.0,0.0,0.0,0.0,0.0,0.0,0.0,0.0,0.0,0.0,0.0,0.0,0.0,0.0,0.0,0.0,0.0,0.0,0.0,0.0,0.0,2.9675,2.9675,2.9831,2.9436,2.7603,0.0,0.0,0.0,0.0,0.0,0.0,0.0,0.0,0.0,0.0,0.0,2.8648,2.9071,2.9382,2.9838,2.948,2.9209,2.9209,2.8554,2.7993,2.7615,2.6795,2.5924,0.0,0.0,0.0,0.0,0.0,0.0,0.0,0.0,0.0,0.0,0.0,0.0,0.0,0.0,0.0,0.0,0.0,0.0,0.0,0.0,0.0,0.0,0.0,0.0,0.0,0.0,0.0,0.0,0.0,0.0,0.0,0.0,3.0893,3.0824,0.0,0.0,0.0,0.0,0.0,0.0,0.0,0.0,0.0,0.0,0.0,0.0,0.0,3.162,3.16,3.263,3.3233,3.3351,3.3866,3.4172,3.432,3.4382,3.4465,3.4593,3.462,0.0,3.2761,3.1875,0.0,0.0,0.0,0.0,0.0,0.0,0.0,0.0,0.0,0.0,0.0,0.0,0.0,0.0,0.0,0.0,0.0,0.0,0.0,0.0,0.0,0.0,3.111,3.111,3.0803,3.0415,3.0124,2.8906,2.7854,2.7705,2.7681,2.7804,0.0,0.0,0.0,0.0,0.0,0.0,2.9621,2.9674,2.9739,2.9814,2.9752,2.9714,2.9714,2.9585,2.9419,2.9125,2.8604,2.8131,2.7794,2.732,0.0,0.0,0.0,0.0,0.0,0.0,0.0,0.0,0.0,0.0,0.0,0.0,0.0,0.0,0.0,0.0,0.0,0.0,0.0,0.0,0.0,0.0,0.0,0.0,0.0,0.0,0.0,0.0,0.0,3.2938,3.2535,3.2232,3.2463,3.2438,0.0,0.0,0.0,0.0,0.0,0.0,0.0,0.0,0.0,3.1741,3.2904,3.356,3.356,3.4386,3.4959,3.5264,3.5473,3.5752,3.6057,3.6057,3.6057,3.607,3.6311,3.6029,3.5331,3.3987,3.2815,3.1748,0.0,0.0,0.0,0.0,3.035,3.0631,3.0964,3.1405,3.1814,3.1697,0.0,0.0,0.0,0.0,0.0,0.0,0.0,3.1862,3.2627,3.3248,3.3542,3.317,3.2905,3.2639,3.2245,3.1378,3.0227,2.8834,2.8561,2.8612,2.885,2.8637,0.0,0.0,0.0,2.9428,2.9754,2.9792,2.9792,2.9792,2.9792,2.9792,2.9792,2.9792,2.9753,2.965,2.9425,2.9124,2.8636,2.8425,2.789,0.0,0.0,0.0,0.0,0.0,0.0,0.0,0.0,0.0,0.0,0.0,0.0,0.0,0.0,0.0,0.0,0.0,0.0,0.0,0.0,0.0,0.0,0.0,0.0,0.0,0.0,0.0,0.0,3.4374,3.3909,3.3357,3.3815,3.3935,0.0,0.0,0.0,0.0,0.0,0.0,3.2743,3.3552,3.3973,3.3816,3.5038,3.5725,3.5725,3.6315,3.6839,3.7213,3.7213,3.7435,3.7808,3.7808,3.7808,3.7808,3.7808,3.7808,3.7684,3.5863,3.454,3.3637,3.2916,3.2256,3.1817,3.2021,3.2329,3.2711,3.3005,3.3444,3.3846,3.3548,3.3231,3.2856,3.2398,0.0,0.0,0.0,0.0,3.3322,3.4489,3.4962,3.5062,3.472,3.4365,3.4006,3.3528,3.2985,3.2041,3.0199,2.9838,2.9838,2.9838,2.9527,0.0,3.0404,3.0121,2.9992,3.0481,3.0368,3.0292,3.0419,3.0254,3.0228,3.0368,3.0216,3.0062,3.0062,2.9934,2.9783,2.9503,2.9528,2.9204,2.8453,0.0,0.0,0.0,0.0,0.0,0.0,0.0,0.0,0.0,0.0,0.0,0.0,0.0,0.0,0.0,0.0,0.0,0.0,0.0,0.0,0.0,0.0,0.0,0.0,0.0,0.0,0.0,0.0,0.0,3.3922,3.4572,0.0,0.0,0.0,0.0,3.4193,3.542,3.6196,3.6314,3.7356,3.7689,3.7162,3.8228,3.8778,3.8778,3.9369,3.9699,3.9727,3.9727,3.9741,3.9768,3.9768,3.9768,3.9768,3.9768,3.9768,3.9596,3.72,3.5878,3.5282,3.4148,3.3367,3.2908,3.2841,3.2854,3.2957,3.3482,3.3897,3.4246,3.4738,3.5061,3.5223,3.5195,3.4792,0.0,0.0,3.4477,3.4616,3.5225,3.4924,3.4596,3.5137,3.4327,3.3422,3.3395,3.2985,3.2558,3.2459,3.2409,3.2409,3.2409,0.0,3.2382,3.2451,3.2437,3.2423,3.2464,3.1842,3.1613,3.2105,3.1563,3.1368,3.1942,3.1267,3.0857,3.0857,3.0355,3.0381,3.1066,3.1265,3.1446,3.1592,3.1578,0.0,0.0,0.0,0.0,0.0,0.0,0.0,0.0,0.0,0.0,0.0,0.0,0.0,0.0,0.0,0.0,0.0,0.0,0.0,0.0,0.0,0.0,0.0,0.0,0.0,0.0,0.0,0.0,3.5256,3.6158,0.0,3.6502,3.6348,3.6426,3.677,3.697,3.72,3.7589,3.8491,3.8894,3.8685,3.9564,4.0039,4.0039,4.022,4.0332,4.0332,4.0332,4.0332,4.0332,4.0332,4.0332,4.0332,4.0332,4.0332,4.0275,3.9404,3.8575,3.7639,3.6465,3.5872,3.5683,3.5372,3.5507,3.5805,3.5749,3.6098,3.6407,3.588,3.5794,3.5773,3.5391,3.5148,3.5091,3.5581,3.569,3.5856,3.6504,3.6495,3.6277,3.6096,3.5738,3.5287,3.4845,3.4617,3.4457,3.4457,3.3463,3.2593,3.2593,3.2593,3.2593,3.2593,3.2593,3.2593,3.2593,3.2357,3.2299,3.2464,3.2249,3.2191,3.2407,3.2141,3.1997,3.1997,3.1829,3.1829,3.2105,3.2177,3.2083,3.1813,3.1799,3.1217,0.0,0.0,0.0,0.0,0.0,0.0,0.0,0.0,0.0,0.0,0.0,0.0,0.0,0.0,0.0,0.0,0.0,0.0,0.0,0.0,0.0,0.0,0.0,0.0,0.0,3.5805,3.6416,3.671,3.7632,3.8285,3.8311,3.8301,3.8571,3.9137,3.9136,3.9353,3.9886,4.0424,4.0709,4.0709,4.1234,4.1491,4.1491,4.1491,4.1491,4.1491,4.1491,4.1491,4.1491,4.1491,4.1491,4.1491,4.1491,4.1491,4.1476,4.1303,4.0793,4.0005,3.8361,3.7588,3.7337,3.687,3.6937,3.723,3.7307,3.7579,3.7845,3.7361,3.7201,3.7086,3.6461,3.6295,3.6324,3.6599,3.6661,3.6787,3.7267,3.7255,3.7,3.6582,3.6312,3.6028,3.5609,3.5504,3.5504,3.5504,3.4442,3.3581,3.3581,3.3581,3.3581,3.3581,3.3581,3.3581,3.3581,3.3345,3.3241,3.3478,3.3255,3.3185,3.3359,3.315,3.301,3.301,3.282,3.282,3.3066,3.3136,3.3127,3.3038,3.281,3.2198,3.119,0.0,0.0,0.0,0.0,0.0,0.0,0.0,0.0,0.0,0.0,0.0,0.0,0.0,0.0,0.0,0.0,0.0,0.0,0.0,0.0,0.0,0.0,0.0,3.6916,3.7588,3.82,3.8283,3.8978,3.9257,3.871,3.9599,4.0484,4.111,4.1967,4.2671,4.326,4.329,4.329,4.329,4.329,4.329,4.329,4.329,4.329,4.329,4.329,4.329,4.329,4.329,4.329,4.329,4.329,4.329,4.3215,4.2626,4.2381,4.2106,3.9745,3.845,3.7805,3.7197,3.6958,3.7088,3.7947,3.824,3.8352,3.9156,3.9388,3.9254,3.8601,3.8392,3.8242,3.7569,3.7375,3.7375,3.736,3.6911,3.6462,3.6462,3.5968,3.5504,3.5504,3.5504,3.5504,3.5504,3.5504,3.5504,3.5504,3.5504,3.5504,3.5504,3.5504,0.0,3.5504,3.4824,3.4576,3.5148,3.4572,3.4356,3.4868,3.4254,3.3865,3.3865,3.329,3.331,3.4027,3.423,3.471,3.5472,3.4831,3.4189,3.3499,0.0,0.0,0.0,0.0,0.0,0.0,0.0,0.0,0.0,0.0,0.0,0.0,0.0,0.0,0.0,0.0,0.0,0.0,0.0,0.0,0.0,3.7493,3.8195,3.7481,3.8491,3.9506,4.023,4.0886,4.1478,4.1953,4.2233,4.2481,4.2659,4.2942,4.3135,4.329,4.329,4.329,4.329,4.329,4.329,4.329,4.329,4.329,4.329,4.329,4.329,4.329,4.329,4.329,4.329,4.329,4.306,4.265,4.247,4.1841,4.0883,4.0222,3.9841,3.9606,3.8944,3.8708,3.8745,3.8995,3.9083,3.9119,3.9352,3.9388,3.9254,3.8601,3.8392,3.8167,3.7045,3.6746,3.6626,3.6148,3.5908,3.5774,3.5774,3.5639,3.5504,3.5504,3.5504,3.5504,3.5504,3.5504,3.5504,3.5504,3.5504,3.5504,3.5504,3.5504,3.5504,3.5504,3.5326,3.5246,3.5392,3.5261,3.518,3.5326,3.5148,3.5034,3.5034,3.4887,3.4887,3.51,3.5133,3.5279,3.5504,3.4831,3.4189,0.0,0.0,0.0,0.0,0.0,0.0,0.0,0.0,0.0,0.0,0.0,0.0,0.0,0.0,0.0,0.0,0.0,0.0,0.0,0.0,0.0,0.0,3.9001,4.0149,3.9664,4.0314,4.112,4.192,4.2342,4.2739,4.325,4.329,4.329,4.329,4.329,4.329,4.329,4.329,4.329,4.329,4.329,4.329,4.329,4.329,4.329,4.329,4.329,4.329,4.329,4.329,4.314,4.2925,4.2925,4.2551,4.1976,4.1692,4.1085,4.0397,0.0,0.0,0.0,0.0,3.9388,3.9388,3.9388,3.9388,3.9388,3.9388,3.9388,3.9209,3.8272,3.7973,3.7719,3.6432,3.6073,3.5983,3.5609,3.5504,3.5504,3.5504,3.5504,3.5504,3.5504,3.5504,3.5504,3.5504,3.5504,0.0,3.5504,3.5504,3.5504,3.5504,3.5504,3.5504,3.5504,3.5504,3.5504,3.5504,3.5504,3.5504,3.5504,3.5504,0.0,0.0,0.0,3.5504,3.5504,3.5504,0.0,0.0,0.0,0.0,0.0,0.0,0.0,0.0,3.3815,3.3905,0.0,0.0,0.0,0.0,0.0,0.0,0.0,0.0,0.0,0.0,0.0,0.0,0.0,0.0,0.0,0.0,4.0914,4.256,4.271,4.2665,4.2761,4.323,4.329,4.329,4.329,4.329,4.329,4.329,4.329,4.329,4.329,4.329,0.0,0.0,0.0,4.326,4.3185,4.3185,4.314,4.308,4.308,4.308,4.308,4.308,4.2791,4.2291,4.2291,4.1916,4.122,4.0651,4.0352,4.0292,4.0292,3.9933,3.9388,3.9388,3.9388,3.9388,3.9388,0.0,0.0,3.9388,3.9388,3.9149,3.7913,3.7464,3.7165,3.5953,3.5564,3.5504,3.5504,3.5504,3.5504,3.5504,3.5504,3.5504,3.5504,3.5504,3.5504,3.5504,3.5504,3.5504,3.5504,3.5504,3.5504,3.5504,3.5504,3.5504,3.5504,3.5504,3.5504,3.5504,3.5504,0.0,3.5504,3.5504,3.5504,3.5504,3.5504,3.5522,3.5522,3.5522,3.5569,3.5569,3.5569,3.5604,3.572,3.572,3.5847,3.6054,3.4512,3.4178,0.0,0.0,0.0,0.0,0.0,0.0,0.0,0.0,0.0,0.0,0.0,0.0,0.0,0.0,0.0,4.1896,4.2777,4.3509,4.4571,4.4272,4.3793,4.3349,4.329,4.329,4.329,4.329,4.329,4.329,4.329,4.329,4.329,4.329,4.329,4.329,4.329,4.309,4.259,4.259,4.2282,4.1758,4.1758,0.0,4.1758,4.1758,4.1683,4.1602,4.1602,4.119,4.0576,4.0442,4.0083,3.9604,3.9604,3.9493,3.9388,3.9388,3.9388,3.9388,3.9388,3.9388,3.9388,3.9388,3.9388,3.9275,3.8452,3.7823,0.0,3.6507,3.5908,3.5504,3.5504,3.5504,3.5504,3.5504,3.5504,3.5504,3.5504,3.5504,3.5504,3.5504,3.5504,3.5504,3.5504,3.5504,3.5504,3.5504,3.5504,3.5504,3.5504,3.5504,3.5504,3.5504,3.5504,3.5504,3.5504,3.5504,3.5504,3.5504,3.5589,3.5671,3.5671,3.5814,3.5893,3.5893,3.5893,3.591,3.5941,3.5941,3.6196,3.6723,3.5904,3.5591,0.0,0.0,0.0,0.0,0.0,0.0,0.0,0.0,0.0,0.0,0.0,3.7393,3.9467,0.0,4.1003,4.2981,4.3574,4.4167,4.5155,4.5005,4.4556,4.3898,4.3484,4.329,4.329,4.329,4.329,4.329,4.329,4.329,4.329,4.329,4.314,4.2865,4.2851,4.2536,4.1916,4.1916,4.1752,4.1422,4.1422,4.1422,4.1422,4.1422,4.1205,4.0891,4.0891,4.0516,3.9903,3.9903,3.9709,3.9388,3.9388,3.9388,3.9388,3.9388,3.9388,3.9388,3.9388,3.9388,3.9388,3.9388,3.9388,3.9254,3.8601,3.8167,3.7764,3.712,3.6492,3.5998,3.5998,3.5744,3.5504,3.5504,3.5504,3.5504,3.5504,3.5504,3.5504,3.5504,3.5504,3.5537,3.5604,3.5589,3.5572,3.5504,3.5504,3.5504,3.5504,3.5554,3.5589,3.5589,3.5701,3.5733,3.5733,3.5733,3.5733,3.5733,3.5814,3.5863,3.5863,3.5941,3.6005,3.6005,3.6005,3.6037,3.6085,3.6085,3.6476,3.7147,3.6846,3.6814,0.0,0.0,0.0,0.0,0.0,0.0,0.0,3.6793,3.7318,3.8631,3.8912,3.9429,4.1264,4.2051,4.2695,4.3569,4.4152,4.4781,4.5574,4.5574,4.5244,4.4586,4.3888,4.3424,4.3305,4.329,4.329,4.329,4.329,4.329,4.329,4.317,4.2895,4.2425,4.2276,4.1886,4.119,4.1227,4.113,4.0995,4.0995,4.0995,4.0995,4.0995,4.0711,4.0217,4.0217,3.9903,3.9388,3.9388,3.9388,3.9388,3.9388,3.9388,3.9388,3.9388,3.9388,3.9388,3.9388,3.9388,3.9388,3.9388,3.9388,3.932,3.8751,3.8497,3.8287,3.7749,3.706,3.6492,3.6492,3.5998,3.5504,3.5504,3.5504,3.5504,3.5504,3.5504,3.5504,3.5522,3.5554,3.5572,3.5735,3.5752,3.5703,3.5619,3.5554,3.5554,3.5587,3.5653,3.572,3.5752,3.5894,3.6005,3.6005,3.6005,3.6005,3.6005,3.6037,3.6037,3.6037,3.6068,3.61,3.61,3.61,3.6163,3.6274,3.6383,3.683,3.7578,3.7695,3.7867,3.562,3.5763,3.5502,3.4287,3.5919,3.8005,0.0,3.9369,4.0129,4.0897,4.1032,4.1308,4.2156,4.2351,4.2995,4.4781,4.514,4.5618,4.6905,4.6576,4.5963,4.5274,4.4601,4.3932,4.3349,4.329,4.329,4.329,4.329,4.329,4.329,4.2776,4.247,4.2396,4.1826,4.1175,4.0516,4.0502,4.0217,3.9634,3.9634,3.9634,3.9634,3.9634,3.9568,3.9493,3.9493,3.9448,3.9388,3.9388,3.9388,3.9388,3.9388,3.9388,3.9388,3.9388,3.9388,3.9388,3.9388,3.9388,3.9388,3.9388,3.9388,3.9373,3.9334,3.8871,3.8377,3.8302,3.7404,3.6492,3.6492,3.5998,3.5504,3.5504,3.5504,3.5504,3.5504,3.5504,3.5522,3.5638,3.5688,3.5735,3.5941,3.5973,3.5973,3.5941,3.5799,3.5735,3.591,3.5799,3.5752,3.5941,3.6005,3.6005,3.6005,3.6005,3.6005,3.6005,3.6116,3.6179,3.6179,3.6352,3.6429,3.6429,3.6429,3.646,3.646,3.6997,3.7592,3.821,3.8756,3.8739,3.6911,3.6581,3.6131,3.6773,3.7835,3.8999,4.0168,4.0725,4.116,4.1856,4.1991,4.2186,4.2806,4.324,4.3898,4.5095,4.5633,4.6217,4.7174,4.6741,4.6067,4.5379,4.4721,4.4062,4.3364,4.329,4.329,4.329,4.329,4.3125,4.2776,4.2545,4.2051,4.125,4.095,4.0502,3.9828,3.9828,3.9694,3.9388,3.9388,3.9388,3.9388,3.9388,3.9388,3.9388,3.9388,3.9388,3.9388,3.9388,3.9388,3.9388,3.9388,3.9388,3.9388,3.9388,3.9388,3.9388,3.9388,3.9388,3.9388,3.9388,3.9388,3.9388,3.9388,3.9215,3.899,3.899,3.8317,3.7633,3.7751,3.6952,3.6139,3.6321,3.5972,3.5653,3.5765,3.5797,3.5797,3.5863,3.5863,3.5926,3.6085,3.6116,3.6163,3.6258,3.6053,3.5894,3.6005,3.599,3.6085,3.6258,3.6289,3.6289,3.6289,3.6289,3.6289,3.6289,3.6352,3.6383,3.6383,3.646,3.6492,3.6492,3.6492,3.6492,3.6492,3.7104,3.7709,3.8306,3.892,3.9475,3.7331,3.713,3.718,3.8518,3.9439,4.0312,4.142,4.1788,4.2058,4.2536,4.2626,4.2776,4.32,4.3678,4.4257,4.4915,4.5439,4.5992,4.6651,4.6337,4.5783,4.511,4.4451,4.3813,4.3349,4.329,4.329,4.329,4.329,4.3045,4.2425,4.2231,4.1564,4.0442,4.0232,3.9903,3.9388,3.9388,3.9388,3.9388,3.9388,3.9388,3.9388,3.9388,3.9388,3.9388,3.9388,3.9388,3.9388,3.9388,3.9388,3.9388,3.9388,3.9388,3.9388,3.9388,3.9388,3.9388,3.9388,3.9388,3.9388,3.9388,3.9388,3.9388,3.9388,3.9388,3.9388,3.9388,3.8966,3.8512,3.8667,3.7755,3.6869,3.6988,3.6498,3.5993,3.6019,3.6005,3.6005,3.6068,3.6068,3.6085,3.6242,3.6274,3.6352,3.6492,3.6289,3.6132,3.6132,3.6226,3.6352,3.6492,3.6492,3.6492,3.6492,3.6492,3.6492,3.6492,3.6492,3.6492,3.6492,3.6492,3.6492,3.6492,3.6492,3.6492,3.6492,3.7268,3.7867,3.8306,3.9082,4.0072,3.6872,3.7788,3.9126,3.8486,4.0317,4.2297,4.2366,4.2821,4.3245,4.326,4.326,4.3275,4.329,4.3305,4.3544,4.4242,4.4362,4.4601,4.5274,4.5334,4.508,4.4421,4.3723,4.3319,4.329,4.329,4.329,4.329,4.329,4.3045,4.2425,4.1796,4.11,4.0427,3.9783,3.9403,3.9388,3.9388,3.9388,3.9388,3.9388,3.9388,3.9388,3.9388,3.9388,3.9388,3.9388,3.9388,3.9388,3.9388,3.9388,3.9388,3.9388,3.9388,3.9388,3.9388,3.9388,3.9388,3.9388,3.9388,3.9388,3.9388,3.9388,3.9388,3.9388,3.9388,3.9388,3.9388,3.9073,3.8702,3.8702,3.8189,3.7545,3.7094,3.6829,3.6549,3.6093,3.6005,3.6037,3.6179,3.6196,3.6242,3.646,3.6492,3.6492,3.6492,3.6492,3.6492,3.6492,3.6492,3.6492,3.6492,3.6492,3.6492,3.6492,3.6492,3.6492,3.6492,3.6492,3.6492,3.6492,3.6492,3.6492,3.6492,3.6492,3.6492,3.6492,3.7693,3.8278,3.8351,3.9523,4.0476,3.7813,3.8494,3.9651,4.0746,4.1694,4.2515,4.291,4.3125,4.329,4.329,4.329,4.329,4.329,4.3648,4.4062,4.4272,4.4676,4.5035,4.5259,4.4915,4.4407,4.3778,4.3439,4.3125,4.2731,4.2686,4.2865,4.326,4.294,4.2402,4.1782,4.1085,4.0427,3.9768,3.9529,3.9388,3.9388,3.9388,3.9388,3.9388,3.9388,3.9388,3.9388,3.9388,3.9388,3.9388,3.9388,3.9388,3.9388,3.9388,3.9388,3.9388,3.9388,3.9388,3.9388,3.9388,3.9388,3.9388,3.9388,3.9388,3.9388,3.9388,3.9388,3.9388,3.9388,3.9388,3.9388,3.9388,3.9296,3.9187,3.9329,3.8867,3.8379,3.8427,3.773,3.7029,3.7009,3.6642,3.6367,3.6383,3.6383,3.6414,3.6492,3.6492,3.6492,3.6492,3.6492,3.6492,3.6492,3.6492,3.6492,3.6492,3.6492,3.6492,3.6492,3.6492,3.6492,3.6492,3.6492,3.6492,3.6492,3.6492,3.6693,3.7104,3.6693,3.6693,3.7088,3.7895,3.8306,3.8351,3.9549,4.0773,3.8164,3.9011,4.0187,4.1976,4.2575,4.2821,4.32,4.329,4.329,4.329,4.315,4.3045,4.3245,4.3299,4.3419,4.3883,4.4122,4.4332,4.4556,4.4227,4.3823,4.3419,4.315,4.291,4.2731,4.2321,4.2321,4.294,4.2635,4.2006,4.107,4.0621,4.0098,3.9403,3.9388,3.9388,3.9388,3.9388,3.9388,3.9388,3.9388,3.9388,3.9388,3.9388,3.9388,3.9388,3.9388,3.9388,3.9388,3.9388,3.9388,3.9388,3.9388,3.9388,3.9388,3.9388,3.9388,3.9388,3.9388,3.9388,3.9388,3.9388,3.9388,3.9388,3.9388,3.9388,3.9388,3.9388,3.9445,3.9553,3.9732,3.9486,3.9213,3.9283,3.8583,3.7894,3.7875,3.7523,3.7138,3.6892,3.6861,3.6769,3.6538,3.6492,3.6492,3.6492,3.6492,3.6492,3.6492,3.6492,3.6492,3.6492,3.6492,3.6492,3.6492,3.6492,3.6492,3.6492,3.6492,3.6492,3.6492,3.6492,3.6693,3.7074,3.6693,3.6693,3.7074,3.7679,3.7982,3.801,3.8984,4.0361,3.7846,3.9253,4.0733,4.2087,4.288,4.329,4.329,4.3275,4.3245,4.3245,4.2761,4.253,4.308,4.2237,4.1833,4.305,4.2791,4.2626,4.32,4.329,4.329,4.3245,4.2776,4.2641,4.3185,4.2162,4.1707,4.2306,4.2321,4.1752,4.0472,4.0367,4.0068,3.9403,3.9388,3.9388,3.9388,3.9388,3.9388,3.9388,3.9388,3.9388,3.9388,3.9388,3.9388,3.9388,3.9388,3.9388,3.9388,3.9388,3.9388,3.9388,3.9388,3.9388,3.9388,3.9388,3.9388,3.9388,3.9379,3.9394,3.9388,3.9388,3.9388,3.9388,3.9388,3.9388,3.9388,3.9388,3.9553,3.9732,3.9925,3.996,3.9914,3.9588,3.9355,3.9072,3.8659,3.8539,3.8308,3.7631,3.7477,3.7246,3.6599,3.6492,3.6492,3.6492,3.6492,3.6492,3.6492,3.6492,3.6492,3.6492,3.6492,3.6492,3.6492,3.6492,3.6492,3.6492,3.6492,3.6492,3.6492,3.6492,3.6523,3.6554,3.6523,3.6523,3.6554,3.7118,3.7417,3.7417,3.8042,3.9429,3.765,3.9073,4.0656,4.2589,4.317,4.329,4.329,4.2955,4.265,4.265,4.2126,4.1722,4.1848,4.2051,4.2261,4.259,4.288,4.3135,4.3275,4.329,4.315,4.2671,4.2895,4.2955,4.2641,4.2351,4.2021,4.1692,4.1175,4.0756,4.0412,3.9933,3.9589,3.9424,3.9388,3.9388,3.9388,3.9388,3.9388,3.9388,3.9388,3.9388,3.9388,3.9388,3.9388,3.9388,3.9388,3.9388,3.9388,3.9388,3.9388,3.9388,3.9388,3.9388,3.9388,3.9388,3.9388,3.9313,3.8841,3.899,3.9388,3.9388,3.9388,3.9388,3.9388,3.9388,3.9388,3.9388,3.946,3.9496,3.9532,3.9783,3.9965,3.9888,3.9654,3.9395,3.9259,3.8862,3.8308,3.7631,3.7092,3.6692,3.6522,3.6492,3.6492,3.6492,3.6492,3.6492,3.6492,3.6492,3.6492,3.6492,3.6492,3.6492,3.6492,3.6492,3.6492,3.6492,3.6492,3.6492,3.6492,3.6492,3.6723,3.7148,3.6723,3.6723,3.7178,3.7328,3.7417,3.7433,3.8528,3.9615,3.7355,3.8801,4.0337,4.2232,4.2739,4.2761,4.2891,4.2626,4.2321,4.2036,4.1452,4.104,4.1324,4.1482,4.1722,4.2306,4.2671,4.3015,4.3245,4.329,4.3155,4.2836,4.3105,4.3155,4.2821,4.2306,4.1811,4.1452,4.0771,4.0277,3.9993,3.9619,3.9388,3.9388,3.9388,3.9388,3.9388,3.9388,3.9388,3.9388,3.9388,3.9388,3.9388,3.9388,3.9388,3.9388,3.9388,3.9388,3.9388,3.9388,3.9388,3.9388,3.9388,3.9388,3.9388,3.9388,3.9388,3.9364,3.8975,3.9095,3.9328,3.9065,3.917,3.9388,3.9388,3.9388,3.9388,3.9388,3.9445,3.9517,3.9517,3.9818,4.0137,4.0137,4.004,3.992,3.992,3.9628,3.9108,3.8138,3.7153,3.6492,3.6492,3.6492,3.6492,3.6492,3.6492,3.6492,3.6492,3.6492,3.6492,3.6492,3.6492,3.6492,3.6492,3.6492,3.6492,3.6492,3.6492,3.6492,3.6492,3.6492,3.6662,3.7013,3.6662,3.6817,3.742,3.7154,3.7326,3.7873,3.8305,3.9195,3.7145,3.8474,3.9789,4.1403,4.1835,4.1934,4.2149,4.2183,4.1976,4.1407,4.0726,4.0442,4.101,4.0726,4.0801,4.2066,4.2336,4.262,4.32,4.329,4.329,4.329,4.329,4.329,4.329,4.2147,4.1422,4.1422,4.0696,4.0023,3.9454,3.9388,3.9388,3.9388,3.9388,3.9388,3.9388,3.9388,3.9388,3.9388,3.9388,3.9388,3.9388,3.9388,3.9388,3.9388,3.9388,3.9388,3.9388,3.9388,3.9388,3.9388,3.9388,3.9388,3.9388,3.9388,3.9388,3.9373,3.932,3.9349,3.9305,3.8616,3.8856,3.9373,3.9305,3.9313,3.9388,3.9388,3.9442,3.954,3.9631,3.9869,4.0135,4.0211,4.0366,4.0489,4.0505,4.0428,4.0013,3.8877,3.7631,3.6769,3.6769,3.6676,3.663,3.663,3.6553,3.6492,3.6492,3.6492,3.6492,3.6492,3.6492,3.6492,3.6492,3.6492,3.6492,3.6492,3.6492,3.6492,3.6492,3.6492,3.6538,3.6615,3.663,3.6953,3.7631,3.7046,3.7353,3.8492,3.8,3.8694,3.728,3.8074,3.8681,4.0406,4.0993,4.1178,4.1237,4.0991,4.0711,4.0591,4.0053,3.9634,3.9738,4.0113,4.0651,4.1467,4.2051,4.262,4.32,4.329,4.329,4.329,4.329,4.329,4.329,4.2147,4.1422,4.1422,4.0277,3.9508,3.9424,3.9388,3.9388,3.9388,3.9388,3.9388,3.9388,3.9388,3.9388,3.9388,3.9388,3.9388,3.9388,3.9388,3.9388,3.9388,3.9388,3.9388,3.9388,3.9388,3.9388,3.9388,3.9388,3.9388,3.9388,3.9388,3.9388,3.9298,3.8766,3.8945,3.9305,3.8616,3.8856,3.932,3.8736,3.896,3.9388,3.9388,3.9041,3.8762,3.9311,3.9219,3.9158,3.9859,4.0207,4.0366,4.047,4.0043,3.9582,3.9351,3.8708,3.8154,3.8154,3.7692,3.7323,3.7323,3.6846,3.6492,3.6492,3.6492,3.6492,3.6492,3.6492,3.6492,3.6492,3.6492,3.6492,3.6492,3.6492,3.6492,3.6492,3.6492,3.6753,3.7323,3.7323,3.7661,3.8338,3.8215,3.8277,3.8523,3.897,3.936,3.6679,3.7303,3.7907,3.9332,3.9586,3.9633,4.0302,4.0071,3.9727,3.9875,3.9634,3.9388,3.9388,3.9963,4.0502,4.0816,4.1452,4.2111,4.2731,4.2821,4.2955,4.3245,4.329,4.329,4.329,4.2147,4.1422,4.1422,4.0172,3.9388,3.9388,3.9388,3.9388,3.9388,3.9388,3.9388,3.9388,3.9388,3.9388,3.9388,3.9388,3.9388,3.9388,3.9388,3.9388,3.9388,3.9388,3.9388,3.9388,3.9388,3.9388,3.9388,3.9388,3.9388,3.9388,3.9388,3.9388,3.9328,3.9035,3.914,3.9245,3.8212,3.8332,3.8826,3.8497,3.8377,3.8377,3.8377,3.8207,3.8187,3.8742,3.8943,3.9161,3.9723,4.0101,4.0331,4.0455,3.9967,3.949,3.949,3.897,3.8508,3.8508,3.8246,3.8031,3.8031,3.7754,3.7538,3.7538,3.7538,3.7277,3.6569,3.6492,3.6492,3.6492,3.6815,3.7015,3.7015,3.7353,3.7538,3.7538,3.7538,3.7692,3.8015,3.8031,3.8354,3.9031,3.8677,3.8877,3.9521,3.949,3.9674,3.6164,3.667,3.7235,3.8277,3.8167,3.8046,3.9132,3.8968,3.8716,3.9062,3.9156,3.9192,3.9373,3.9843,4.0232,4.0382,4.095,4.1647,4.2306,4.2515,4.2761,4.323,4.329,4.3245,4.3135,4.2058,4.1324,4.119,4.0083,3.9388,3.9388,3.9388,3.9388,3.9388,3.9388,3.9388,3.9388,3.9388,3.9388,3.9388,3.9388,3.9388,3.9388,3.9388,3.9388,3.9388,3.9388,3.9388,3.9388,3.9388,3.9388,3.9388,3.9388,3.9388,3.9388,3.9388,3.9388,3.9388,3.9388,3.9388,3.9179,3.8003,3.7973,3.8347,3.8063,3.7719,3.7404,3.7404,3.7417,3.7545,3.8053,3.8439,3.8835,3.936,3.9768,4.0078,4.0335,4.0006,3.9671,3.9671,3.9275,3.8939,3.8939,3.8831,3.8723,3.8723,3.86,3.8508,3.8508,3.8508,3.8108,3.703,3.6923,3.6861,3.6722,3.7323,3.7707,3.7707,3.8215,3.8508,3.8508,3.8508,3.8585,3.8723,3.8723,3.9029,3.9705,3.92,3.9459,4.0489,3.9951,3.9982,3.6447,3.6684,3.6815,3.7201,3.7164,3.7118,3.7234,3.7178,3.7313,3.8127,3.8315,3.8538,3.928,3.9433,3.9709,4.0307,4.095,4.1647,4.2306,4.2865,4.323,4.329,4.329,4.309,4.2545,4.1841,4.113,4.0531,3.9828,3.9388,3.9388,3.9388,3.9388,3.9388,3.9388,3.9388,3.9388,3.9388,3.9388,3.9388,3.9388,3.9388,3.9388,3.9388,3.9388,3.9388,3.9388,3.9388,3.9388,3.9388,3.9388,3.9388,3.9388,3.9388,3.9388,3.9388,3.9388,3.9388,3.9388,3.9388,3.929,3.8542,3.8347,3.8167,3.7015,3.7,3.7404,3.7404,3.7015,3.675,3.7345,3.7124,3.7106,3.8456,3.8951,3.9291,3.9894,4.0126,4.022,4.022,4.0297,4.0305,4.0305,3.9797,3.9398,3.9398,3.8908,3.8508,3.8508,3.8508,3.8462,3.8338,3.8323,3.8077,3.7461,3.8031,3.8415,3.8415,3.8477,3.8508,3.8508,3.8508,3.88,3.9382,3.9398,3.9721,4.0397,4.0336,4.0366,4.0489,4.0428,4.0428,3.626,3.6546,3.6581,3.6815,3.6328,3.6066,3.6807,3.6455,3.6213,3.7218,3.7834,3.8315,3.8627,3.9068,3.9514,3.9768,4.0023,4.0427,4.1085,4.1399,4.1863,4.2656,4.2746,4.2641,4.2425,4.1796,4.0935,3.9888,3.9574,3.9388,3.9388,3.9388,3.9388,3.9388,3.9388,3.9388,3.9388,3.9388,3.9388,3.9388,3.9388,3.9388,3.9388,3.9388,3.9388,3.9388,3.9388,3.9388,3.9388,3.9388,3.9388,3.9388,3.9388,3.9388,3.9388,3.9388,3.9388,3.9388,3.9388,3.9155,3.8691,3.8018,3.7539,3.715,3.6641,3.6387,3.6267,3.6267,3.6088,3.6043,3.6686,3.6941,3.7248,3.8065,3.8353,3.8497,3.8872,3.9409,3.9821,3.9821,4.0178,4.0489,4.0489,4.0274,4.009,4.009,3.9859,3.969,3.969,3.969,3.9536,3.917,3.8754,3.84,3.8123,3.8723,3.9108,3.9108,3.9459,3.969,3.969,3.969,3.9813,4.009,4.009,4.0228,4.0489,4.0489,4.0489,4.0489,4.0489,4.0489,3.5906,3.6279,3.6452,3.6581,3.5864,3.5353,3.6314,3.569,3.5237,3.6306,3.7218,3.791,3.815,3.8848,3.9388,0.0,3.9589,3.9873,4.0337,4.0561,4.104,4.1991,4.2111,4.2036,4.1841,4.119,4.0412,3.9448,3.9388,3.9388,3.9388,3.9388,3.9388,3.9388,3.9388,3.9388,3.9388,3.9388,3.9388,3.9388,3.9388,3.9388,3.9388,3.9388,3.9388,3.9388,3.9388,3.9388,3.9388,3.9388,3.9388,3.9388,3.9388,3.9388,3.9388,3.9388,3.9388,3.9394,3.9185,3.8796,3.8257,3.7404,3.6851,3.6447,3.6252,3.5863,3.5504,3.5504,3.5504,3.5609,3.6073,3.6522,3.6963,3.7494,3.7637,3.7731,3.8114,3.8678,3.9161,3.9361,3.9825,4.0259,4.0459,4.0489,4.0489,4.0489,4.0489,4.0489,4.0489,4.0489,4.032,3.9844,3.9351,3.9031,3.8831,3.9398,3.9782,3.9782,4.0228,4.0489,4.0489,4.0489,4.0489,4.0489,4.0489,4.0489,4.0489,4.0489,4.0489,4.0489,4.0489,4.0489,3.5508,3.5956,3.6405,3.6405,3.5726,3.5143,3.5353,3.4731,3.4439,3.5507,3.6346,3.7165,3.8037,3.8848,3.9388,3.9388,3.9963,0.0,4.0397,4.0965,4.1369,4.1384,4.1384,4.113,4.0487,3.9828,3.9439,3.9388,3.9388,3.9388,3.9388,3.9388,3.9388,3.9388,3.9388,3.9388,3.9388,3.9388,3.9388,3.9388,3.9388,3.9388,3.9388,3.9388,3.9388,3.9388,3.9388,3.9388,3.9388,3.9388,3.9388,3.9388,3.9388,3.9388,3.9388,3.9388,3.9388,3.932,3.8631,3.8407,3.8182,3.6911,3.6525,3.6372,3.5714,3.5504,3.5504,3.5504,3.5504,3.5504,3.5519,3.5519,3.5716,3.6511,3.6694,3.6941,3.7743,3.8047,3.8412,3.9069,3.9373,3.9705,4.0382,4.0489,4.0489,4.0489,4.0489,4.0489,4.0489,4.0489,4.0489,4.0489,4.0474,4.0197,3.9536,4.009,4.0489,4.0489,4.0489,4.0489,4.0489,4.0489,4.0489,4.0489,4.0489,4.0489,4.0489,4.0489,4.0489,4.0489,4.0489,4.0489,3.4831,3.5115,3.524,3.524,3.4745,3.4382,3.4778,3.4319,3.4176,3.5426,3.636,3.7165,3.8037,3.8848,3.9574,4.0023,4.0262,4.0397,4.0397,4.0965,4.1422,4.1422,4.1422,4.1332,4.1085,4.0068,3.9388,3.9388,3.9388,3.9388,3.9388,3.9388,3.9388,3.9388,3.9388,3.9388,3.9388,3.9388,3.9388,3.9388,3.9388,3.9388,3.9388,3.9388,3.9388,3.9388,3.9388,3.9388,3.9388,3.9388,3.9388,3.9388,3.9388,3.9388,3.9388,3.9388,3.9388,3.932,3.8631,3.8093,3.7584,3.6761,3.6178,3.5774,3.5564,3.5504,3.5504,3.5504,3.5504,3.5504,3.5504,3.5504,3.5549,3.5824,3.6049,3.6288,3.6565,3.7187,3.7764,3.7995,3.8442,3.9046,3.969,3.9797,3.9967,4.0428,4.0489,4.0489,4.0489,4.0489,4.0489,4.0489,4.0489,4.0397,4.0197,4.0366,4.0489,4.0489,4.0489,4.0489,4.0489,4.0489,4.0489,4.0489,4.0489,4.0489,4.0489,4.0489,4.0489,4.0505,4.1032,4.1263,3.4261,3.4562,3.468,3.468,3.4311,3.4029,3.451,3.4135,3.4079,3.5413,3.636,3.7165,3.8037,3.8848,3.9559,3.9963,4.0023,4.0023,4.0023,4.0591,4.11,4.1354,4.116,4.101,4.101,4.0053,3.9388,3.9388,3.9388,3.9388,3.9388,3.9388,3.9388,3.9388,3.9388,3.9388,3.9388,3.9388,3.9388,3.9388,3.9388,3.9388,3.9388,3.9388,3.9388,3.9388,3.9388,3.9388,0.0,3.9388,3.9388,3.9388,3.9388,3.9388,3.9388,3.9388,3.9388,3.929,3.8347,3.7749,3.727,3.6402,3.6013,3.5923,3.6148,3.6058,3.5878,3.5878,3.6043,3.6222,3.6222,3.6043,3.5911,3.5929,3.5914,3.5894,3.5973,3.6531,3.7089,3.7335,3.7798,3.8354,3.9031,3.9105,3.9336,4.0013,4.0105,4.0197,4.0459,4.0489,4.0489,4.0489,4.0489,4.0597,4.0909,4.0659,4.0489,4.0489,4.0489,4.0489,4.0489,4.0489,4.0489,4.0489,4.0489,4.0489,4.0489,4.0766,4.094,4.094,4.1648,4.1986,0.0,3.4211,3.4613,3.4613,3.4223,3.3966,3.4446,3.411,0.0,3.5494,3.6385,3.7165,3.8113,3.8885,3.9439,3.9448,3.9448,3.9448,3.9448,4.0053,4.0726,4.1429,4.0935,4.0516,4.0472,3.9873,3.9433,3.9388,3.9388,3.9388,3.9388,3.9388,3.9388,3.9388,3.9388,3.9388,3.9388,3.9388,3.9388,3.9388,3.9388,3.9388,3.9388,3.9388,3.9388,3.9388,3.9388,3.9388,3.9388,3.9388,3.9388,3.9388,3.9388,3.9388,3.9388,3.9388,3.9394,3.9119,3.7853,3.7375,3.715,3.5968,3.6013,3.6656,3.724,3.7,3.6552,3.6552,3.6971,3.7404,3.7404,3.6985,3.657,3.6676,3.626,3.5888,3.6017,3.6191,3.6515,3.7187,3.747,3.7844,3.8567,3.869,3.8921,3.9598,3.9705,3.9936,4.0566,4.0643,4.0643,4.0643,4.0643,4.092,4.1617,4.0935,4.0536,4.0628,4.0597,4.0597,4.0643,4.0643,4.0643,4.0643,4.0643,4.0643,4.0643,4.134,4.1678,4.1694,4.2355,4.2679,3.3232,0.0,3.347,3.347,3.337,3.3399,0.0,3.3815,3.4275,3.6227,3.6763,3.7357,3.8833,3.9265,3.9589,4.0083,4.0172,4.0172,4.0172,4.0726,4.1579,4.2731,4.2297,4.1737,4.119,4.0561,3.9963,3.9454,3.9388,3.9388,3.9388,3.9388,3.9388,3.9388,3.9388,3.9388,3.9388,3.9388,3.9388,3.9388,3.9388,3.9388,3.9388,3.9388,3.9388,3.9388,3.9388,3.9388,3.9388,3.9388,3.9388,3.9388,3.9388,3.9388,3.9388,3.9388,3.9095,3.8512,3.7704,3.7105,3.6656,3.6357,3.6671,3.7225,3.736,3.73,3.7195,3.7195,3.73,3.7404,3.7404,3.73,3.7075,3.6663,3.6899,3.7104,3.6625,3.7028,3.7722,3.839,3.8546,3.8994,4.0358,4.0556,4.0872,4.1735,4.1878,4.194,4.2109,4.2125,4.2125,4.2125,4.2125,4.2186,4.2355,4.1232,4.0951,4.2048,4.1632,4.1586,4.2109,4.2125,4.2125,4.2125,4.2125,4.2125,4.2125,4.2294,4.2371,4.2386,4.3033,4.334,3.3124,3.3124,3.3124,3.3124,3.3124,3.3197,3.3598,3.3995,3.4787,3.6529,3.7218,3.7895,3.9141,3.9388,3.9508,3.9888,3.9948,4.0157,4.0771,4.116,4.1863,4.314,4.2761,4.2261,4.1901,4.0965,4.0247,3.9903,3.9553,3.9388,3.9388,3.9388,3.9388,3.9388,3.9388,3.9388,3.9388,3.9388,3.9388,3.9388,3.9388,3.9388,3.9388,3.9388,3.9388,3.9388,3.9388,3.9388,3.9388,3.9388,3.9388,3.9388,3.9388,3.9388,3.9388,3.9388,3.899,3.8287,3.7644,3.7,3.6582,3.7165,3.7584,3.7973,3.8601,3.8571,3.8257,3.7943,3.8093,3.8332,3.8332,3.8093,3.7778,3.7434,3.7683,3.7841,3.7166,3.7933,3.8745,3.8791,3.9102,3.9631,4.0451,4.066,4.101,4.1843,4.2053,4.2248,4.2571,4.2602,4.2602,4.2602,4.2602,4.2725,4.3017,4.2094,4.1801,4.2556,4.2263,4.2232,4.2586,4.2602,4.2602,4.2602,4.2602,4.2602,4.2602,4.291,4.3048,4.3063,4.3762,4.4071,3.3224,3.3206,3.3181,3.3106,3.3124,3.3197,3.3598,3.4345,3.5346,3.6646,3.7577,3.8427,3.9265,3.9463,3.9574,3.9574,3.9649,4.0142,4.1392,4.1572,4.1983,4.314,4.2851,4.2515,4.241,4.1354,4.0621,4.0412,3.9888,3.9493,3.9424,3.9388,3.9388,3.9388,3.9388,3.9388,3.9388,3.9388,3.9388,3.9388,3.9388,3.9388,3.9388,3.9388,3.9388,3.9388,3.9388,3.9388,3.9388,3.9388,3.9388,3.9388,3.9388,3.9388,3.9388,3.9388,3.899,3.8317,3.7749,3.7345,3.7255,3.8347,3.8766,3.9065,4.0202,4.0157,3.9604,3.902,3.92,3.9574,3.9574,3.9215,3.8826,3.8721,3.8766,3.8661,3.8003,3.8962,3.982,3.936,3.9813,4.0328,4.047,4.0608,4.0964,4.1534,4.1801,4.2191,4.2759,4.2873,4.2873,4.291,4.2873,4.3088,4.3716,4.3181,4.2873,4.291,4.2817,4.2802,4.291,4.291,4.291,4.291,4.291,4.291,4.291,4.3501,4.3762,4.3778,4.4348,4.461,3.3646,3.3771,3.3658,3.3194,3.3124,3.3197,3.3598,3.4345,3.5346,3.6646,3.7577,3.8427,3.9265,3.9873,4.0247,4.0247,4.0711,4.1339,4.2141,4.2246,4.253,4.32,4.32,4.297,4.2455,4.2216,4.1632,4.0487,4.0307,4.0008,3.9454,3.9388,3.9388,3.9388,3.9388,3.9388,3.9388,3.9388,3.9388,3.9388,3.9388,3.9388,3.9388,3.9388,3.9388,3.9388,3.9388,3.9388,3.9388,3.9388,3.9388,3.9388,3.9388,3.9388,3.9388,3.9388,3.899,3.8377,3.8272,3.8916,3.9828,4.0038,4.0472,4.0965,4.116,4.116,4.1055,4.095,4.0591,4.0247,4.0247,4.0591,4.0786,4.0232,4.0516,4.0741,4.0083,4.0583,4.1295,4.1745,4.191,4.2241,4.2967,4.315,4.3257,4.354,4.3594,4.3716,4.3999,4.4052,4.409,4.4264,4.4128,4.4136,4.4418,4.4189,4.4128,4.4279,4.3778,4.3716,4.4249,4.4279,4.4279,4.4279,4.4279,4.4279,4.4279,4.4409,4.4471,4.4471,4.4564,4.461,3.3382,3.3458,3.3438,3.3303,3.3467,3.384,3.4424,3.5224,3.6188,3.7372,3.8263,3.8958,3.9337,3.9963,4.0516,4.0876,4.119,4.1647,4.2306,4.2396,4.2635,4.3215,4.329,4.317,4.291,4.2605,4.2006,4.0995,4.0591,4.0113,3.9454,3.9388,3.9388,3.9388,3.9388,3.9388,3.9388,3.9388,3.9388,3.9388,3.9388,3.9388,3.9388,3.9388,3.9388,3.9388,3.9388,3.9388,3.9388,3.9388,3.9388,3.9388,3.9388,3.9388,3.9379,3.899,3.8901,3.8901,3.8527,3.9275,4.0457,4.0816,4.113,4.1482,4.1841,4.1707,4.1422,4.1422,4.116,4.0935,4.0935,4.116,4.1309,4.0995,4.1467,4.1767,4.107,4.1728,4.2417,4.241,4.2641,4.3024,4.3418,4.3596,4.3729,4.3832,4.3949,4.4026,4.4143,4.4243,4.4358,4.4435,4.4473,4.4496,4.4572,4.4511,4.4496,4.4572,4.4317,4.4286,4.461,4.461,4.4549,4.4435,4.4435,4.4435,4.4435,4.4435,4.4496,4.461,4.461,4.461,3.3043,3.3124,3.3129,3.3191,3.3641,3.4323,3.5314,3.612,3.6985,3.8182,3.8952,3.9388,3.9388,4.0083,4.0846,4.1542,4.1743,4.2013,4.256,4.262,4.2776,4.3245,4.329,4.329,4.329,4.288,4.2252,4.1482,4.0905,4.0277,3.9433,3.9388,3.9388,3.9388,3.9388,3.9388,3.9388,3.9388,3.9388,3.9388,3.9388,3.9388,3.9388,3.9388,3.9388,3.9388,3.9388,3.9388,3.9388,3.9388,3.9388,3.9388,3.9388,3.9388,3.9379,3.899,3.929,3.9828,3.9454,4.0098,4.116,4.1669,4.1833,4.1923,4.2447,4.2237,4.1833,4.1833,4.1833,4.1803,4.1692,4.1728,4.1833,4.1833,4.2222,4.2447,4.1953,4.2626,4.314,4.2686,4.2985,4.329,4.329,4.3463,4.3596,4.3596,4.3754,4.3856,4.391,4.405,4.4166,4.4205,4.432,4.4396,4.4473,4.4496,4.4534,4.4534,4.4534,4.4534,4.4534,4.4572,4.4549,4.4358,4.432,4.432,4.4358,4.4281,4.4358,4.461,4.4534,4.4534,3.293,3.3124,3.3041,3.2722,3.3204,3.4174,3.5827,3.654,3.7215,3.8707,3.9247,3.9388,3.9388,4.0457,4.1572,4.2231,4.2806,4.317,4.3215,4.323,4.3245,4.329,4.329,4.329,4.329,4.3245,4.2731,4.1474,4.1377,4.0756,3.9448,3.9388,3.9388,3.9388,3.9388,3.9388,3.9388,3.9388,3.9388,3.9388,3.9388,3.9388,3.9388,3.9388,3.9388,3.9388,3.9388,3.9388,3.9388,3.9388,3.9388,3.9388,3.9388,3.9388,3.9448,4.0053,4.0666,4.1324,4.1916,4.2536,4.3095,4.314,4.3155,4.3155,4.32,4.3185,4.3155,4.3155,4.3155,4.3006,4.2485,4.2746,4.3155,4.3155,4.3185,4.32,4.317,4.323,4.329,4.323,4.326,4.329,4.329,4.3329,4.3329,4.3329,4.3329,4.3423,4.3675,4.3714,4.3793,4.3988,4.3871,4.3832,4.4026,4.4205,4.432,4.432,4.432,4.432,4.432,4.4496,4.4572,4.4587,4.4396,4.4396,4.4587,4.4205,4.4205,4.4587,4.4396,4.4435,3.2478,3.2541,3.2533,3.257,3.3658,3.5029,3.6259,3.7395,3.8661,4.0206,4.0248,4.0023,4.0023,4.0771,4.1632,4.2291,4.291,4.329,4.329,4.329,4.329,4.329,4.329,4.329,4.329,4.329,4.2955,4.2096,4.1647,4.0995,4.0083,3.9649,3.9388,3.9388,3.9388,3.9156,3.8664,3.8664,3.8375,3.7829,3.8412,3.8375,3.7829,3.7829,3.8121,3.8664,3.8664,3.8922,3.9388,3.9388,3.9388,3.9388,3.9388,3.9664,4.0053,4.0307,4.107,4.2066,4.2306,4.2791,4.329,4.329,4.329,4.329,4.329,4.329,4.329,4.329,4.329,4.3245,4.303,4.315,4.329,4.329,4.329,4.329,4.329,4.329,4.329,4.329,4.329,4.329,4.329,4.329,4.329,4.329,4.329,4.3329,4.3423,4.3596,4.3729,4.3808,4.3871,4.391,4.3988,4.4065,4.4065,4.3949,4.405,4.4166,4.4281,4.4358,4.4396,4.4396,4.4358,4.4281,4.4243,4.405,4.4065,4.4243,4.4281,4.4358,3.2001,3.1951,3.1993,3.2171,3.3781,3.5601,3.6665,3.8112,3.9665,4.1383,4.0995,4.0397,4.0397,4.0935,4.1572,4.2021,4.2776,4.329,4.329,4.329,4.329,4.329,4.329,4.329,4.329,4.329,4.306,4.2455,4.1796,4.11,4.0442,3.9768,3.9265,3.9031,3.9031,3.8612,3.7796,3.7796,3.7347,3.6543,3.7116,3.7232,3.688,3.688,3.7372,3.8202,3.8202,3.8501,3.9031,3.9031,3.9031,3.9031,3.9031,3.9594,4.039,4.0307,4.1156,4.2387,4.2307,4.2704,4.329,4.329,4.329,4.329,4.329,4.329,4.329,4.329,4.329,4.329,4.329,4.329,4.329,4.329,4.329,4.329,4.329,4.329,4.329,4.329,4.329,4.329,4.329,4.329,4.329,4.329,4.329,4.329,4.329,4.3463,4.3557,4.3557,4.3754,4.391,4.391,4.391,4.3832,4.3729,4.3754,4.3895,4.4089,4.4166,4.4243,4.4281,4.4181,4.4104,4.4089,4.3895,4.3871,4.3988,4.4065,4.4127,3.1537,3.1386,3.1386,3.1386,3.3437,3.5764,3.7089,3.8457,3.9993,4.1991,4.1324,4.0412,4.0397,4.0935,4.1384,4.1422,4.2476,4.329,4.329,4.329,4.329,4.329,4.329,4.329,4.329,4.329,4.306,4.2455,4.1796,4.11,4.0442,3.9783,3.9031,3.824,3.8202,3.7796,3.688,3.688,3.6464,3.5709,3.5709,3.6082,3.688,3.688,3.7372,3.8165,3.8165,3.8202,3.8202,3.8202,3.8202,3.8202,3.8202,3.9098,4.036,4.01,4.1008,4.2384,4.2059,4.2578,4.329,4.329,4.325,4.329,4.329,4.329,4.329,4.329,4.329,4.329,4.329,4.329,4.329,4.329,4.329,4.329,4.329,4.329,4.329,4.329,4.329,4.329,4.329,4.329,4.329,4.329,4.329,4.329,4.329,4.329,4.329,4.329,4.3557,4.369,4.369,4.369,4.369,4.369,4.3463,4.3423,4.369,4.391,4.4104,4.4281,4.391,4.391,4.4281,4.3606,4.3527,4.3988,4.3808,4.3808,3.0984,3.111,3.1386,3.1386,3.4045,3.6899,3.777,3.9454,4.11,4.2186,4.2096,4.1527,4.0561,4.1309,4.1961,4.1497,4.2476,4.329,4.329,4.329,4.329,4.329,4.329,4.329,4.329,4.329,4.3215,4.306,4.2013,4.1294,4.11,4.0023,3.9031,3.824,3.8202,3.7529,3.6082,3.6042,3.5615,3.4799,3.4799,3.4909,3.5182,3.5776,3.6215,3.6452,3.7025,3.7295,3.7295,3.7295,3.7295,3.7337,3.7753,3.8478,3.929,3.9635,4.0728,4.203,4.1266,4.163,4.2278,4.163,4.1407,4.1532,4.2196,4.2415,4.2496,4.313,4.2875,4.2415,4.2415,4.2415,4.2537,4.317,4.329,4.329,4.329,4.329,4.329,4.329,4.329,4.329,4.329,4.329,4.329,4.329,4.329,4.329,4.329,4.329,4.329,4.329,4.3384,4.3423,4.3423,4.3596,4.3596,4.3423,4.3518,4.3596,4.369,4.3769,4.3871,4.4104,4.3988,4.391,4.3871,4.3675,4.3557,4.3503,4.3636,4.3729,3.1336,3.1474,3.1825,3.2277,3.4584,3.7297,3.9254,4.0998,4.2267,4.2656,4.259,4.2156,4.1324,4.1871,4.2186,4.1527,4.2267,4.2851,4.2596,4.2551,4.2656,4.291,4.294,4.3045,4.3275,4.329,4.329,4.329,4.2117,4.1422,4.1422,4.0127,3.9031,3.824,3.7872,3.7039,3.5709,3.5345,3.4909,3.4397,3.4397,3.4397,3.4439,3.495,3.5386,3.5749,3.6201,3.6425,3.6385,3.6029,3.6108,3.6494,3.7078,3.7891,3.8806,3.9005,4.0083,4.1296,4.0375,4.0646,4.1338,4.0774,4.0859,4.1254,4.1811,4.199,4.2114,4.2633,4.2155,4.1505,4.1908,4.199,4.2114,4.2659,4.3036,4.329,4.329,4.329,4.329,4.329,4.329,4.329,4.329,4.329,4.329,4.329,4.329,4.329,4.329,4.329,4.329,4.329,4.329,4.329,4.329,4.3463,4.3463,4.329,4.3463,4.3557,4.3557,4.3557,4.3636,4.3871,4.3778,4.3699,4.369,4.3596,4.3463,4.329,4.3463,4.3557,3.2077,3.2177,3.2541,3.3571,3.5121,3.7346,4.1096,4.2659,4.329,4.329,4.2865,4.247,4.241,4.244,4.2246,4.1542,4.1976,4.2171,4.1474,4.1422,4.1647,4.2246,4.2306,4.2506,4.305,4.3125,4.3125,4.3125,4.1998,4.1294,4.1294,4.0024,3.8922,3.8113,3.7256,3.6385,3.5588,3.4799,3.4397,3.4397,3.4397,3.4397,3.4397,3.4481,3.495,3.5709,3.5629,3.5588,3.5507,3.4716,3.4868,3.5656,3.6223,3.7332,3.8518,3.8335,3.9198,4.0332,3.9431,3.9681,4.0461,4.0389,4.0916,4.1645,4.1728,4.1728,4.1769,4.1867,4.1212,4.0689,4.1645,4.1811,4.1769,4.1867,4.2618,4.329,4.329,4.329,4.329,4.329,4.329,4.329,4.329,4.329,4.329,4.329,4.329,4.329,4.329,4.329,4.329,4.329,4.329,4.329,4.329,4.329,4.329,4.329,4.329,4.329,4.329,4.329,4.3423,4.3651,4.3423,4.3423,4.3651,4.3423,4.329,4.329,4.329,4.329,3.1072,3.1901,3.2955,3.3194,3.5828,3.8936,4.1184,4.2541,4.329,4.329,4.3185,4.297,4.25,4.2776,4.2746,4.1564,4.1976,4.2171,4.1474,4.1422,4.1467,4.1617,4.1632,4.1692,4.1788,4.1803,4.1803,4.1803,4.107,4.0606,4.0606,3.9239,3.806,3.7218,3.6399,3.5548,3.4675,3.4481,3.4397,3.4397,3.4397,3.4397,3.4439,3.5114,3.5507,3.5669,3.4991,3.4675,3.4675,3.4481,3.4522,3.478,3.5808,3.6412,3.6781,3.7659,3.8622,3.9387,3.8472,3.8774,3.9387,3.8697,3.8634,3.8922,3.9607,3.9812,3.9942,4.0689,4.0246,3.9724,4.0646,4.0332,3.9986,4.0731,4.214,4.329,4.329,4.329,4.329,4.329,4.329,4.329,4.329,4.329,4.329,4.329,4.329,4.329,4.329,4.329,4.329,4.329,4.329,4.329,4.329,4.329,4.329,4.329,4.329,4.329,4.329,4.329,4.3329,4.3384,4.3329,4.3329,4.3384,4.3329,4.329,4.329,4.329,4.329,3.1386,3.2403,3.3726,3.4727,3.6801,3.9081,4.1013,4.1988,4.2644,4.321,4.329,4.3185,4.2895,4.2851,4.2536,4.1549,4.1399,4.119,4.0531,4.0442,4.0561,4.0876,4.0905,4.104,4.1354,4.1707,4.1886,4.1886,4.125,4.0876,4.0876,3.9178,3.8,3.7539,3.6334,3.5467,3.5032,3.4592,3.4397,3.4397,3.4397,3.4397,3.4439,3.4868,3.5073,3.5032,3.4592,3.4397,3.4397,3.4397,3.4397,3.4515,3.5652,3.6109,3.6253,3.7456,3.8194,3.8517,3.807,3.8194,3.8517,3.807,3.8181,3.8594,3.9033,3.921,3.9285,3.9768,3.9268,3.8805,3.9681,3.9549,3.9417,4.0375,4.1672,4.2659,4.2659,4.301,4.329,4.329,4.329,4.329,4.329,4.329,4.329,4.329,4.329,4.329,4.329,4.329,4.329,4.329,4.329,4.329,4.329,4.329,4.329,4.329,4.329,4.329,4.329,4.329,4.329,4.329,4.329,4.329,4.329,4.329,4.329,4.329,4.329,4.329,3.1813,3.2893,3.4382,3.6283,3.7441,3.8545,4.0318,4.1042,4.167,4.2765,4.3155,4.329,4.329,4.2806,4.2186,4.1527,4.0831,4.0172,3.9478,3.9388,3.9619,4.0172,4.0232,4.0442,4.0995,4.1572,4.1886,4.1886,4.1392,4.104,4.104,3.9109,3.8,3.8,3.6334,3.5467,3.5467,3.4758,3.4397,3.4397,3.4397,3.4397,3.4397,3.4397,3.4397,3.4397,3.4397,3.4397,3.441,3.4502,3.4554,3.4672,3.5809,3.6253,3.6397,3.7495,3.79,3.79,3.79,3.79,3.79,3.79,3.8395,3.8957,3.8957,3.8957,3.8957,3.8957,3.8472,3.8103,3.8957,3.9077,3.9224,4.0116,4.0944,4.1603,4.1949,4.2699,4.329,4.329,4.329,4.329,4.329,4.329,4.329,4.329,4.329,4.329,4.329,4.329,4.329,4.329,4.329,4.329,4.329,4.329,4.329,4.329,4.329,4.329,4.329,4.329,4.329,4.329,4.329,4.329,4.329,4.329,4.329,4.329,4.329,4.329,3.0809,3.2328,3.4205,3.5403,3.6909,3.8153,3.8469,3.9508,4.0675,4.1629,4.2589,4.329,4.329,4.2806,4.2186,4.1527,4.0831,4.0172,3.9478,3.9388,3.9418,3.9508,3.9508,3.9589,3.9679,3.9768,3.9813,3.9813,3.9723,3.9679,3.9679,3.8005,3.7088,3.7088,3.5454,3.4551,3.4551,3.4481,3.4397,3.4397,3.4397,3.4397,3.4397,3.4397,3.4397,3.4397,3.4397,3.4397,3.4437,3.4959,3.5182,3.5286,3.6436,3.6881,3.6972,3.7652,3.79,3.79,3.79,3.79,3.79,3.79,3.7992,3.807,3.807,3.807,3.807,3.807,3.7992,3.8103,3.8957,3.8639,3.8317,3.9179,3.9461,4.0029,4.1645,4.2699,4.329,4.329,4.329,4.329,4.329,4.329,4.329,4.329,4.329,4.329,4.329,4.329,4.329,4.329,4.329,4.329,4.329,4.329,4.329,4.329,4.329,4.329,4.329,4.329,4.329,4.329,4.329,4.329,4.329,4.329,4.329,4.329,4.329,4.329,3.2127,3.2943,3.3847,3.5579,3.6349,3.6889,3.786,3.859,3.9376,4.059,4.1197,4.1932,4.3076,4.2806,4.2186,4.1527,4.0831,4.0172,3.9478,3.9388,3.9388,3.9388,3.9388,3.9388,3.9388,3.9753,3.9963,3.9963,3.9963,3.9963,3.9963,3.8016,3.688,3.688,3.5251,3.4397,3.4397,3.4397,3.4397,3.4397,3.4397,3.4397,3.4397,3.4397,3.4397,3.4397,3.4397,3.458,3.492,3.5195,3.5482,3.5835,3.6671,3.6998,3.7077,3.7678,3.79,3.79,3.79,3.79,3.79,3.79,3.79,3.79,3.79,3.79,3.79,3.79,3.79,3.7992,3.8349,3.8194,3.7992,3.8395,3.8836,3.9417,4.0246,4.1547,4.2714,4.321,4.329,4.329,4.329,4.329,4.329,4.329,4.329,4.329,4.329,4.329,4.329,4.329,4.329,4.329,4.329,4.329,4.329,4.329,4.329,4.329,4.329,4.329,4.329,4.329,4.329,4.329,4.329,4.329,4.329,4.329,4.329,4.329,3.2579,3.2968,3.3319,3.5299,3.5642,3.5865,3.7331,3.7723,3.8107,3.942,3.977,4.0476,4.2508,4.2421,4.19,4.1489,4.0831,4.0172,3.9478,3.9388,3.9388,3.9388,3.9388,3.9388,3.9388,3.9858,4.0157,4.0157,4.0157,4.0157,4.0157,3.8088,3.688,3.688,3.5251,3.4397,3.4397,3.4397,3.4397,3.4397,3.4397,3.4397,3.441,3.4554,3.462,3.462,3.462,3.4959,3.5521,3.5665,3.5966,3.6397,3.6998,3.7233,3.7286,3.7743,3.79,3.79,3.79,3.79,3.79,3.79,3.79,3.79,3.79,3.79,3.79,3.79,3.79,3.79,3.79,3.79,3.79,3.79,3.8395,3.9015,3.9475,4.0646,4.1893,4.2795,4.2955,4.3036,4.325,4.329,4.329,4.329,4.329,4.329,4.329,4.329,4.329,4.329,4.329,4.329,4.329,4.329,4.329,4.329,4.329,4.329,4.329,4.329,4.329,4.329,4.329,4.329,4.329,4.329,4.329,4.329,4.329,4.329,3.0608,3.1512,3.2541,3.3734,3.4788,3.568,3.6326,3.6628,3.707,3.803,3.8599,3.9533,4.1337,4.1357,4.1163,4.136,4.0831,4.0172,3.9478,3.9388,3.9388,3.9388,3.9388,3.9388,3.9388,3.9418,3.9433,3.9433,3.9433,3.9433,3.9433,3.7843,3.688,3.688,3.5251,3.4397,3.4397,3.4397,3.4397,3.4397,3.4397,3.4397,3.441,3.4986,3.5247,3.5247,3.5247,3.5561,3.6109,3.6684,3.6933,3.7011,3.7625,3.7861,3.7861,3.79,3.79,3.79,3.79,3.79,3.79,3.79,3.79,3.79,3.79,3.79,3.79,3.79,3.79,3.79,3.79,3.79,3.79,3.79,3.7946,3.8453,4.0173,4.0603,4.0944,4.1908,4.2073,4.2319,4.317,4.329,4.329,4.329,4.329,4.329,4.329,4.329,4.329,4.329,4.329,4.329,4.329,4.329,4.329,4.329,4.329,4.329,4.329,4.329,4.329,4.329,4.329,4.329,4.329,4.329,4.329,4.329,4.329,4.329,3.0871,3.1148,3.1625,3.3445,3.4198,3.4726,3.5629,3.62,3.6628,3.7103,3.7335,3.7978,3.9563,4.0858,4.1737,4.1987,4.1497,4.0801,4.0142,3.9694,3.9388,3.9388,3.9388,3.9388,3.9388,3.9388,3.9388,3.9388,3.9388,3.9388,3.9388,3.7791,3.688,3.688,3.5251,3.4397,3.4397,3.4397,3.4397,3.4397,3.4789,3.4972,3.4986,3.5195,3.5704,3.6371,3.5979,3.6136,3.6698,3.692,3.7233,3.7599,3.7821,3.79,3.79,3.79,3.79,3.79,3.79,3.79,3.79,3.79,3.79,3.79,3.79,3.79,3.79,3.79,3.79,3.79,3.79,3.79,3.79,3.79,3.79,3.807,3.8756,3.9796,4.0901,4.1811,4.199,4.2293,4.317,4.329,4.329,4.329,4.329,4.329,4.329,4.329,4.329,4.329,4.329,4.329,4.329,4.329,4.329,4.329,4.329,4.329,4.329,4.329,4.329,4.329,4.329,4.329,4.329,4.329,4.329,4.329,4.329,4.329,3.0658,3.0733,3.1097,3.3119,3.3483,3.3771,3.5441,3.5818,3.5965,3.6505,3.6675,3.7116,3.8387,3.9812,4.0956,4.1376,4.1332,4.095,4.0076,3.9824,3.9664,3.9454,3.9388,3.9388,3.9388,3.9619,3.9753,3.9753,3.9753,3.9593,3.9306,3.7792,3.6646,3.6068,3.4978,3.4397,3.4397,3.4397,3.4502,3.4711,3.5103,3.5391,3.5574,3.5783,3.6279,3.6998,3.6789,3.6933,3.7312,3.7312,3.7547,3.79,3.79,3.79,3.79,3.79,3.79,3.79,3.79,3.79,3.79,3.79,3.79,3.79,3.79,3.79,3.79,3.79,3.79,3.79,3.79,3.79,3.79,3.79,3.79,3.79,3.79,3.8832,4.0057,4.1296,4.1505,4.1893,4.309,4.329,4.329,4.329,4.329,4.329,4.329,4.329,4.329,4.329,4.329,4.329,4.329,4.329,4.329,4.329,4.329,4.329,4.329,4.329,4.329,4.329,4.329,4.329,4.329,4.329,4.329,4.329,4.329,4.329,0.0,0.0,0.0,3.2604,3.2591,3.2905,3.5688,3.5441,3.4989,3.6153,3.6496,3.6938,3.788,3.827,3.8666,3.9423,4.0326,4.0517,3.9204,3.9784,4.0114,3.9471,3.9397,3.9397,3.9397,4.0016,4.0427,4.039,4.039,4.001,3.914,3.7699,3.6108,3.4439,3.4397,3.4397,3.4397,3.441,3.4724,3.5299,3.5325,3.5626,3.6149,3.6737,3.7011,3.7063,3.7639,3.7887,3.79,3.79,3.79,3.79,3.79,3.79,3.79,3.79,3.79,3.79,3.79,3.79,3.79,3.79,3.79,3.79,3.79,3.79,3.79,3.79,3.79,3.79,3.79,3.79,3.79,3.79,3.79,3.79,3.79,3.79,3.8408,4.0216,4.0546,4.1113,4.2941,4.325,4.325,4.329,4.329,4.329,4.329,4.329,4.329,4.329,4.329,4.329,4.329,4.329,4.329,4.329,4.329,4.329,4.329,4.329,4.329,4.329,4.329,4.329,4.329,4.329,4.329,4.329,4.329,4.329,2.9792,0.0,0.0,0.0,0.0,0.0,3.3664,3.3746,3.396,3.5466,3.55,3.5633,3.687,3.7163,3.7389,3.7975,3.8976,3.966,3.9459,3.9238,3.9294,3.9784,3.9847,3.9847,3.9847,4.0626,4.0859,4.0149,4.011,3.9828,3.9131,3.7153,3.5534,3.4439,3.4397,3.4397,3.4397,3.4829,3.5129,3.5312,3.6136,3.6606,3.6763,3.6933,3.7246,3.7639,3.7377,3.7495,3.79,3.79,3.79,3.79,3.79,3.79,3.79,3.79,3.79,3.79,3.79,3.79,3.79,3.79,3.79,3.79,3.79,3.79,3.79,3.79,3.79,3.79,3.79,3.79,3.79,3.79,3.79,3.79,3.79,3.79,3.8239,3.9343,3.9593,4.0159,4.2032,4.2374,4.2578,4.321,4.329,4.329,4.329,4.329,4.329,4.329,4.329,4.329,4.329,4.329,4.329,4.329,4.329,4.329,4.329,4.329,4.329,4.329,4.329,4.329,4.329,4.329,4.329,4.329,4.329,4.329,2.9792,2.9792,2.998,3.0746,0.0,0.0,3.3006,3.3056,3.3194,3.4818,3.5082,3.5253,3.6079,3.6429,3.6722,3.7261,3.787,3.8499,3.9014,3.9048,3.9126,3.9384,3.941,3.941,3.941,4.0173,4.0412,3.9877,3.9836,3.9316,3.8062,3.6429,3.5175,3.4397,3.4397,3.4397,3.4397,3.475,3.5155,3.5639,3.6305,3.6894,3.7377,3.7377,3.7573,3.7887,3.7534,3.7586,3.79,3.79,3.79,3.79,3.79,3.79,3.79,3.79,3.79,3.79,3.79,3.79,3.79,3.79,3.79,3.79,3.79,3.79,3.79,3.79,3.79,3.79,3.79,3.79,3.79,3.79,3.79,3.79,3.79,3.79,3.8148,3.9046,3.921,3.9681,4.1169,4.1728,4.2155,4.2659,4.309,4.329,4.329,4.329,4.329,4.329,4.329,4.329,4.329,4.329,4.329,4.329,4.329,4.329,4.329,4.329,4.329,4.329,4.329,4.329,4.329,4.329,4.329,4.329,4.329,4.329,2.9792,2.9792,0.0,3.0972,3.0495,0.0,3.2955,3.2704,3.2441,3.4186,3.4831,3.5182,3.537,3.5855,3.637,3.679,3.6934,3.7266,3.8152,3.8912,3.9243,3.8741,3.8671,3.8671,3.8671,3.9299,3.9648,3.9564,3.9508,3.8616,3.6642,3.5764,3.5051,3.4515,3.4437,3.4397,3.4397,3.4528,3.5103,3.6109,3.624,3.6867,3.79,3.79,3.79,3.79,3.79,3.79,3.79,3.79,3.79,3.79,3.79,3.79,3.79,3.79,3.79,3.79,3.79,3.79,3.79,3.79,3.79,3.79,3.79,3.79,3.79,3.79,3.79,3.79,3.79,3.79,3.79,3.79,3.79,3.79,3.79,3.79,3.8148,3.8926,3.9046,3.9343,4.0289,4.1212,4.1867,4.199,4.2739,4.329,4.329,4.329,4.329,4.329,4.329,4.329,4.329,4.329,4.329,4.329,4.329,4.329,4.329,4.329,4.329,4.329,4.329,4.329,4.329,4.329,4.329,4.329,4.329,4.329,2.9792,2.9792,2.9842,3.0055,2.9942,0.0,3.1035,3.0746,3.0859,3.2968,3.3119,3.3282,3.4593,3.4964,3.513,3.5415,3.5862,3.659,3.7801,3.8113,3.8439,3.9002,3.9076,3.9076,3.9076,3.9866,4.0078,3.9328,3.8874,3.8131,3.6968,3.5869,3.5247,3.5129,3.4646,3.4397,3.4397,3.5312,3.5874,3.6109,3.709,3.7678,3.79,3.79,3.79,3.79,3.79,3.79,3.79,3.79,3.79,3.79,3.79,3.79,3.79,3.79,3.79,3.79,3.79,3.79,3.79,3.79,3.79,3.79,3.79,3.79,3.79,3.79,3.79,3.79,3.79,3.79,3.79,3.79,3.79,3.79,3.79,3.79,3.7946,3.8103,3.8148,3.844,3.9299,4.0246,4.1113,4.1908,4.2739,4.329,4.329,4.329,4.329,4.329,4.329,4.329,4.329,4.329,4.329,4.329,4.329,4.329,4.329,4.329,4.329,4.329,4.329,4.329,4.329,4.329,4.329,4.329,4.329,4.329,2.9792,2.9792,2.9792,2.9792,2.9792,0.0,0.0,3.0407,3.0595,3.1951,3.2215,3.2478,3.3319,3.3709,3.4086,3.4597,3.5136,3.5774,3.658,3.7293,3.792,3.8472,3.8549,3.8549,3.8549,3.8997,3.9073,3.8594,3.8296,3.7793,3.7056,3.6462,3.5887,3.5312,3.4999,3.4698,3.4397,3.5273,3.5835,3.6109,3.7024,3.7612,3.79,3.79,3.79,3.79,3.79,3.79,3.79,3.79,3.79,3.79,3.79,3.79,3.79,3.79,3.79,3.79,3.79,3.79,3.79,3.79,3.79,3.79,3.79,3.79,3.79,3.79,3.79,3.79,3.79,3.79,3.79,3.79,3.79,3.79,3.79,3.79,3.79,3.79,3.79,3.8194,3.9033,3.9986,4.0901,4.1867,4.2739,4.329,4.329,4.329,4.329,4.329,4.329,4.329,4.329,4.329,4.329,4.329,4.329,4.329,4.329,4.329,4.329,4.329,4.329,4.329,4.329,4.329,4.329,4.329,4.329,4.329,3.0105,3.0105,3.008,2.998,2.9942,3.0043,0.0,0.0,0.0,3.1135,3.1599,3.1938,3.2039,3.2441,3.3016,3.3756,3.4369,3.4851,3.5219,3.6341,3.7221,3.7625,3.7789,3.79,3.79,3.7795,3.7782,3.79,3.7795,3.7573,3.7194,3.7063,3.658,3.5652,3.5508,3.5221,3.4724,3.5325,3.5848,3.6279,3.6881,3.7429,3.79,3.79,3.79,3.79,3.79,3.79,3.79,3.79,3.79,3.79,3.79,3.79,3.79,3.79,3.79,3.79,3.79,3.79,3.79,3.79,3.79,3.79,3.79,3.79,3.79,3.79,3.79,3.79,3.79,3.79,3.79,3.79,3.79,3.79,3.79,3.79,3.79,3.79,3.79,3.8103,3.8836,3.9869,4.0859,4.1603,4.2618,4.329,4.329,4.329,4.329,4.329,4.329,4.329,4.329,4.329,4.329,4.329,4.329,4.329,4.329,4.329,4.329,4.329,4.329,4.329,4.329,4.329,4.329,4.329,4.329,4.329,3.121,3.121,3.1097,3.0633,3.052,3.0407,2.998,0.0,3.0043,3.0595,0.0,3.0934,3.1399,0.0,0.0,3.2357,3.2935,3.3575,3.433,3.5105,3.5962,3.6748,3.7449,3.79,3.79,3.7416,3.7325,3.7861,3.7403,3.7312,3.7782,3.7299,3.6946,3.6815,3.6292,3.5979,3.5913,3.6515,3.6841,3.6907,3.7521,3.7835,3.79,3.79,3.79,3.79,3.79,3.79,3.79,3.79,3.79,3.79,3.79,3.79,3.79,3.79,3.79,3.79,3.79,3.79,3.79,3.79,3.79,3.79,3.79,3.79,3.79,3.79,3.79,3.79,3.79,3.79,3.79,3.79,3.79,3.79,3.79,3.79,3.79,3.79,3.79,3.7946,3.8024,3.9458,4.0646,4.0731,4.2222,4.329,4.329,4.329,4.329,4.329,4.329,4.329,4.329,4.329,4.329,4.329,4.329,4.329,4.329,4.329,4.329,4.329,4.329,4.329,4.329,4.329,4.329,4.329,4.329,4.329,3.1386,3.1386,3.1273,3.0746,3.062,3.047,2.9917,2.9792,2.9854,3.0093,0.0,0.0,0.0,0.0,0.0,0.0,3.2014,3.2709,3.3021,3.4045,3.5116,3.6082,3.6577,3.6998,3.7351,3.7155,3.726,3.7861,3.7351,3.726,3.7874,3.7665,3.7364,3.7011,3.6763,3.6449,3.6109,3.6698,3.6998,3.7011,3.7612,3.79,3.79,3.79,3.79,3.79,3.79,3.79,3.79,3.79,3.79,3.79,3.79,3.79,3.79,3.79,3.79,3.79,3.79,3.79,3.79,3.79,3.79,3.79,3.79,3.79,3.79,3.79,3.79,3.79,3.79,3.79,3.79,3.79,3.79,3.79,3.79,3.79,3.79,3.79,3.79,3.79,3.79,3.8939,3.9986,4.0504,4.1713,4.2537,4.2537,4.2996,4.329,4.329,4.329,4.329,4.329,4.329,4.329,4.329,4.329,4.329,4.329,4.329,4.329,4.329,4.329,4.329,4.329,4.329,4.329,4.329,4.329,4.329,3.1851,3.1851,3.1687,3.0997,3.0834,3.0645,2.9955,2.9905,3.0018,3.0018,3.0131,0.0,0.0,0.0,0.0,0.0,0.0,3.2039,3.219,3.3017,3.4066,3.5272,3.5898,3.6504,3.7194,3.6946,3.7077,3.7848,3.7194,3.709,3.7861,3.79,3.7704,3.726,3.7246,3.7037,3.6606,3.7037,3.7246,3.726,3.7691,3.79,3.79,3.79,3.79,3.79,3.79,3.79,3.79,3.79,3.79,3.79,3.79,3.79,3.79,3.79,3.79,3.79,3.79,3.79,3.79,3.79,3.79,3.79,3.79,3.79,3.79,3.79,3.79,3.79,3.79,3.79,3.79,3.79,3.79,3.79,3.79,3.79,3.79,3.79,3.79,3.79,3.79,3.8639,3.9417,4.0116,4.1254,4.199,4.199,4.2739,4.329,4.329,4.329,4.329,4.329,4.329,4.329,4.329,4.329,4.329,4.329,4.329,4.329,4.329,4.329,4.329,4.329,4.329,4.329,4.329,4.329,4.329,3.3074,3.3074,3.2797,3.1637,3.1361,3.1085,3.003,3.0206,3.0583,3.0583,3.0984,3.1336,3.1336,0.0,0.0,0.0,0.0,0.0,0.0,3.2007,3.2476,3.4139,3.5743,3.6994,3.7763,3.6815,3.6619,3.7808,3.6802,3.6658,3.7848,3.79,3.79,3.7874,3.7874,3.7861,3.7848,3.7861,3.7874,3.7874,3.79,3.79,3.79,3.79,3.79,3.79,3.79,3.79,3.79,3.79,3.79,3.79,3.79,3.79,3.79,3.79,3.79,3.79,3.79,3.79,3.79,3.79,3.79,3.79,3.79,3.79,3.79,3.79,3.79,3.79,3.79,3.79,3.79,3.79,3.79,3.79,3.79,3.79,3.79,3.79,3.79,3.79,3.79,3.8639,3.921,3.9241,4.0817,4.199,4.199,4.2739,4.329,4.329,4.329,4.329,4.329,4.329,4.329,4.329,4.329,4.329,4.329,4.329,4.329,4.329,4.329,4.329,4.329,4.329,4.329,4.329,4.329,4.329,3.3124,3.3124,3.2893,3.2127,3.1662,3.1198,3.0495,3.0482,3.062,3.062,3.1035,3.1386,3.1386,0.0,0.0,0.0,0.0,0.0,0.0,3.1593,3.2082,3.3538,3.4988,3.5884,3.5911,3.6209,3.6675,3.7273,3.6933,3.705,3.7861,3.79,3.79,3.79,3.79,3.79,3.79,3.79,3.79,3.79,3.79,3.79,3.79,3.79,3.79,3.79,3.79,3.79,3.79,3.79,3.79,3.79,3.79,3.79,3.79,3.79,3.79,3.79,3.79,3.79,3.79,3.79,3.79,3.79,3.79,3.79,3.79,3.79,3.79,3.79,3.79,3.79,3.79,3.79,3.79,3.79,3.79,3.79,3.79,3.79,3.79,3.79,3.79,3.8148,3.8562,3.9121,4.0289,4.1296,4.1908,4.2739,4.329,4.329,4.329,4.329,4.329,4.329,4.329,4.329,4.329,4.329,4.329,4.329,4.329,4.329,4.329,4.329,4.329,4.329,4.329,4.329,4.329,4.329,3.324,3.3283,3.3131,3.2395,3.2034,3.1672,3.1009,3.1035,3.1185,3.1185,3.1612,3.1989,3.1989,0.0,0.0,0.0,0.0,0.0,0.0,3.1436,3.1917,3.2613,3.3878,3.493,3.5468,3.5836,3.6365,3.7227,3.692,3.7037,3.7861,3.8083,3.8109,3.7913,3.8096,3.8096,3.79,3.79,3.79,3.79,3.79,3.79,3.79,3.79,3.79,3.79,3.79,3.79,3.79,3.79,3.79,3.79,3.79,3.79,3.79,3.79,3.79,3.79,3.79,3.79,3.79,3.79,3.79,3.79,3.79,3.79,3.79,3.79,3.79,3.79,3.79,3.79,3.79,3.79,3.79,3.79,3.79,3.79,3.79,3.79,3.79,3.79,3.79,3.79,3.8103,3.8626,3.9782,4.0817,4.1421,4.2563,4.329,4.329,4.329,4.329,4.329,4.329,4.329,4.329,4.329,4.329,4.329,4.329,4.329,4.329,4.329,4.329,4.329,4.329,4.329,4.329,4.329,4.329]}]]